     2              OBSERVATION DATA    GPS                 RINEX VERSION / TYPE
teqc 1998Mar9 19981223 02:11:10UTC                          PGM / RUN BY / DATE
                                                            COMMENT
Original Marker Name: SD18                                  COMMENT
Campaign Name: HPGN 1998                                    COMMENT
4-Character Station Name: SD18                              COMMENT
6-Character Antenna Code: TRMCMP                            COMMENT
Vertical Measurement Point: BPA                             COMMENT
Vertical Offset to Rinex Ref. Point: 0.0000                 COMMENT
Radial Measurement Point: RRP                               COMMENT
Radial Offset to Rinex Ref. Point: 0.0000                   COMMENT
Antenna Height from Field Measurement: 2.2200 m             COMMENT
Original XYZ: 0.0000 0.0000 0.0000                          COMMENT
New XYZ position is based on association with SCEC monument COMMENT
E1C8S0M0+0011. Position of that monument is believed to be  COMMENT
valid to within 1 m horizontally; vertical accuracy         COMMENT
should be no worse than 3-times this value.                 COMMENT
                                                            COMMENT
Revised Rinex header created by UCSD GPS archive for        COMMENT
GSAC on 01-Jun-1999 (1999:152) 23:05:30 GMT                 COMMENT
For assistance contact dagnew@ucsd.edu or hjohnson@ucsd.edu COMMENT
                                                            COMMENT
SD GPS 18                                                   MARKER NAME
unknown CITY OF SAN DIEGO                                   OBSERVER / AGENCY
6332 TRIMBLE 4000 SSE NP 7.24; SP 3.07                      REC # / TYPE / VERS
217 TR GEOD L1/L2 GP                                        ANT # / TYPE
 -2427650.0000 -4778682.0000  3445867.0000                  APPROX POSITION XYZ
        2.2200        0.0000        0.0000                  ANTENNA: DELTA H/E/N
     1     1     0                                          WAVELENGTH FACT L1/2
     7    C1    L1    L2    P1    P2    S1    S2            # / TYPES OF OBSERV
     0                                                      INTERVAL
  1998     6    11    19    35   15.000000                  TIME OF FIRST OBS
  1998     6    11    21    19    0.000000                  TIME OF LAST OBS
                                                            END OF HEADER
 98  6 11 19 35 15.0000000  0  6G 5G 6G 8G10G17G24
  22825146.3444     259895.88656    124123.85056                  22825150.2934
        17.0004         14.7504
  23037052.1484    -228149.09456   -120519.83756                  23037055.2304
        17.2504         16.2504
  26154080.1334     302621.38752     72035.11551                  26154090.9534
         4.2504          1.2504
  22430958.8284      72617.68257     35117.32256                  22430961.9104
        20.5004         20.5004
  24487998.8674    -272076.29355    -99044.38755                  24488004.8324
         9.7504          5.7504
  24388169.1954     273740.88056     44040.34155                  24388172.3714
        13.7504          6.5004
 98  6 11 19 35 30.0000000  0  6G 5G 6G 8G10G17G24
  22832263.6804     297297.69346    153268.08946                  22832267.4304
        17.2504         14.7504
  23031057.9064    -259648.18546   -145064.55546                  23031061.0124
        17.2504         16.0004
  26161819.2114     343290.12542    103724.80141                  26161828.0744
         4.2504          1.2504
  22432975.9064      83217.82647     43377.19546                  22432979.1414
        20.0004         20.7504
  24480881.9144    -309474.72845   -128185.96145                  24480887.2934
        10.0004          5.5004
  24395173.5554     310548.16346     72721.34245                  24395176.7304
        13.5004          6.5004
 98  6 11 19 35 45.0000000  0  6G 5G 6G 8G10G17G24
  22839397.9694     334788.86546    182481.96546                  22839401.4494
        17.2504         14.5004
  23025069.1804    -291119.83046   -169587.88746                  23025072.0984
        17.7504         15.7504
  26169549.9304     383920.77542    135384.94341                  26169559.4964
         4.2504          1.0004
  22435018.7424      93952.66646     51742.03046                  22435022.0944
        19.7504         20.5004
  24473773.5234    -346829.84245   -157293.79345                  24473779.7344
         9.5004          5.2504
  24402175.7894     347347.73046    101396.32645                  24402179.8914
        13.0004          6.2504
 98  6 11 19 36  0.0000000  0  6G 5G 6G 8G10G17G24
  22846551.3284     372378.47646    211772.54646                  22846554.8554
        17.5004         15.0004
  23019087.5474    -322552.42746   -194080.79046                  23019090.6644
        17.7504         15.7504
  26177278.0704     424522.21242    167022.22341                  26177288.8094
         4.0004          1.2504
  22437088.1414     104828.14046     60216.44246                  22437091.3754
        19.7504         20.7504
  24466675.6644    -384130.93945   -186359.53745                  24466681.4534
        10.0004          6.0004
  24409179.0164     384148.51346    130072.24445                  24409182.4384
        13.0004          5.7504
 98  6 11 19 36 15.0000000  0  6G 5G 6G 8G10G17G24
  22853722.8284     410065.05446    241138.68746                  22853726.6604
        17.2504         14.5004
  23013113.5394    -353946.18846   -218543.43746                  23013116.3754
        17.2504         16.0004
  26184998.0554     465094.16142    198636.64641                  26185008.5704
         3.7504          1.2504
  22439185.0474     115845.94246     68801.75946                  22439188.4924
        19.7504         20.7504
  24459587.8754    -421375.88945   -215381.53745                  24459593.3714
        10.0004          6.0004
  24416182.8054     420952.72346    158750.82945                  24416187.2114
        13.0004          6.0004
 98  6 11 19 36 30.0000000  0  6G 5G 6G 8G10G17G24
  22860914.8834     447859.55746    270588.91646                  22860918.7384
        17.2504         14.7504
  23007148.1414    -385292.77546   -242969.31946                  23007151.0824
        17.0004         15.7504
  26192714.6094     505643.76641    230233.48041                  26192716.1914
         3.5004          1.0004
  22441310.8524     127016.61146     77506.20246                  22441314.0394
        19.7504         20.7504
  24452513.2504    -458552.65845   -244350.37445                  24452518.9804
         9.7504          6.2504
  24423189.2034     457771.36246    187440.68345                  24423193.2704
        13.0004          5.7504
 98  6 11 19 36 45.0000000  0  6G 5G 6G 8G10G17G24
  22868129.3984     485771.11746    300130.36646                  22868132.6684
        17.0004         14.7504
  23001193.9614    -416583.48146   -267351.65246                  23001197.1374
        16.7504         16.2504
  26200428.3594     546177.26242    261817.91341                  26200438.4064
         3.7504          1.2504
  22443466.5944     138346.66747     86334.83346                  22443469.8164
        20.0004         20.7504
  24445453.3444    -495649.60445   -273257.04345                  24445459.7074
         9.7504          5.7504
  24430200.1174     494615.64946    216150.48745                  24430204.4184
        13.0004          6.0004
 98  6 11 19 37  0.0000000  0  6G 5G 6G 8G10G17G24
  22875367.0314     523805.09646    329767.19946                  22875370.2544
        17.2504         14.2504
  22995250.8444    -447814.36646   -291687.39246                  22995253.8444
        17.2504         16.0004
  26208136.9454     586696.53441    293391.28041                  26208147.6374
         3.5004          1.2504
  22445654.1644     149841.99547     95292.24646                  22445657.2814
        20.0004         20.2504
  24438410.9614    -532662.27245   -302098.03345                  24438416.9024
        10.0004          5.7504
  24437217.2894     531490.73746    244884.31445                  24437221.4844
        13.0004          6.2504
 98  6 11 19 37 15.0000000  0  6G 5G 6G 8G10G17G24
  22882628.5394     561966.05446    359502.98146                  22882632.0664
        17.0004         14.2504
  22989319.7894    -478981.82446   -315973.69846                  22989322.5204
        17.2504         15.7504
  26215847.9454     627206.70642    324957.46241                  26215856.9964
         3.7504          0.7504
  22447875.0004     161512.67447    104386.29846                  22447877.9534
        20.2504         20.7504
  24431384.7814    -569585.58445   -330869.41445                  24431390.3714
        10.2504          5.7504
  24444241.2894     568401.28746    273645.77445                  24444244.6294
        12.7504          6.0004
 98  6 11 19 37 30.0000000  0  6G 5G 6G 8G10G17G24
  22889911.8204     600237.99846    389325.24846                  22889915.5234
        17.2504         13.7504
  22983397.6024    -510102.02846   -340223.18546                  22983400.5084
        17.2504         16.0004
  26223550.9144     667694.26241    356506.05941                  26223563.4344
         3.5004          0.7504
  22450126.1484     173342.91147    113604.67146                  22450129.2774
        20.2504         21.0004
  24424372.3134    -606435.07745   -359583.25045                  24424377.5634
        10.7504          6.0004
  24451268.7344     605330.30346    302421.61145                  24451272.7664
        12.5004          6.0004
 98  6 11 19 37 45.0000000  0  6G 5G 6G 8G10G17G24
  22897214.3054     638614.01146    419228.59546                  22897217.9734
        17.0004         14.0004
  22977483.9144    -541180.83646   -364440.41046                  22977486.9964
        17.2504         16.2504
  26231251.3284     708158.11041    388036.17241                  26231260.9884
         3.5004          0.7504
  22452406.5004     185325.94546    122942.11546                  22452409.4304
        19.7504         20.2504
  24417373.2734    -643213.36345   -388241.61145                  24417377.6094
        10.2504          6.5004
  24458298.6564     642273.42146    331208.46345                  24458302.7814
        12.7504          5.7504
 98  6 11 19 38  0.0000000  0  6G 5G 6G 8G10G17G24
  22904537.2504     677094.59646    449213.43346                  22904540.5664
        17.0004         14.0004
  22971576.6334    -572221.55846   -388627.97146                  22971579.6804
        17.2504         16.2504
  26238947.8524     748601.55842    419550.38741                  26238960.5704
         3.7504          1.0004
  22454716.1414     197462.35147    132399.06446                  22454719.1174
        20.2504         20.2504
  24410388.2034    -679920.83345   -416844.78945                  24410392.9264
        10.5004          6.0004
  24465330.9924     679227.22646    360003.61045                  24465335.2814
        12.2504          5.7504
 98  6 11 19 38 15.0000000  0  6G 5G 6G 8G10G17G24
  22911879.9144     715681.65346    479281.24846                  22911883.3014
        16.5004         13.5004
  22965676.7344    -603225.99246   -412787.24946                  22965679.3134
        17.7504         16.5004
  26246640.7424     789026.46441    451050.19341                  26246648.9844
         3.5004          1.0004
  22457055.1484     209754.75247    141977.56246                  22457058.3364
        20.2504         20.2504
  24403416.8134    -716559.39945   -445394.27445                  24403421.6294
        10.7504          6.2504
  24472365.1024     716192.46046    388807.68645                  24472369.9534
        12.5004          5.7504
 98  6 11 19 38 30.0000000  0  6G 5G 6G 8G10G17G24
  22919241.7734     754369.93746    509427.92346                  22919245.5004
        16.2504         13.7504
  22959782.6644    -634201.47946   -436923.97446                  22959785.7464
        17.7504         16.0004
  26254329.2344     829427.02142    482530.98741                  26254341.8134
         3.7504          1.2504
  22459423.2584     222198.63947    151674.10746                  22459426.4224
        20.2504         20.7504
  24396456.4454    -753133.49445   -473893.53445                  24396461.3444
        10.5004          6.5004
  24479400.7424     753164.97446    417617.41045                  24479404.9964
        12.0004          5.5004
 98  6 11 19 38 45.0000000  0  6G 5G 6G 8G10G17G24
  22926622.1414     793153.16546    539648.57946                  22926625.9384
        16.0004         13.0004
  22953892.8984    -665152.48246   -461041.62646                  22953895.8164
        18.0004         17.2504
  26262012.0784     869797.26442    513988.17341                  26262025.5944
         3.7504          1.0004
  22461818.7504     234786.73547    161483.01446                  22461821.9494
        20.5004         20.2504
  24389507.6174    -789650.05745   -502347.93945                  24389512.3164
        10.2504          6.0004
  24486435.8054     790135.61746    446425.69045                  24486440.8094
        12.5004          5.2504
 98  6 11 19 39  0.0000000  0  6G 5G 6G 8G10G17G24
  22934024.7664     832053.91146    569960.82346                  22934028.7734
        15.7504         12.7504
  22948012.7194    -696054.09546   -485120.77546                  22948015.2974
        18.2504         16.7504
  26269693.1414     910163.80842    545442.66441                  26269702.2034
         3.7504          0.5004
  22464246.0314     247543.21847    171423.14846                  22464249.0784
        20.2504         21.2504
  24382574.0164    -826086.14245   -530739.64645                  24382578.4804
        10.2504          6.2504
  24493475.0164     827126.34146    475249.62345                  24493479.3164
        12.0004          5.7504
 98  6 11 19 39 15.0000000  0  6G 5G 6G 8G10G17G24
  22941449.7344     871072.41746    600364.82246                  22941453.4964
        15.7504         12.7504
  22942141.8444    -726904.80546   -509160.26846                  22942144.3634
        18.7504         17.2504
  26277375.3524     950531.12342    576897.43641                  26277386.7114
         3.7504          1.2504
  22466706.8594     260472.75347    181498.11646                  22466709.9884
        20.7504         20.5004
  24375655.5474    -862440.99245   -559068.06545                  24375660.3164
        10.5004          6.5004
  24500518.1644     864139.49146    504091.02545                  24500522.5004
        12.2504          5.7504
 98  6 11 19 39 30.0000000  0  6G 5G 6G 8G10G17G24
  22948896.2814     910204.88946    630857.61746                  22948900.5124
        15.5004         12.5004
  22936280.6724    -757705.88046   -533161.08446                  22936283.0864
        18.5004         17.2504
  26285057.2504     990897.92642    608351.95441                  26285065.0704
         3.7504          1.0004
  22469199.5394     273572.91147    191706.04446                  22469202.7734
        20.2504         20.7504
  24368752.7664    -898716.05445   -587334.30045                  24368758.5904
        10.2504          5.7504
  24507565.7424     901174.64646    532949.58445                  24507570.2544
        12.0004          5.5004
 98  6 11 19 39 45.0000000  0  6G 5G 6G 8G10G17G24
  22956363.9774     949448.24446    661436.83046                  22956367.9144
        15.5004         12.5004
  22930427.9774    -788461.70146   -557126.64546                  22930430.4264
        18.7504         17.5004
  26292737.1254    1031260.90742    639803.44841                  26292740.8404
         4.0004          1.0004
  22471723.6954     286837.86147    202042.37646                  22471726.7544
        20.0004         20.7504
  24361864.7034    -934913.70145   -615540.19045                  24361870.3754
        10.2504          6.5004
  24514617.2664     938230.42746    561824.20545                  24514621.0164
        12.0004          5.7504
 98  6 11 19 40  0.0000000  0  6G 5G 6G 8G10G17G24
  22963853.5634     988805.07646    692104.45546                  22963857.3714
        15.7504         12.2504
  22924583.8444    -819172.29446   -581056.95346                  22924586.5514
        19.0004         17.5004
  26300418.2734    1071619.67642    671251.72141                  26300427.8284
         3.7504          1.2504
  22474279.2424     300267.64847    212507.14646                  22474282.2774
        20.5004         20.5004
  24354991.7664    -971032.18145   -643684.40145                  24354996.4064
        10.7504          6.7504
  24521672.6644     975306.48546    590714.62145                  24521676.7074
        12.2504          5.7504
 98  6 11 19 40 15.0000000  0  6G 5G 6G 8G10G17G24
  22971364.6094    1028276.26046    722861.18646                  22971368.6174
        15.7504         12.2504
  22918748.9304    -849836.41846   -604951.05446                  22918751.4144
        18.7504         17.7504
  26308096.6094    1111970.37842    702693.74941                  26308106.3524
         3.7504          1.0004
  22476866.5784     313863.79747    223101.55346                  22476869.6134
        20.2504         20.0004
  24348133.4454   -1007073.04245   -671768.14945                  24348138.6254
        11.0004          6.5004
  24528732.3204    1012404.98346    619622.54145                  24528736.5634
        12.2504          5.2504
 98  6 11 19 40 30.0000000  0  6G 5G 6G 8G10G17G24
  22978897.0164    1067859.60146    753705.31146                  22978900.8594
        15.7504         12.5004
  22912922.6644    -880452.82946   -628807.98146                  22912925.2894
        18.7504         18.0004
  26315773.4144    1152311.52042    734128.25941                  26315784.4574
         4.0004          1.2504
  22479485.4064     327625.08347    233824.63946                  22479488.4534
        20.0004         20.2504
  24341290.2344   -1043033.11745   -699788.92945                  24341295.0514
        11.2504          6.7504
  24535796.1254    1049525.94346    648547.95245                  24535800.5084
        12.0004          5.5004
 98  6 11 19 40 45.0000000  0  6G 5G 6G 8G10G17G24
  22986450.9384    1107554.55846    784636.41046                  22986455.0394
        15.7504         12.2504
  22907105.6564    -911020.10646   -652626.61446                  22907108.1294
        18.7504         17.7504
  26323447.7664    1192642.98042    765555.28541                  26323455.7384
         4.0004          0.7504
  22482134.9694     341550.77646    244675.83446                  22482138.0514
        19.7504         20.0004
  24334462.3054   -1078913.49045   -727747.62745                  24334466.7344
        11.2504          6.7504
  24542864.4064    1086668.07746    677489.85545                  24542869.2584
        12.2504          5.7504
 98  6 11 19 41  0.0000000  0  6G 5G 6G 8G10G17G24
  22994026.3134    1147361.02546    815654.40446                  22994030.1214
        15.7504         12.7504
  22901298.3364    -941536.96046   -676405.96846                  22901301.1024
        18.7504         18.0004
  26331120.6884    1232964.57542    796974.48141                  26331132.3404
         3.7504          1.2504
  22484816.9924     355642.96547    255656.76446                  22484819.8284
        20.0004         19.7504
  24327649.2424   -1114716.54845   -755646.05745                  24327654.4694
        10.7504          7.0004
  24549936.2974    1123832.25846    706448.94345                  24549940.7974
        12.2504          5.7504
 98  6 11 19 41 15.0000000  0  6G 5G 6G 8G10G17G24
  23001621.6724    1187275.26746    846756.37646                  23001625.1174
        16.0004         12.5004
  22895500.3754    -972006.34046   -700148.31946                  22895502.8954
        18.7504         17.5004
  26338791.2344    1273271.81442    828382.72241                  26338801.7154
         3.7504          0.7504
  22487529.5234     369898.33547    266764.84946                  22487532.4064
        20.2504         20.2504
  24320850.6804   -1150443.68145   -783485.33345                  24320855.9304
        11.0004          6.5004
  24557012.7974    1161019.22346    735425.78945                  24557017.6604
        12.2504          5.7504
 98  6 11 19 41 30.0000000  0  7G 5G 6G 8G10G17G24G26
  23009237.9454    1227300.59046    877944.90246                  23009241.5904
        15.7504         12.2504
  22889711.8914   -1002425.05346   -723851.19446                  22889714.3754
        18.7504         17.7504
  26346458.5704    1313564.50042    859779.33241                  26346466.7544
         3.7504          0.7504
  22490273.6334     384319.12846    278001.83146                  22490276.7274
        19.5004         19.5004
  24314066.6564   -1186092.20345   -811263.34045                  24314071.5554
        11.0004          6.7504
  24564094.6254    1198230.88646    764421.87945                  24564100.0394
        12.2504          5.5004
  26412474.3834     -16070.86751
         3.2504
 98  6 11 19 41 45.0000000  0  7G 5G 6G 8G10G17G24G26
  23016875.6884    1267436.65546    909219.71146                  23016879.2974
        15.7504         12.2504
  22883932.8984   -1032793.14846   -747514.62446                  22883934.9964
        18.7504         17.7504
  26354124.0784    1353840.55442    891163.07841                  26354130.3714
         4.0004          0.7504
  22493048.7734     398901.82346    289364.97146                  22493051.7274
        19.7504         19.7504
  24307297.2734   -1221665.74245   -838982.93845                  24307301.7274
        11.0004          6.5004
  24571179.3054    1235463.34446    793434.17445                  24571183.4654
        12.0004          5.7504
  26404825.1954     -56269.46941
         3.0004
 98  6 11 19 42  0.0000000  0  6G 5G 6G10G17G24G26
  23024533.8914    1307679.81946    940577.98646                  23024537.5234
        16.0004         12.7504
  22878163.6724   -1063112.33946   -771139.95246                  22878166.3204
        18.7504         17.5004
  22495853.7664     413642.77346    300851.43246                  22495856.6724
        19.5004         19.5004
  24300541.4224   -1257168.87245   -866647.66245                  24300545.5354
        11.2504          6.5004
  24578267.4534    1272711.43246    822458.64345                  24578271.4384
        12.2504          5.7504
  26397171.3134     -96490.01341
         2.7504
 98  6 11 19 42 15.0000000  0  6G 5G 6G10G17G24G26
  19734500.3594    1348057.51946    972041.10446                  19734504.3794
        16.0004         12.5004
  19574681.9144   -1093403.62546   -794743.52846                  19574684.3754
        18.5004         17.7504
  19200973.7504     428552.36946    312469.30346                  19200976.8324
        19.5004         19.2504
  20996075.9774   -1292630.35345   -894279.92645                  20996080.2664
        11.0004          6.7504
  21287646.4694    1310001.19946    851515.58645                  21287651.3554
        12.2504          5.5004
  23091791.5004    -136759.75441
         2.7504
 98  6 11 19 42 30.0000000  0  6G 5G 6G10G17G24G26
  19742198.3204    1388509.97246   1003562.44946                  19742202.0474
        15.7504         12.5004
  19568932.4774   -1123619.89846   -818288.66746                  19568934.7974
        18.7504         18.0004
  19203839.3134     443611.14146    324203.41446                  19203842.1724
        19.5004         19.2504
  20989346.0314   -1327997.39945   -921838.60945                  20989350.6954
        10.7504          6.7504
  21294739.9224    1347280.29845    880564.21945                  21294743.9414
        11.5004          5.7504
  23084129.8524    -177017.57741
         2.7504
 98  6 11 19 42 45.0000000  0  7G 5G 6G10G30G17G24G26
  19749915.8204    1429066.27846   1035164.72746                  19749919.3134
        15.7504         12.5004
  19563191.6414   -1153786.45046   -841795.05746                  19563194.0554
        18.7504         17.7504
  19206735.2344     458829.22546    336061.66146                  19206738.2114
        19.5004         19.5004
  18634473.3594       6723.73257
        21.0004
  20982627.9844   -1363299.65145   -949346.80645                  20982633.9144
        10.7504          6.7504
  21301836.4224    1384571.21645    909622.06445                  21301841.3914
        11.5004          5.0004
  23076467.3674    -217294.39441
         2.5004
 98  6 11 19 43  0.0000000  0  7G 5G 6G10G30G17G24G26
  19757654.0084    1469728.80546   1066849.77446                  19757657.7814
        15.7504         12.2504
  19557461.9064   -1183898.95546   -865259.32946                  19557464.2854
        19.0004         18.0004
  19209662.2424     474210.19646    348046.83846                  19209665.2194
        19.5004         19.2504
  18636897.0474      19459.49647
        20.7504
  20975922.0314   -1398538.52045   -976805.61845                  20975927.2114
        10.7504          6.7504
  21308935.1564    1421875.92745    938690.65445                  21308939.4804
        11.5004          5.0004
  23068799.2734    -257585.14641
         2.7504
 98  6 11 19 43 15.0000000  0  7G 5G 6G10G30G17G24G26
  19765411.3984    1510494.06446   1098614.87145                  19765415.4774
        15.5004         11.7504
  19551740.9924   -1213960.09846   -888683.58646                  19551743.5704
        18.7504         18.2504
  19212619.8524     489751.90246    360157.26346                  19212622.6884
        19.7504         19.0004
  18639351.4224      32358.23247
        20.5004
  20969228.7734   -1433713.03045  -1004214.27645                  20969233.7894
        11.0004          7.0004
  21316036.1724    1459190.85645    967767.18845                  21316040.9534
        11.5004          5.0004
  23061128.9384    -297889.08241
         2.7504
 98  6 11 19 43 30.0000000  0  7G 5G 6G10G30G17G24G26
  19773188.1804    1551360.72646   1130458.98445                  19773191.8834
        15.5004         11.7504
  19546030.3984   -1243971.46346   -912069.04946                  19546032.8594
        19.0004         18.0004
  19215607.6094     505451.79346    372390.95746                  19215610.8204
        19.7504         19.2504
  18641836.2194      45415.27347      8823.75756                  18641838.7034
        20.5004         23.2504
  20962547.4454   -1468824.44845  -1031573.77845                  20962552.0864
        11.2504          7.0004
  21323138.0944    1496512.19545    996848.75045                  21323143.0164
        11.2504          4.7504
  23053458.5474    -338205.95541
         3.0004
 98  6 11 19 43 45.0000000  0  7G 5G 6G10G30G17G24G26
  24277863.0234    1592289.22346   1162351.27545                  24277866.9964
        15.5004         11.5004
  24037221.5164   -1273900.78046   -935390.57646                  24037223.9184
        18.7504         18.5004
  23715509.6644     521297.18346    384738.01846                  23715512.8284
        19.7504         19.2504
  23141235.5084      58618.15647     19111.69946                  23141237.8054
        20.5004         23.7504
  25452771.5084   -1503837.17045  -1058856.38145                  25452776.7584
        10.7504          7.2504
  25827121.0704    1533802.15045   1025905.85245                  25827124.6684
        11.0004          4.5004
  27542677.4844    -378493.45541
         3.5004
 98  6 11 19 44  0.0000000  0  7G 5G 6G10G30G17G24G26
  24285678.6884    1633358.98046   1194353.64545                  24285682.5904
        15.0004         11.7504
  24031530.0164   -1303810.11846   -958696.53646                  24031532.4884
        19.0004         18.2504
  23718558.2734     537318.46946    397222.14646                  23718561.0984
        19.5004         19.2504
  23143780.9224      71993.74847     29534.23046                  23143783.0904
        20.5004         23.2504
  25446114.4454   -1538820.16045  -1086115.81145                  25446119.9414
        10.7504          7.0004
  25834225.5784    1571136.79545   1054997.76845                  25834230.0084
        10.7504          4.5004
  27535001.5704    -418831.55942
         3.7504
 98  6 11 19 44 15.0000000  0  7G 5G 6G10G30G17G24G26
  24293512.6724    1674527.98646   1226433.35245                  24293516.8554
        15.0004         11.2504
  24025847.5704   -1333671.45246   -981965.09246                  24025850.2544
        18.7504         18.2504
  23721637.0474     553497.56846    409829.24146                  23721639.8834
        19.5004         19.2504
  23146356.4924      85529.20647     40081.33146                  23146358.7894
        20.7504         23.0004
  25439469.7194   -1573735.76745  -1113322.71445                  25439474.5704
        10.7504          7.0004
  25841331.4064    1608479.34245   1084095.84045                  25841336.1764
        10.7504          4.5004
  27527323.4844    -459180.05042
         3.7504
 98  6 11 19 44 30.0000000  0  7G 5G 6G10G30G17G24G26
  24301365.5474    1715796.08846   1258590.28046                  24301369.3094
        15.0004         12.0004
  24020174.5004   -1363484.88146  -1005196.32246                  24020177.0314
        19.0004         18.2504
  23724746.1094     569835.58646    422560.16546                  23724749.2384
        19.5004         19.2504
  23148963.1954      99226.98147     50754.90946                  23148965.4344
        20.5004         23.0004
  25432838.6954   -1608581.90945  -1140475.51045                  25432843.8524
        10.7504          7.0004
  25848439.5704    1645832.09745   1113201.85844                  25848443.7894
        10.2504          4.2504
  27519643.2424    -499540.39241
         3.5004
 98  6 11 19 44 45.0000000  0  7G 5G 6G10G30G17G24G26
  24309237.0704    1757158.11846   1290820.37945                  24309241.0084
        15.0004         11.7504
  24014509.4844   -1393253.95946  -1028392.99646                  24014511.9924
        18.5004         18.2504
  23727884.8364     586329.88846    435412.87846                  23727888.0474
        19.5004         19.2504
  23151600.3134     113084.21947     61552.74346                  23151602.5274
        20.5004         23.2504
  25426220.9694   -1643360.86145  -1167575.95745                  25426226.2194
        11.0004          7.0004
  25855549.1724    1683193.39645   1142314.55744                  25855553.2854
        10.2504          4.2504
  27511959.3204    -539916.73041
         3.5004
 98  6 11 19 45  0.0000000  0  7G 5G 6G10G30G17G24G26
  24317125.7894    1798615.05346   1323124.44745                  24317130.3134
        14.7504         11.5004
  24008853.6174   -1422974.41446  -1051551.77046                  24008855.9024
        18.5004         18.5004
  23731053.4774     602981.34546    448388.04646                  23731056.4884
        19.2504         19.0004
  23154267.3204     127099.67347     72473.86446                  23154269.5704
        20.5004         23.2504
  25419615.7504   -1678069.52045  -1194621.61745                  25419621.1294
        11.0004          7.2504
  25862661.7424    1720568.77545   1171438.18844                  25862665.7624
        10.2504          4.0004
  27504272.9774    -580305.26042
         3.7504
 98  6 11 19 45 15.0000000  0  7G 5G 6G10G30G17G24G26
  24325032.5314    1840165.12246   1355501.09845                  24325036.7274
        14.2504         11.2504
  24003207.1644   -1452645.91246  -1074672.39946                  24003209.6374
        18.2504         17.7504
  23734251.4844     619787.12646    461483.47946                  23734254.4614
        19.0004         18.7504
  23156964.0784     141271.76347     83517.03946                  23156966.1644
        20.5004         23.2504
  25413025.1024   -1712705.61345  -1221610.72245                  25413030.3984
        10.7504          6.7504
  25869776.3674    1757958.30245   1200572.87844                  25869780.3874
         9.7504          3.7504
  27496584.9534    -620704.66442
         4.2504
 98  6 11 19 45 30.0000000  0  7G 5G 6G10G30G17G24G26
  24332956.6414    1881808.33546   1387950.30345                  24332960.6724
        14.0004         11.0004
  23997570.4534   -1482268.48446  -1097754.90346                  23997573.1604
        18.2504         17.0004
  23737478.7034     636746.11846    474698.27946                  23737481.5864
        18.7504         18.2504
  23159691.2114     155602.46747     94683.80946                  23159693.5554
        20.2504         23.0004
  25406448.5314   -1747265.77445  -1248540.66945                  25406453.0434
        10.7504          7.0004
  25876894.8914    1795365.35445   1229721.23044                  25876899.3094
        10.0004          3.7504
  27488895.3594    -661115.49842
         3.7504
 98  6 11 19 45 45.0000000  0  7G 5G 6G10G30G17G24G26
  24340899.1954    1923545.33646   1420472.60745                  24340903.6374
        14.0004         10.7504
  23991942.8674   -1511842.36146  -1120799.46746                  23991945.6914
        18.0004         17.0004
  23740735.1564     653858.64046    488032.72546                  23740738.1094
        18.5004         18.0004
  23162448.4224     170092.34247    105974.61346                  23162450.5904
        20.0004         23.0004
  25399885.8524   -1781750.89745  -1275412.15845                  25399890.8324
        10.5004          6.7504
  25884017.0474    1832790.40245   1258883.56344                  25884021.4654
         9.7504          3.7504
  27481202.5234    -701540.52141     -2098.42551                  27481212.2074
         3.5004          0.7504
 98  6 11 19 46  0.0000000  0  7G 5G 6G10G30G17G24G26
  24348859.3284    1965375.39646   1453067.41445                  24348863.9344
        14.0004         10.5004
  23986323.9144   -1541368.88346  -1143807.13046                  23986326.5864
        17.7504         16.7504
  23744020.1414     671122.14746    501484.81846                  23744022.9414
        18.5004         17.7504
  23165236.3834     184742.58246    117390.37046                  23165238.7734
        19.7504         22.5004
  25393337.7274   -1816163.46045  -1302227.09345                  25393342.6134
        11.0004          7.0004
  25891142.0784    1870235.15245   1288061.27044                  25891145.4414
        10.0004          3.7504
  27473507.5084    -741981.92441    -33611.08341                  27473518.0004
         3.2504          0.7504
 98  6 11 19 46 15.0000000  0  7G 5G 6G10G30G17G24G26
  24356837.8134    2007302.65746   1485737.97445                  24356841.9734
        13.7504         10.5004
  23980714.7034   -1570844.89146  -1166775.42446                  23980717.3284
        17.2504         16.7504
  23747334.0634     688537.56046    515055.28446                  23747337.0164
        18.0004         17.5004
  23168054.7584     199553.53146    128931.35946                  23168057.2304
        19.5004         22.0004
  25386803.4694   -1850500.63645  -1328983.28045                  25386808.0864
        10.7504          7.2504
  25898271.7504    1907701.68645   1317255.96244                  25898275.7814
         9.7504          4.0004
  27465807.7814    -782438.25341    -65135.31441                  27465819.3984
         3.5004          0.5004
 98  6 11 19 46 30.0000000  0  7G 5G 6G10G30G17G24G26
  24364835.0084    2049328.30446   1518485.18645                  24364839.1334
        13.5004         10.0004
  23975115.5944   -1600267.97546  -1189702.48446                  23975118.2424
        17.2504         16.2504
  23750677.6414     706108.01846    528746.55746                  23750680.4184
        18.0004         17.2504
  23170904.1644     214526.65146    140598.71446                  23170906.7074
        19.5004         22.5004
  25380282.8754   -1884763.58145  -1355681.64845                  25380287.4104
        10.0004          6.5004
  25905405.3284    1945189.52945   1346467.24244                  25905408.6914
         9.7504          3.5004
  27458106.8364    -822907.73341    -96669.61241                  27458126.3404
         3.5004          0.5004
 98  6 11 19 46 45.0000000  0  7G 5G 6G10G30G17G24G26
  24372850.9304    2091452.34046   1551309.07245                  24372854.8674
        13.7504         10.2504
  23969526.9694   -1629637.32146  -1212587.67946                  23969529.4064
        17.0004         16.5004
  23754051.5004     723836.68446    542561.10546                  23754054.3954
        18.0004         17.5004
  23173784.1414     229661.02746    152391.71646                  23173786.7544
        19.2504         22.5004
  25373777.0944   -1918953.74345  -1382323.28745                  25373782.0864
        10.2504          6.5004
  25912542.8914    1982698.12345   1375694.71744                  25912546.5704
         9.7504          3.7504
  27450403.5474    -863390.51541
         3.5004
 98  6 11 19 47  0.0000000  0  7G 5G 6G10G30G17G24G26
  24380886.5704    2133678.00446   1584212.14745                  24380890.9304
        13.5004          9.7504
  23963948.7584   -1658950.59346  -1235429.17346                  23963951.4304
        16.7504         16.5004
  23757455.0784     741723.81346    556499.14646                  23757458.1024
        17.7504         17.5004
  23176694.4534     244955.72846    164309.65646                  23176696.8914
        19.2504         22.0004
  25367284.9384   -1953071.06745  -1408908.16545                  25367289.9064
        10.2504          6.2504
  25919684.3834    2020225.35945   1404936.70244                  25919688.0514
         9.7504          3.7504
  27442697.6094    -903883.29341
         3.5004
 98  6 11 19 47 15.0000000  0  7G 5G 6G10G30G17G24G26
  24388941.6334    2176008.61646   1617197.00045                  24388945.8524
        13.2504          9.7504
  23958381.7114   -1688205.76746  -1258225.39246                  23958384.5824
        16.7504         16.5004
  23760889.3524     759770.37846    570561.40046                  23760892.4694
        17.7504         17.0004
  23179636.0084     260413.15046    176354.38246                  23179638.4454
        19.0004         21.7504
  25360806.5634   -1987114.09545  -1435435.17945                  25360811.3674
        10.5004          6.2504
  25926828.9384    2057769.02245   1434191.50044                  25926833.8364
         9.5004          3.7504
  27434989.7584    -944383.28841
         3.2504
 98  6 11 19 47 30.0000000  0  7G 5G 6G10G30G17G24G26
  24397016.6884    2218443.93146   1650263.43545                  24397020.6954
        13.2504          9.5004
  23952825.3594   -1717403.27246  -1280976.68146                  23952828.0434
        17.0004         16.7504
  23764354.1484     777978.07146    584749.21746                  23764357.4304
        17.7504         17.5004
  23182608.9844     276035.66646    188527.75246                  23182611.3284
        19.2504         22.2504
  25354342.5864   -2021082.38845  -1461903.92145                  25354346.9574
        10.7504          6.7504
  25933975.4064    2095326.28445   1463456.86744                  25933978.6764
         9.7504          4.0004
  27427281.8984    -984890.63741
         3.5004
 98  6 11 19 47 45.0000000  0  7G 5G 6G10G30G17G24G26
  24405112.2974    2260985.92246   1683412.99945                  24405116.7154
        13.2504          9.5004
  23947280.7194   -1746541.05946  -1303681.43446                  23947283.6484
        16.7504         16.7504
  23767850.0944     796348.48846    599063.83546                  23767853.0234
        17.7504         17.0004
  23185613.6094     291825.38746    200831.41846                  23185616.1054
        19.0004         22.2504
  25347892.7344   -2054975.47445  -1488314.08245                  25347897.1884
        10.7504          6.5004
  25941125.6644    2132898.03345   1492733.51344                  25941128.5234
        10.0004          4.2504
  27419571.5554   -1025406.07341
         3.2504
 98  6 11 19 48  0.0000000  0  7G 5G 6G10G30G17G24G26
  24413227.7974    2303633.01746   1716644.45745                  24413232.0274
        13.0004          9.7504
  23941747.3134   -1775620.37646  -1326340.61946                  23941749.9264
        16.5004         16.7504
  23771376.5944     814880.76546    613504.57846                  23771379.8524
        17.7504         17.0004
  23188649.0394     307776.37846    213260.74846                  23188651.5594
        19.0004         21.7504
  25341457.0084   -2088796.30045  -1514667.93845                  25341461.3554
        10.5004          7.0004
  25948277.0004    2170480.82745   1522018.80344                  25948280.5044
         9.7504          3.7504
  27411860.1174   -1065930.75641
         3.0004
 98  6 11 19 48 15.0000000  0  7G 5G 6G10G30G17G24G26
  24421362.7734    2346382.96246   1749956.06745                  24421366.4184
        12.7504          9.5004
  23936224.5784   -1804641.42346  -1348954.40146                  23936227.2154
        16.5004         16.2504
  23774933.2274     833571.65446    628068.91546                  23774936.6254
        17.5004         17.0004
  23191714.4844     323885.87746    225813.59246                  23191717.0864
        18.7504         21.7504
  25335034.3524   -2122545.34645  -1540965.84645                  25335039.4614
        10.5004          6.7504
  25955431.2034    2208074.70045   1551312.72644                  25955435.5744
         9.7504          4.2504
  27404146.3834   -1106463.88041
         3.5004
 98  6 11 19 48 30.0000000  0  7G 5G 6G10G30G17G24G26
  24429517.8914    2389235.69746   1783347.76545                  24429521.8404
        13.0004          9.2504
  23930713.8444   -1833601.03546  -1371520.31046                  23930716.8204
        16.5004         16.2504
  23778520.9064     852425.06446    642759.88546                  23778524.1054
        17.5004         17.0004
  23194810.4224     340155.28146    238491.03446                  23194812.6844
        18.7504         21.5004
  25328627.6174   -2156215.47845  -1567202.28045                  25328632.6094
        10.2504          6.5004
  25962587.0704    2245680.33645   1580615.79144                  25962589.9534
         9.7504          3.5004
  27396432.7274   -1147001.43341
         3.5004
 98  6 11 19 48 45.0000000  0  7G 5G 6G10G30G17G24G26
  24437690.7424    2432185.60546   1816815.18045                  24437694.5164
        13.0004          9.2504
  23925213.4144   -1862504.53446  -1394042.49746                  23925216.4614
        16.2504         16.2504
  23782138.4534     871435.49546    657573.21746                  23782141.8634
        17.2504         17.0004
  23197936.1644     356581.49146    251290.66646                  23197938.5664
        18.5004         21.5004
  25322234.5704   -2189809.76145  -1593379.59845                  25322239.0824
        10.2504          6.7504
  25969745.2274    2283294.56445   1609925.54444                  25969749.2464
         9.2504          3.7504
  27388715.9614   -1187547.26041
         3.0004
 98  6 11 19 49  0.0000000  0  7G 5G 6G10G30G17G24G26
  24445882.4224    2475231.99246   1850357.78545                  24445886.9224
        12.7504          9.2504
  23919723.8364   -1891353.68846  -1416522.33946                  23919726.7074
        16.0004         16.0004
  23785785.4924     890599.43846    672506.16646                  23785788.6684
        17.2504         17.0004
  23201091.6334     373162.33246    264210.78746                  23201093.8954
        18.5004         21.5004
  25315856.0084   -2223327.11045  -1619496.98245                  25315860.7304
         9.7504          6.7504
  25976904.1484    2320916.63545   1639241.44344                  25976908.6604
         9.2504          3.5004
  27380998.9384   -1228100.92041
         3.2504
 98  6 11 19 49 15.0000000  0  7G 5G 6G10G30G17G24G26
  24454092.3054    2518375.15146   1883975.78945                  24454096.8754
        12.7504          9.0004
  23914243.9614   -1920148.87546  -1438960.12946                  23914246.9024
        15.7504         16.0004
  23789461.1174     909915.25446    687557.45246                  23789464.1764
        17.2504         16.7504
  23204276.3524     389897.86746    277251.44946                  23204278.6604
        18.5004         21.2504
  25309494.0474   -2256763.32645  -1645551.13645                  25309498.7934
         9.7504          6.7504
  25984065.3134    2358547.46845   1668564.14844                  25984070.3054
         9.2504          3.7504
  27373280.5474   -1268661.68341
         3.5004
 98  6 11 19 49 30.0000000  0  7G 5G 6G10G30G17G24G26
  24462320.5164    2561614.38246   1917668.64345                  24462324.8874
        12.5004          9.0004
  23908774.7424   -1948890.29846  -1461356.02446                  23908777.7194
        15.7504         15.7504
  23793165.5944     929383.29146    702727.36346                  23793168.9224
        17.2504         16.5004
  23207490.4224     406788.61246    290413.05746                  23207492.6954
        18.2504         21.2504
  25303146.2274   -2290116.74545  -1671540.76645                  25303150.7154
         9.5004          6.2504
  25991228.2344    2396190.46845   1697896.33443                  25991232.8984
         8.7504          3.2504
  27365558.8364   -1309228.47741
         3.0004
 98  6 11 19 49 45.0000000  0  7G 5G 6G10G30G17G24G26
  24470566.3444    2604948.24646   1951435.24345                  24470570.4104
        12.5004          9.0004
  23903315.3134   -1977580.55246  -1483712.04346                  23903317.9964
        15.7504         16.0004
  23796898.6804     949000.02546    718013.13346                  23796901.9384
        16.7504         16.2504
  23210734.3204     423834.89146    303695.85346                  23210736.4414
        18.5004         21.0004
  25296815.4304   -2323387.08245  -1697465.67145                  25296820.1414
         9.5004          6.5004
  25998394.4534    2433847.63045   1727239.53344                  25998399.3054
         9.0004          3.5004
  27357839.5164   -1349802.56141
         3.2504
 98  6 11 19 50  0.0000000  0  7G 5G 6G10G30G17G24G26
  24478830.7424    2648377.56646   1985276.23845                  24478835.1254
        12.2504          9.0004
  23897865.9304   -2006218.99846  -1506027.69746                  23897868.6484
        16.0004         15.5004
  23800660.0164     968765.98146    733415.18446                  23800663.4024
        17.2504         16.7504
  23214008.0554     441037.13446    317100.18346                  23214010.1884
        18.2504         20.7504
  25290500.3134   -2356573.45145  -1723325.14045                  25290505.5274
         9.7504          6.2504
  26005563.8754    2471522.42445   1756596.52744                  26005568.7384
         8.7504          3.5004
  27350117.7274   -1390380.26841
         3.2504
 98  6 11 19 50 15.0000000  0  7G 5G 6G10G30G17G24G26
  24487113.6414    2691902.15346   2019191.45045                  24487118.0004
        12.2504          9.0004
  23892425.4614   -2034805.68446  -1528303.01446                  23892428.0634
        15.7504         15.7504
  23804449.3754     988679.42546    748932.16646                  23804452.3984
        17.0004         16.5004
  23217311.0164     458394.56346    330625.44546                  23217313.4064
        18.0004         20.7504
  25284200.8914   -2389675.26845  -1749118.72045                  25284206.4804
         9.5004          6.2504
  26012736.2424    2509216.07545   1785968.15944                  26012740.8714
         8.5004          3.7504
  27342396.4844   -1430957.32341
         3.0004
 98  6 11 19 50 30.0000000  0  7G 5G 6G10G30G17G24G26
  24495413.4224    2735520.04445   2053179.37745                  24495417.6884
        11.7504          8.2504
  23886995.3204   -2063342.14846  -1550539.20746                  23886998.0864
        15.5004         15.5004
  23808266.1024    1008737.10246    764561.52346                  23808269.2664
        16.5004         16.5004
  23220643.8984     475909.39746    344273.35046                  23220646.0904
        17.7504         20.0004
  25277918.0314   -2422693.41845  -1774847.12245                  25277923.5164
         9.2504          6.2504
  26019912.1414    2546926.01745   1815352.52543                  26019917.3554
         8.2504          3.0004
  27334673.5234   -1471535.30041
         3.0004
 98  6 11 19 50 45.0000000  0  7G 5G 6G10G30G17G24G26
  24503731.9064    2779232.37046   2087240.88645                  24503736.2424
        12.0004          8.5004
  23881574.6024   -2091827.83046  -1572735.82146                  23881577.5434
        15.5004         16.0004
  23812111.4064    1028943.08546    780306.45646                  23812114.9574
        16.2504         16.0004
  23224007.0084     493583.91246    358045.68846                  23224009.1644
        17.7504         20.5004
  25271650.3984   -2455627.05745  -1800509.65545                  25271654.5824
         9.2504          6.5004
  26027091.7504    2584653.29145   1844750.36443                  26027096.4734
         8.2504          3.2504
  27326951.9774   -1512114.58341
         3.0004
 98  6 11 19 51  0.0000000  0  7G 5G 6G10G30G17G24G26
  24512068.0864    2823039.49746   2121376.27745                  24512072.6804
        12.0004          8.2504
  23876163.8984   -2120262.49446  -1594892.68946                  23876166.6524
        15.7504         15.5004
  23815984.2584    1049295.88246    796165.78146                  23815987.9264
        16.2504         15.7504
  23227401.0474     511419.27946    371943.36346                  23227403.0514
        17.2504         20.0004
  25265399.2814   -2488481.27245  -1826110.30145                  25265404.7194
         9.7504          6.2504
  26034274.1414    2622397.51045   1874161.41643                  26034278.9924
         8.2504          3.0004
  27319229.5314   -1552694.84441     -4214.67051                  27319245.1094
         2.7504          1.0004
 98  6 11 19 51 15.0000000  0  7G 5G 6G10G30G17G24G26
  24520423.3984    2866944.30945   2155587.77645                  24520428.2504
        11.7504          8.5004
  23870763.2734   -2148641.17546  -1617005.93046                  23870766.2854
        15.5004         15.5004
  23819885.3834    1069798.53646    812141.88546                  23819888.9344
        16.2504         15.7504
  23230825.8754     529418.07546    385968.38746                  23230828.3014
        17.2504         19.7504
  25259162.1644   -2521255.16445  -1851648.36145                  25259166.9224
         9.7504          6.5004
  26041459.7034    2660160.20445   1903586.87743                  26041463.7464
         7.7504          3.0004
  27311506.8444   -1593273.50741    -35834.18841                  27311527.3324
         2.7504          0.7504
 98  6 11 19 51 30.0000000  0  7G 5G 6G10G30G17G24G26
  24528796.2114    2910944.29145   2189873.42245                  24528800.8284
        11.7504          8.2504
  23865373.7424   -2176963.99246  -1639075.63846                  23865376.7424
        15.5004         16.2504
  23823815.8914    1090450.99746    828234.71346                  23823819.2194
        15.7504         16.0004
  23234282.0704     547579.25246    400119.93746                  23234284.4144
        17.2504         20.0004
  25252939.5634   -2553954.22445  -1877128.12645                  25252944.2384
         9.2504          6.5004
  26048649.9384    2697941.53845   1933026.86243                  26048655.1644
         8.0004          3.2504
  27303785.0554   -1633853.64341    -67454.89041                  27303797.7274
         3.0004          0.7504
 98  6 11 19 51 45.0000000  0  7G 5G 6G10G30G17G24G26
  24537187.1724    2955038.29645   2224232.35045                  24537192.3754
        11.7504          8.0004
  23859995.2114   -2205229.15846  -1661100.42546                  23859998.2234
        15.5004         16.0004
  23827774.5864    1111254.64746    844445.35546                  23827778.1954
        16.0004         15.5004
  23237769.7814     565906.52446    414400.92246                  23237772.1374
        17.2504         19.7504
  25246731.2584   -2586580.65245  -1902551.26345                  25246736.0274
         9.0004          6.2504
  26055842.8134    2735741.58145   1962481.38743                  26055847.9344
         7.7504          2.7504
  27296062.1724   -1674432.58241
         2.5004
 98  6 11 19 52  0.0000000  0  7G 5G 6G10G30G17G24G26
  24545595.8674    2999228.24245   2258666.01745                  24545600.1914
        11.5004          8.5004
  23854627.5704   -2233434.92146  -1683078.93046                  23854629.9964
        15.5004         15.7504
  23831762.7034    1132213.53446    860776.95546                  23831766.5354
        15.7504         15.2504
  23241288.8524     584400.14346    428811.51646                  23241291.5354
        17.2504         19.7504
  25240536.5084   -2619135.04745  -1927918.28345                  25240541.6174
         9.2504          6.5004
  26063039.0634    2773560.25345   1991950.51343                  26063043.5164
         8.0004          3.0004
  27288341.0084   -1715011.03541
         2.7504
 98  6 11 19 52 15.0000000  0  7G 5G 6G10G30G17G24G26
  24554023.4384    3043515.36745   2293175.43745                  24554027.3284
        11.7504          8.2504
  23849272.4694   -2261578.25346  -1705008.78546                  23849275.0824
        15.7504         16.0004
  23835781.4304    1153331.28646    877232.35446                  23835784.8874
        15.7504         15.0004
  23244839.5704     603058.32846    443350.34746                  23244842.1954
        17.2504         20.2504
  25234354.9694   -2651616.45545  -1953228.42945                  25234360.1844
         9.2504          6.5004
  26070238.8674    2811394.39345   2021431.61143                  26070242.4884
         7.7504          3.0004
  27280619.4924   -1755587.47341
         2.7504
 98  6 11 19 52 30.0000000  0  7G 5G 6G10G30G17G24G26
  24562469.4304    3087898.91745   2327759.96645                  24562473.8484
        11.7504          8.2504
  23843929.3524   -2289656.72646  -1726888.10046                  23843931.8834
        16.0004         16.0004
  23839830.6724    1174608.98846    893812.38146                  23839834.0004
        15.5004         15.0004
  23248421.6564     621883.03946    458018.94246                  23248424.1524
        17.2504         20.0004
  25228188.2344   -2684025.35345  -1978482.07245                  25228193.8954
         9.2504          6.7504
  26077440.7344    2849241.90345   2050923.16443                  26077445.7854
         7.5004          3.0004
  27272896.5474   -1796165.09841
         2.7504
 98  6 11 19 52 45.0000000  0  7G 5G 6G10G30G17G24G26
  24570933.6564    3132378.06445   2362419.00145                  24570938.2854
        11.5004          8.5004
  23838598.9304   -2317667.55946  -1748714.70846                  23838601.1214
        15.7504         16.0004
  23843911.1484    1196053.07546    910522.07346                  23843914.4304
        15.5004         14.7504
  23252036.3594     640877.15446    472819.54246                  23252038.6564
        17.0004         19.5004
  25222035.1174   -2716358.48345  -2003676.68845                  25222040.5784
         9.2504          6.5004
  26084646.1644    2887103.97545   2080426.03343                  26084651.5084
         7.5004          2.7504
  27265174.7274   -1836742.64041
         2.7504
 98  6 11 19 53  0.0000000  0  7G 5G 6G10G30G17G24G26
  24579415.9774    3176954.17545   2397153.58545                  24579420.3014
        11.5004          8.2504
  23833281.4304   -2345611.21846  -1770488.96146                  23833283.7624
        15.7504         16.2504
  23848022.9844    1217663.28546    927361.19846                  23848026.4414
        15.2504         14.7504
  23255682.5554     660038.59546    487750.51846                  23255685.1804
        16.7504         19.5004
  25215896.3134   -2748617.25045  -2028813.34645                  25215900.4494
         9.2504          6.5004
  26091853.3524    2924980.46845   2109940.18143                  26091859.1884
         7.5004          2.5004
  27257454.2114   -1877319.24041
         3.0004
 98  6 11 19 53 15.0000000  0  7G 5G 6G10G30G17G24G26
  24587917.6174    3221629.11745   2431965.18345                  24587922.4454
        11.2504          7.7504
  23827977.2114   -2373485.42846  -1792209.12146                  23827980.0354
        15.5004         16.0004
  23852167.2734    1239439.13146    944329.38946                  23852170.9184
        15.0004         14.7504
  23259360.3134     679366.11346    502810.91346                  23259362.9614
        16.5004         19.2504
  25209772.0634   -2780800.96545  -2053891.51945                  25209776.8914
         9.2504          6.5004
  26099064.3444    2962872.29445   2139466.26143                  26099068.5864
         7.5004          2.7504
  27249733.2814   -1917893.12841
         3.0004
 98  6 11 19 53 30.0000000  0  7G 5G 6G10G30G17G24G26
  24596437.9144    3266402.49945   2466853.49045                  24596442.7664
        11.2504          8.2504
  23822686.0864   -2401290.77646  -1813875.61246                  23822688.9694
        15.5004         15.7504
  23856342.7194    1261381.68446    961427.48846                  23856346.1524
        15.0004         14.7504
  23263069.3674     698856.98546    517998.58846                  23263072.2504
        16.2504         19.0004
  25203662.3284   -2812907.97545  -2078909.94445                  25203667.4264
         9.7504          7.0004
  26106277.8914    3000778.77145   2169003.74243                  26106283.3984
         7.7504          2.7504
  27242013.5084   -1958462.12441
         3.0004
 98  6 11 19 53 45.0000000  0  7G 5G 6G10G30G17G24G26
  24604976.7194    3311274.74145   2501818.82445                  24604981.1484
        11.0004          8.2504
  23817408.0084   -2429026.43946  -1835487.80846                  23817411.1024
        15.0004         15.7504
  23860550.0474    1283491.48846    978655.91246                  23860553.7974
        14.7504         14.7504
  23266809.1644     718510.64546    533313.11546                  23266811.9884
        16.2504         19.5004
  25197568.2114   -2844933.80945  -2103865.07845                  25197573.2154
         9.7504          6.7504
  26113493.7504    3038697.98445   2198551.14343                  26113498.6254
         7.7504          2.5004
  27234294.4144   -1999022.63941
         3.0004
 98  6 11 19 54  0.0000000  0  7G 5G 6G10G30G17G24G26
  24613534.7344    3356247.76645   2536862.68845                  24613539.6684
        10.7504          7.2504
  23812143.2664   -2456692.50046  -1857045.76046                  23812146.3134
        15.2504         15.7504
  23864789.3754    1305768.64046    996014.73146                  23864792.9614
        15.0004         14.5004
  23270580.3674     738326.51446    548754.04146                  23270583.1684
        16.2504         19.0004
  25191489.9924   -2876874.57345  -2128753.96245                  25191495.2194
         9.7504          7.0004
  26120712.1484    3076629.81345   2228108.41843                  26120718.0784
         7.5004          3.0004
  27226577.1254   -2039573.05241
         3.0004
 98  6 11 19 54 15.0000000  0  7G 5G 6G10G30G17G24G26
  24622112.0164    3401321.68345   2571985.16345                  24622116.9264
        10.7504          7.7504
  23806891.9064   -2484287.04646  -1878547.98646                  23806895.1174
        15.0004         15.5004
  23869059.9304    1328212.23746   1013503.25746                  23869063.4454
        15.0004         14.2504
  23274381.5474     758301.96346    564319.30646                  23274384.1254
        16.5004         18.7504
  25185428.3914   -2908728.04745  -2153574.80745                  25185433.4414
         9.5004          6.7504
  26127933.2664    3114576.09845   2257676.92343                  26127939.1724
         7.7504          2.7504
  27218861.4454   -2080111.15541
         3.0004
 98  6 11 19 54 30.0000000  0  7G 5G 6G10G30G17G24G26
  24630708.3834    3446495.70145   2607185.65645                  24630713.6094
        10.7504          7.5004
  23801654.6484   -2511809.11046  -1899993.74246                  23801657.5204
        15.0004         16.0004
  23873361.6484    1350817.69146   1031117.90146                  23873364.9304
        15.2504         14.5004
  23278213.0394     778436.58846    580008.61546                  23278215.8284
        16.5004         19.0004
  25179383.4224   -2940495.66345  -2178328.76445                  25179388.1094
         9.7504          7.0004
  26135156.7584    3152539.25745   2287258.60943                  26135160.5434
         7.7504          3.0004
  27211150.7114   -2120635.27241
         3.2504
 98  6 11 19 54 45.0000000  0  7G 5G 6G10G30G17G24G26
  24639323.7194    3491769.46945   2642463.85745                  24639328.2424
        10.7504          7.5004
  23796431.2114   -2539259.95546  -1921383.99746                  23796434.2234
        15.0004         15.5004
  23877694.0704    1373583.15446   1048857.22746                  23877697.4344
        15.2504         15.0004
  23282074.8984     798730.80546    595822.27446                  23282077.7704
        16.5004         18.5004
  25173353.9924   -2972179.02145  -2203017.06145                  25173358.3634
         9.5004          6.7504
  26142385.3364    3190522.31845   2316855.75343                  26142389.3794
         7.7504          2.7504
  27203443.1484   -2161143.68641    -14727.12651                  27203456.7814
         3.0004          1.0004
 98  6 11 19 55  0.0000000  0  7G 5G 6G10G30G17G24G26
  24647957.8834    3537142.69745   2677819.57945                  24647962.6174
        10.2504          7.2504
  23791219.6484   -2566645.87846  -1942723.66746                  23791222.6844
        15.0004         15.5004
  23882055.8594    1396503.99346   1066717.62546                  23882059.0124
        15.5004         14.5004
  23285966.0634     819180.50646    611757.09146                  23285968.3954
        16.5004         19.0004
  25167339.5944   -3003782.08945  -2227642.78545                  25167344.9384
         9.2504          7.0004
  26149615.7344    3228522.90445   2346466.59643                  26149620.7504
         7.7504          3.0004
  27195736.7664   -2201636.22641    -46279.55841                  27195741.9344
         3.2504          1.0004
 98  6 11 19 55 15.0000000  0  7G 5G 6G10G30G17G24G26
  24656612.5864    3582622.01945   2713257.95645                  24656617.6374
        10.5004          7.2504
  23786021.4064   -2593963.32546  -1964009.97446                  23786024.5594
        15.0004         15.2504
  23886446.8364    1419578.79946   1084698.00146                  23886450.0124
        15.5004         15.2504
  23289888.0004     839788.35146    627815.14346                  23289890.3324
        16.5004         19.0004
  25161341.8204   -3035304.14745  -2252205.39145                  25161346.5664
         9.2504          7.2504
  26156851.0864    3266544.43745   2376093.72843                  26156855.7624
         7.5004          3.2504
  27188034.5784   -2242110.58941    -77817.89941                  27188055.9384
         3.0004          0.7504
 98  6 11 19 55 30.0000000  0  7G 5G 6G10G30G17G24G26
  24665286.8524    3628207.00045   2748778.67845                  24665292.0554
        10.2504          7.2504
  23780836.3984   -2621210.07546  -1985241.20146                  23780839.4454
        15.0004         15.7504
  23890867.3054    1442809.01646   1102799.47046                  23890870.7034
        15.0004         14.7504
  23293839.9384     860557.56446    643998.93046                  23293842.1414
        16.5004         19.2504
  25155358.8054   -3066742.96745  -2276703.13645                  25155364.0554
         9.7504          7.0004
  26164090.8984    3304587.39645   2405737.53843                  26164096.1024
         7.7504          3.2504
  27180336.7584   -2282565.29541   -109340.62741                  27180349.2544
         3.2504          0.7504
 98  6 11 19 55 45.0000000  0  7G 5G 6G10G30G17G24G26
  24673980.7974    3673894.04845   2784378.92345                  24673986.0124
        10.2504          7.2504
  23775664.3754   -2648388.82546  -2006419.42746                  23775667.0944
        14.7504         15.5004
  23895316.7274    1466191.29846   1121019.43546                  23895320.2194
        15.2504         14.5004
  23297823.4304     881489.24046    660309.31546                  23297825.8914
        16.5004         18.5004
  25149391.6484   -3098099.84445  -2301137.02245                  25149397.1914
         9.5004          6.7504
  26171333.8204    3342649.04045   2435395.97143                  26171338.8014
         7.5004          3.0004
  27172642.5474   -2323002.74541   -140850.15441                  27172653.6604
         3.2504          1.0004
 98  6 11 19 56  0.0000000  0  7G 5G 6G10G30G17G24G26
  24682694.6804    3719683.24745   2820058.77145                  24682699.5664
        10.0004          7.0004
  23770505.8524   -2675497.79946  -2027543.29146                  23770508.5124
        14.7504         15.5004
  23899795.9614    1489729.66746   1139361.03446                  23899799.4534
        15.2504         15.0004
  23301838.3054     902587.63546    676749.60946                  23301840.8954
        16.5004         18.7504
  25143440.1884   -3129373.47245  -2325506.05645                  25143445.2974
         9.2504          7.0004
  26178581.5164    3380734.75845   2465073.13343                  26178587.3754
         7.5004          3.0004
  27164949.0554   -2363425.93741   -172348.50441                  27164962.5354
         3.5004          0.7504
 98  6 11 19 56 15.0000000  0  7G 5G 6G10G30G17G24G26
  24691426.7034    3765572.85945   2855816.86245                  24691432.1294
        10.0004          7.0004
  23765360.5784   -2702537.19046  -2048612.93946                  23765363.9184
        14.7504         15.7504
  23904304.4924    1513421.96246   1157822.56246                  23904307.8324
        15.0004         14.7504
  23305885.0314     923852.79046    693319.84746                  23305887.5274
        16.2504         18.5004
  25137503.6254   -3160570.03445  -2349815.00845                  25137509.7774
         9.5004          6.5004
  26185834.1254    3418847.13945   2494771.05543                  26185839.5514
         7.5004          3.0004
  27157259.2664   -2403839.29041   -203839.21141                  27157266.0164
         3.2504          0.7504
 98  6 11 19 56 30.0000000  0  7G 5G 6G10G30G17G24G26
  24700178.0704    3811562.07845   2891652.55245                  24700183.2734
        10.0004          6.7504
  23760228.3204   -2729507.10546  -2069628.44446                  23760231.4264
        15.0004         15.5004
  23908841.8054    1537267.61046   1176403.59246                  23908845.4844
        15.0004         14.7504
  23309963.3674     945285.73446    710020.82346                  23309965.8524
        16.2504         18.5004
  25131581.6254   -3191692.76445  -2374066.46145                  25131586.8984
         9.7504          6.7504
  26193091.1094    3456982.39745   2524486.83043                  26193095.7504
         7.5004          3.0004
  27149570.0634   -2444243.67341   -235322.83041                  27149578.2934
         3.2504          0.7504
 98  6 11 19 56 45.0000000  0  7G 5G 6G10G30G17G24G26
  24708949.5784    3857655.18945   2927569.23345                  24708954.5124
        10.0004          7.0004
  23755109.7034   -2756405.21146  -2090587.99846                  23755112.3874
        14.7504         16.0004
  23913409.9774    1561271.81946   1195108.17746                  23913413.2584
        15.0004         14.7504
  23314074.5084     966891.00946    726856.09146                  23314076.9804
        16.2504         18.2504
  25125673.5084   -3222738.80145  -2398258.14745                  25125678.3834
         9.7504          7.0004
  26200352.3284    3495141.35945   2554221.04443                  26200356.8284
         7.5004          2.7504
  27141882.8134   -2484638.54841   -266799.16941                  27141894.4534
         3.2504          1.0004
 98  6 11 19 57  0.0000000  0  7G 5G 6G10G30G17G24G26
  24717740.3754    3903850.65945   2963565.64245                  24717745.3094
        10.2504          7.0004
  23750004.7424   -2783232.63246  -2111492.46646                  23750007.7544
        15.0004         15.5004
  23918008.6094    1585437.47346   1213938.56246                  23918012.0204
        15.0004         14.5004
  23318218.8834     988669.83546    743826.58946                  23318221.6954
        15.7504         18.2504
  25119780.7114   -3253704.02145  -2422386.84345                  25119785.6564
         9.7504          6.7504
  26207618.1414    3533321.84844   2583972.09443                  26207622.7704
         7.2504          3.0004
  27134197.6334   -2525026.18141   -298269.78141                  27134213.0004
         3.5004          0.7504
 98  6 11 19 57 15.0000000  0  7G 5G 6G10G30G17G24G26
  24726551.3524    3950151.14645   2999643.88545                  24726556.2504
        10.2504          6.5004
  23744913.6954   -2809984.87646  -2132338.36246                  23744916.4964
        15.0004         16.2504
  23922638.2274    1609768.47046   1232897.78446                  23922641.4024
        14.2504         14.2504
  23322396.3834    1010623.80746    760933.57246                  23322399.0434
        15.7504         18.2504
  25113905.3754   -3284582.30245  -2446447.80445                  25113910.4734
         9.5004          6.7504
  26214888.0864    3571527.02744   2613742.32342                  26214892.1174
         7.0004          2.0004
  27126512.2974   -2565406.34241   -329734.59141                  27126521.3014
         3.0004          0.7504
 98  6 11 19 57 30.0000000  0  7G 5G 6G10G30G17G24G26
  24735380.8204    3996549.90445   3035798.71045                  24735385.6254
        10.2504          6.5004
  23739837.4844   -2836661.27046  -2153125.14946                  23739840.1684
        15.0004         16.0004
  23927299.8834    1634264.25546   1251985.41046                  23927303.4924
        14.7504         14.0004
  23326607.7974    1032752.30746    778176.54446                  23326610.6564
        15.7504         18.0004
  25108045.2974   -3315374.97745  -2470442.06245                  25108050.6764
         9.2504          7.0004
  26222162.6644    3609754.84644   2643530.17643                  26222165.2074
         6.7504          2.7504
  27118828.4774   -2605781.53241   -361195.76841                  27118837.0004
         3.0004          0.7504
 98  6 11 19 57 45.0000000  0  7G 5G 6G10G30G17G24G26
  24744228.0704    4043042.19245   3072026.41745                  24744233.6604
        10.2504          7.0004
  23734775.3594   -2863262.84846  -2173853.64146                  23734778.3134
        15.0004         16.0004
  23931993.0864    1658926.35846   1271202.63746                  23931996.5554
        15.0004         14.2504
  23330851.7274    1055054.99946    795555.25446                  23330854.4574
        15.7504         18.2504
  25102202.1414   -3346081.77845  -2494369.40545                  25102207.4614
         9.2504          6.7504
  26229441.8204    3648005.55444   2673335.93043                  26229446.4614
         6.7504          2.5004
  27111147.4224   -2646149.98241   -392651.42641                  27111157.6334
         3.0004          1.0004
 98  6 11 19 58  0.0000000  0  7G 5G 6G10G30G17G24G26
  24753094.5554    4089631.98945   3108330.10245                  24753098.7624
        10.5004          6.5004
  23729728.8364   -2889783.16546  -2194518.81046                  23729731.7774
        15.0004         16.0004
  23936719.1254    1683760.36546   1290553.81546                  23936722.5824
        14.7504         14.2504
  23335129.6884    1077534.73946    813071.91946                  23335132.6054
        16.0004         18.2504
  25096376.0944   -3376697.31045  -2518225.62945                  25096381.4144
         9.0004          6.7504
  26236725.7194    3686284.58644   2703163.72943                  26236732.6024
         6.7504          2.5004
  27103467.2584   -2686506.00041   -424097.38041                  27103476.4494
         3.0004          0.7504
 98  6 11 19 58 15.0000000  0  7G 5G 6G10G30G17G24G26
  24761978.1724    4136320.64445   3144710.81745                  24761982.0044
        10.2504          6.7504
  23724697.4454   -2916221.25346  -2215119.90546                  23724700.4454
        15.0004         16.2504
  23941476.6024    1708763.54546   1310036.81746                  23941480.0354
        14.7504         14.2504
  23339440.4774    1100187.72746    830723.58346                  23339443.3834
        16.2504         18.2504
  25090567.4534   -3407223.84945  -2542012.50345                  25090573.0314
         9.2504          6.5004
  26244015.2894    3724591.39644   2733013.16942                  26244021.1134
         6.2504          2.0004
  27095790.1724   -2726847.72841   -455532.25241                  27095793.5124
         2.7504          0.5004
 98  6 11 19 58 30.0000000  0  7G 5G 6G10G30G17G24G26
  24770882.2114    4183110.58545   3181170.46545                  24770886.8634
        10.2504          6.7504
  23719682.2504   -2942577.21146  -2235657.00446                  23719685.0274
        15.2504         15.7504
  23946266.1024    1733931.93346   1329648.55246                  23946269.4184
        14.7504         14.0004
  23343783.7274    1123011.69746    848508.47946                  23343786.6804
        16.2504         18.5004
  25084775.6884   -3437658.26445  -2565727.60445                  25084781.0904
         9.2504          7.0004
  26251309.8984    3762923.78344   2762882.54443                  26251314.5984
         6.7504          2.7504
  27088115.8364   -2767170.01741   -486952.05141                  27088131.7894
         3.0004          1.2504
 98  6 11 19 58 45.0000000  0  7G 5G 6G10G30G17G24G26
  24779805.3674    4230001.09945   3217708.48445                  24779809.9844
        10.5004          6.7504
  23714682.3284   -2968852.62846  -2256131.34646                  23714685.0944
        15.0004         16.2504
  23951086.7814    1759264.96946   1349388.58246                  23951090.1804
        14.2504         13.7504
  23348158.8134    1146004.29146    866424.77546                  23348161.5204
        16.2504         19.0004
  25079002.1254   -3467997.43945  -2589368.47745                  25079008.0784
         9.2504          6.7504
  26258608.9384    3801281.04544   2792771.27842                  26258614.1644
         6.2504          1.7504
  27080448.0784   -2807470.86241   -518355.14441                  27080454.3484
         3.0004          0.7504
 98  6 11 19 59  0.0000000  0  7G 5G 6G10G30G17G24G26
  24788747.6884    4276993.87145   3254326.16045                  24788752.3634
        10.2504          6.7504
  23709698.0474   -2995045.13146  -2276541.08246                  23709700.7544
        15.2504         15.7504
  23955939.0784    1784764.05146   1369258.00146                  23955942.4534
        14.5004         14.0004
  23352567.2194    1169169.08346    884475.24146                  23352569.8794
        16.2504         18.7504
  25073248.2344   -3498235.27345  -2612930.40345                  25073254.2934
         9.0004          7.0004
  26265913.7274    3839669.04944   2822683.98042                  26265919.7854
         6.7504          2.2504
  27072783.7274   -2847746.97641   -549738.87441                  27072802.1054
         2.7504          0.2504
 98  6 11 19 59 15.0000000  0  7G 5G 6G10G30G17G24G26
  24797708.9144    4324084.75645   3291020.31345                  24797713.1214
        10.2504          6.5004
  23704728.9534   -3021157.54846  -2296888.40346                  23704731.6484
        15.2504         15.7504
  23960822.1254    1810424.52846   1389253.17746                  23960825.5944
        14.2504         13.7504
  23357007.2424    1192502.69946    902657.27246                  23357010.1254
        16.2504         19.2504
  25067512.6484   -3528374.61445  -2636415.56945                  25067517.1844
         9.0004          7.0004
  26273223.7894    3878085.77844   2852619.09242                  26273230.0004
         6.2504          2.2504
  27065124.6414   -2887998.79541   -581103.78041                  27065135.9654
         2.7504          0.7504
 98  6 11 19 59 30.0000000  0  7G 5G 6G10G30G17G24G26
  24806688.0474    4371270.80145   3327788.60345                  24806692.4064
        10.0004          6.5004
  23699775.1804   -3047190.58546  -2317173.87746                  23699777.9804
        15.5004         16.2504
  23965734.7034    1836241.80646   1409370.54146                  23965738.5474
        14.0004         13.5004
  23361479.5004    1216004.49346    920970.33646                  23361482.4304
        16.5004         19.2504
  25061794.7734   -3558423.98945  -2659830.62545                  25061800.2344
         9.0004          6.7504
  26280538.9614    3916527.17444   2882573.38543                  26280544.4574
         6.2504          2.5004
  27057469.3984   -2928226.18241   -612449.75141                  27057485.1524
         3.0004          0.2504
 98  6 11 19 59 45.0000000  0  7G 5G 6G10G30G17G24G26
  24815685.8914    4418554.09945   3364632.67245                  24815691.0944
        10.0004          6.0004
  23694836.8204   -3073142.24346  -2337395.93546                  23694839.2344
        15.5004         16.0004
  23970676.6414    1862213.70246   1429608.38646                  23970680.6134
        13.7504         13.2504
  23365984.1644    1239676.05946    939415.69546                  23365987.0594
        16.2504         19.2504
  25056094.0164   -3588383.34645  -2683175.55645                  25056099.6414
         9.2504          6.7504
  26287859.3594    3954993.81543   2912547.36842                  26287866.3014
         6.0004          2.2504
  27049818.5554   -2968425.56241   -643773.49441                  27049826.9734
         3.0004          1.2504
 98  6 11 20  0  0.0000000  0  7G 5G 6G10G30G17G24G26
  24824702.9694    4465939.36945   3401556.20545                  24824708.0664
         9.7504          6.5004
  23689913.8754   -3099011.04146  -2357553.43246                  23689916.4414
        15.5004         16.5004
  23975648.7504    1888339.22346   1449965.93546                  23975652.1374
        14.0004         13.5004
  23370520.6174    1263514.66246    957991.21146                  23370523.7344
        16.2504         19.2504
  25050410.5234   -3618248.67945  -2706447.21545                  25050416.1604
         9.0004          6.5004
  26295184.5234    3993487.10544   2942542.08943                  26295189.6804
         6.2504          2.5004
  27042174.4774   -3008596.90241
         3.0004
 98  6 11 20  0 15.0000000  0  7G 5G 6G10G30G17G24G26
  24833739.8594    4513427.38245   3438559.80245                  24833744.4304
        10.0004          6.2504
  23685007.0554   -3124797.88846  -2377647.07146                  23685010.0554
        15.5004         16.0004
  23980648.8284    1914616.16346   1470441.47746                  23980652.5204
        14.0004         13.7504
  23375088.2344    1287517.63246    976694.81246                  23375091.0824
        16.2504         19.2504
  25044745.0004   -3648020.38945  -2729645.90745                  25044750.6254
         9.0004          6.5004
  26302514.3984    4032008.49143   2972558.73242                  26302520.8094
         6.0004          2.2504
  27034535.4064   -3048741.32141
         3.0004
 98  6 11 20  0 30.0000000  0  7G 5G 6G10G30G17G24G26
  24842796.1174    4561019.33545   3475644.37745                  24842800.6764
        10.0004          6.2504
  23680115.2814   -3150503.42446  -2397677.34646                  23680117.9534
        15.2504         16.2504
  23985678.6254    1941046.76346   1491036.75046                  23985682.5744
        14.2504         13.5004
  23379687.7344    1311687.58146    995528.52446                  23379690.7234
        16.5004         19.0004
  25039097.1094   -3677695.59545  -2752769.41945                  25039102.0784
         9.2504          7.0004
  26309850.6094    4070560.42543   3002599.19142                  26309859.3204
         6.0004          2.0004
  27026902.0554   -3088855.92041
         3.2504
 98  6 11 20  0 45.0000000  0  7G 5G 6G10G30G17G24G26
  23053120.5004    4608729.06645   3512820.74145                  23053126.1024
         9.7504          6.0004
  21876481.7424   -3176140.20346  -2417654.04046                  21876484.3674
        15.5004         16.2504
  22191985.0864    1967643.87046   1511761.76946                  22191988.5904
        14.7504         14.0004
  21585565.9064    1336035.25146   1014500.71646                  21585568.7194
        16.5004         19.0004
  23234712.0554   -3707286.34645  -2775827.11745                  23234717.6914
         9.0004          7.2504
  24518441.5004    4109156.43144   3032673.95343                  24518444.8524
         6.2504          2.7504
  25220515.2664   -3128957.76841
         3.2504
 98  6 11 20  1  0.0000000  0  7G 5G 6G10G30G17G24G26
  23062213.9614    4656515.42345   3550056.80345                  23062218.5904
        10.0004          6.2504
  21871620.4144   -3201688.68346  -2437561.93646                  21871622.9574
        15.5004         16.5004
  22197074.4304    1994387.50846   1532600.97446                  22197078.1564
        14.7504         13.7504
  21590229.8204    1360542.60746   1033597.34446                  21590232.5634
        16.5004         19.0004
  23229101.0704   -3736771.61145  -2798802.61745                  23229106.0514
         9.2504          7.2504
  24525787.2814    4147763.98143   3062757.71642                  24525791.2424
         6.0004          2.2504
  25212891.2194   -3169017.60641
         3.2504
 98  6 11 20  1 15.0000000  0  7G 5G 6G10G30G17G24G26
  23071325.1414    4704398.17445   3587367.96745                  23071329.9574
        10.0004          6.2504
  21866774.0084   -3227156.13446  -2457406.69746                  21866776.6334
        15.5004         16.0004
  22202193.9694    2021292.04946   1553565.54846                  22202197.5904
        14.5004         14.0004
  21594926.0164    1385222.01346   1052828.02846                  21594928.7704
        16.7504         19.0004
  23223508.3984   -3766161.41045  -2821703.74345                  23223513.5784
         9.2504          7.0004
  24533139.5864    4186398.94944   3092862.87742                  24533144.3794
         6.5004          2.2504
  25205274.3364   -3209046.68741
         3.5004
 98  6 11 20  1 30.0000000  0  7G 5G 6G10G30G17G24G26
  23080455.8914    4752376.39745   3624753.54845                  23080460.4964
        10.0004          5.7504
  21861943.0394   -3252541.90746  -2477187.80746                  21861945.6294
        15.5004         16.2504
  22207344.4064    2048356.91046   1574655.04546                  22207347.8874
        14.7504         13.7504
  21599654.6484    1410071.40246   1072191.17646                  21599657.3444
        16.7504         18.7504
  23217933.7974   -3795457.68445  -2844531.97245                  23217938.8244
         9.0004          7.0004
  24540496.5004    4225060.12844   3122988.46942                  24540501.7504
         6.2504          2.2504
  25197662.6724   -3249043.37441
         3.2504
 98  6 11 20  1 45.0000000  0  7G 5G 6G10G30G17G24G26
  23089604.4614    4800451.99945   3662214.99345                  23089609.1484
        10.0004          6.2504
  21857128.1024   -3277845.79746  -2496905.10746                  21857130.7734
        15.5004         16.0004
  22212525.1334    2075581.99746   1595869.40046                  22212528.6374
        14.7504         14.0004
  21604415.5474    1435089.49946   1091685.77946                  21604418.1604
        16.7504         19.0004
  23212376.9614   -3824656.99745  -2867284.64245                  23212382.2584
         9.2504          7.2504
  24547858.9694    4263749.69943   3153136.13842                  24547864.4774
         6.0004          2.2504
  25190058.3984   -3289004.63241
         3.2504
 98  6 11 20  2  0.0000000  0  7G 5G 6G10G30G17G24G26
  23098771.1564    4848625.78945   3699752.97045                  23098776.1954
        10.0004          6.0004
  21852328.5704   -3303066.95246  -2516557.94246                  21852331.3484
        15.2504         16.2504
  22217736.5864    2102969.13746   1617210.03046                  22217740.1134
        14.7504         13.5004
  21609208.0864    1460273.81946   1111309.90546                  21609210.7584
        16.5004         19.2504
  23206840.3134   -3853752.49945  -2889956.44845                  23206845.5164
         9.5004          7.0004
  24555227.9614    4302472.31844   3183309.61142                  24555234.2074
         6.2504          2.0004
  25182461.8524   -3328930.21041     -6218.65651                  25182473.7974
         3.2504          0.2504
 98  6 11 20  2 15.0000000  0  7G 5G 6G10G30G17G24G26
  23107956.7274    4896893.55545   3737364.13945                  23107962.0594
        10.0004          6.0004
  21847544.4304   -3328208.25146  -2536148.55546                  21847546.9494
        15.5004         16.2504
  22222980.0004    2130521.55146   1638679.44346                  22222983.4694
        14.7504         13.7504
  21614031.6484    1485623.36546   1131062.78546                  21614034.4964
        16.5004         19.0004
  23201322.9224   -3882748.51345  -2912550.71545                  23201328.5354
         9.7504          6.7504
  24562601.7114    4341226.24243   3213507.40642                  24562607.4534
         6.0004          2.0004
  25174870.0944   -3368821.56941
         3.5004
 98  6 11 20  2 30.0000000  0  7G 5G 6G10G30G17G24G26
  23117159.6174    4945255.48645   3775048.71045                  23117164.9844
         9.7504          6.0004
  21842775.3134   -3353270.58046  -2555677.63146                  21842777.9844
        15.2504         15.7504
  22228254.6954    2158241.13446   1660279.11446                  22228257.9064
        15.0004         13.7504
  21618887.9924    1511142.09746   1150947.49246                  21618890.6764
        16.5004         19.0004
  23195823.6094   -3911647.83245  -2935069.64345                  23195829.2114
         9.7504          7.2504
  24569983.2424    4380011.37144   3243729.59342                  24569988.2584
         6.2504          2.0004
  25167286.8754   -3408675.49441
         3.2504
 98  6 11 20  2 45.0000000  0  7G 5G 6G10G30G17G24G26
  23126379.4844    4993706.18945   3812802.44645                  23126384.2424
         9.7504          6.2504
  21838020.0704   -3378257.87646  -2575148.24146                  21838022.7424
        15.2504         15.7504
  22233560.4384    2186122.31546   1682004.71246                  22233563.3914
        15.0004         13.7504
  21623775.5004    1536826.70146   1170961.45646                  21623778.3244
        16.5004         19.0004
  23190342.1254   -3940453.91245  -2957515.91445                  23190346.8364
         9.5004          7.5004
  24577367.4924    4418818.64643   3273968.94942                  24577374.5744
         6.0004          2.2504
  25159708.8984   -3448497.82441
         3.5004
 98  6 11 20  3  0.0000000  0  7G 5G 6G10G30G17G24G26
  23135617.8444    5042254.05645   3850631.88245                  23135622.8714
         9.5004          6.0004
  21833281.2664   -3403161.63546  -2594553.76546                  21833284.2194
        15.2504         16.2504
  22238897.4224    2214168.80446   1703859.12146                  22238900.9024
        15.0004         13.7504
  21628696.3134    1562683.74346   1191109.77946                  21628699.0784
        16.5004         19.2504
  23184878.5944   -3969163.71245  -2979887.14945                  23184884.0314
         9.7504          8.0004
  24584758.4304    4457655.30344   3304231.27242                  24584762.3554
         6.5004          2.2504
  25152137.2734   -3488283.54941
         3.5004
 98  6 11 20  3 15.0000000  0  7G 5G 6G10G30G17G24G26
  23144874.4384    5090898.95345   3888536.96045                  23144879.0084
         9.2504          5.7504
  21828557.8984   -3427982.30046  -2613894.53046                  21828560.6764
        15.5004         16.0004
  22244264.8914    2242375.79346   1725838.59046                  22244268.0314
        14.7504         13.5004
  21633648.3834    1588708.33946   1211388.66746                  21633651.2074
        16.5004         19.0004
  23179432.7274   -3997780.07145  -3002185.59245                  23179437.7424
         9.7504          7.5004
  24592153.2274    4496517.86343   3334513.80542                  24592159.8714
         6.0004          2.0004
  25144571.2734   -3528034.20641
         3.2504
 98  6 11 20  3 30.0000000  0  7G 5G 6G10G30G17G24G26
  23154150.3984    5139644.33645   3926520.29745                  23154155.3204
         9.2504          6.0004
  21823850.5704   -3452717.51946  -2633168.71946                  21823853.1484
        15.2504         15.7504
  22249663.2194    2270744.51046   1747944.08546                  22249666.5704
        14.5004         13.0004
  21638632.5784    1614899.55746   1231797.39046                  21638635.3554
        16.7504         19.0004
  23174004.9694   -4026304.11545  -3024412.09545                  23174009.9144
        10.0004          7.5004
  24599554.1724    4535409.34344   3364818.75742                  24599559.9384
         6.2504          2.0004
  25137015.6564   -3567748.92841
         3.5004
 98  6 11 20  3 45.0000000  0  7G 5G 6G10G30G17G24G26
  23163446.3914    5188494.37245   3964585.20145                  23163451.6054
         9.5004          6.0004
  21819161.0554   -3477363.69146  -2652373.52146                  21819163.6914
        15.2504         15.2504
  22255092.9304    2299276.33446   1770176.67446                  22255096.4104
        14.5004         13.5004
  21643648.4454    1641259.23046   1252337.37346                  21643650.9884
        16.5004         19.2504
  23168594.5084   -4054736.50445  -3046567.16345                  23168599.4654
        10.2504          7.7504
  24606961.4454    4574333.04844   3395148.92443                  24606968.2894
         6.2504          2.5004
  25129463.1804   -3607427.96041
         3.5004
 98  6 11 20  4  0.0000000  0  7G 5G 6G10G30G17G24G26
  23172762.1954    5237446.52345   4002729.67745                  23172767.7384
         9.2504          5.7504
  21814487.6094   -3501920.98246  -2671509.06446                  21814490.3164
        15.0004         16.0004
  22260553.1334    2327971.85646   1792536.82246                  22260556.7894
        14.7504         13.2504
  21648696.6414    1667787.16546   1273008.47746                  21648699.0434
        16.7504         19.2504
  23163200.9304   -4083080.30245  -3068653.22845                  23163206.0514
        10.0004          7.5004
  24614373.9774    4613288.35543   3425503.66042                  24614379.6254
         6.0004          2.0004
  25121920.2274   -3647075.29841
         3.5004
 98  6 11 20  4 15.0000000  0  7G 5G 6G10G30G17G24G26
  23182096.8834    5286501.94745   4040954.63145                  23182102.5784
         9.2504          5.5004
  21809831.9924   -3526386.64446  -2690573.21046                  21809834.7114
        15.0004         15.5004
  22266045.9144    2356834.59046   1815027.25446                  22266049.1484
        14.7504         13.5004
  21653777.6644    1694487.72946   1293814.08846                  21653780.3714
        16.7504         19.0004
  23157823.8834   -4111337.10245  -3090671.47945                  23157829.0164
        10.0004          7.5004
  24621793.2504    4652273.78444   3455881.88142                  24621797.6454
         6.2504          2.2504
  25114380.8594   -3686689.38841
         3.5004
 98  6 11 20  4 30.0000000  0  7G 5G 6G10G30G17G24G26
  23191451.7664    5335660.71045   4079260.08645                  23191457.9534
         9.2504          5.5004
  21805193.3754   -3550763.67146  -2709568.28546                  21805196.1294
        15.0004         16.5004
  22271568.9534    2385859.39246   1837643.98446                  22271572.1764
        14.2504         13.5004
  21658890.8134    1721360.02446   1314753.51546                  21658893.6954
        16.5004         18.5004
  23152462.4534   -4139510.74045  -3112624.94145                  23152466.9654
        10.0004          8.0004
  24629216.4774    4691283.99443   3486279.44942                  24629221.5514
         6.0004          2.2504
  25106847.2894   -3726270.42541
         3.5004
 98  6 11 20  4 45.0000000  0  7G 5G 6G10G30G17G24G26
  23200826.3754    5384924.62845   4117647.48745                  23200831.6134
         9.2504          5.7504
  21800572.5394   -3575045.90146  -2728489.49546                  21800575.0004
        15.2504         16.0004
  22277123.0234    2415045.15046   1860386.13446                  22277126.5634
        14.5004         13.2504
  21664038.0554    1748406.53846   1335828.70046                  21664040.8674
        16.5004         18.7504
  23147117.6484   -4167594.22345  -3134508.14045                  23147122.6054
        10.0004          7.7504
  24636645.1254    4730322.86243   3516699.28543                  24636651.2894
         6.0004          2.5004
  25099323.4064   -3765815.34341    -22592.89951                  25099329.4534
         3.5004          0.7504
 98  6 11 20  5  0.0000000  0  7G 5G 6G10G30G17G24G26
  23210220.9304    5434293.63445   4156116.80345                  23210226.7424
         9.2504          5.7504
  21795970.0314   -3599231.76446  -2747335.61246                  21795972.8444
        15.5004         15.7504
  22282707.2894    2444392.68646   1883254.34046                  22282711.0164
        14.7504         13.2504
  21669217.8284    1775626.67646   1357039.18146                  21669220.7584
        16.2504         18.5004
  23141791.4694   -4195587.51645  -3156321.06345                  23141796.5784
        10.0004          8.0004
  24644079.7814    4769390.56543   3547141.64242                  24644085.6884
         6.0004          2.0004
  25091804.6414   -3805324.33041    -53378.86441                  25091815.6134
         3.2504          1.0004
 98  6 11 20  5 15.0000000  0  7G 5G 6G10G30G17G24G26
  23219634.9304    5483765.33645   4194666.11745                  23219640.5314
         9.0004          5.2504
  21791386.2664   -3623320.97146  -2766106.41946                  21791388.9384
        15.5004         16.0004
  22288323.5554    2473903.40746   1906249.70746                  22288327.5274
        14.2504         13.5004
  21674429.9774    1803017.45746   1378382.62046                  21674433.1994
        16.2504         18.0004
  23136481.0314   -4223493.62545  -3178066.06445                  23136486.6214
         9.7504          7.7504
  24651520.0314    4808487.06443   3577606.38842                  24651526.2304
         6.0004          2.2504
  25084293.1414   -3844798.89741    -84138.19742                  25084300.4344
         3.5004          1.5004
 98  6 11 20  5 30.0000000  0  7G 5G 6G10G30G17G24G26
  23229068.8284    5533340.13945   4233295.75945                  23229074.6994
         9.0004          5.7504
  21786820.5704   -3647312.68346  -2784801.24746                  21786823.0314
        15.7504         16.5004
  22293970.9924    2503582.19246   1929376.03046                  22293974.7304
        14.7504         13.2504
  21679675.4454    1830581.29646   1399860.91446                  21679678.3164
        16.0004         18.2504
  23131188.1804   -4251308.19245  -3199739.72745                  23131193.1844
        10.0004          8.0004
  24658964.8754    4847614.82243   3608095.57742                  24658972.3674
         5.7504          2.2504
  25076788.1644   -3884235.70141   -114868.00341                  25076795.6914
         3.5004          1.2504
 98  6 11 20  5 45.0000000  0  7G 5G 6G10G30G17G24G26
  23238520.6414    5583012.33445   4272001.30045                  23238525.8204
         9.0004          5.2504
  21782273.5864   -3671208.99346  -2803421.73846                  21782276.0354
        15.7504         16.7504
  22299650.1484    2533425.71446   1952630.72146                  22299653.9924
        14.5004         13.0004
  21684953.2114    1858317.17246   1421473.26946                  21684956.1174
        16.0004         18.0004
  23125912.3204   -4279031.98545  -3221342.64945                  23125917.7704
        10.0004          8.0004
  24666417.1954    4886772.62543   3638608.10942                  24666422.8794
         6.0004          2.0004
  25069290.0394   -3923637.29541   -145570.45941                  25069296.6024
         3.5004          0.7504
 98  6 11 20  6  0.0000000  0  7G 5G 6G10G30G17G24G26
  23247991.2504    5632779.23145   4310780.64045                  23247997.0864
         8.7504          5.5004
  21777744.1334   -3695010.59346  -2821968.43346                  21777746.5234
        15.7504         16.5004
  22305360.1484    2563432.73046   1976012.81446                  22305363.5474
        14.5004         13.5004
  21690264.0234    1886225.44746   1443219.95046                  21690267.2464
        15.7504         17.5004
  23120655.1564   -4306660.73445  -3242871.51645                  23120660.2774
        10.0004          8.0004
  24673872.8594    4925960.09243   3669143.73742                  24673879.2234
         6.0004          2.0004
  25061799.6174   -3963002.80941   -176244.78541                  25061809.0784
         3.5004          0.7504
 98  6 11 20  6 15.0000000  0  7G 5G 6G10G30G17G24G26
  23257479.8914    5682641.63145   4349634.39845                  23257485.0124
         9.0004          5.7504
  21773233.1254   -3718717.44946  -2840441.30346                  21773235.9494
        15.7504         16.7504
  22311101.4064    2593603.20446   1999522.27446                  22311104.6054
        14.7504         13.2504
  21695607.5554    1914305.37046   1465100.38646                  21695610.5664
        15.7504         17.5004
  23115415.8284   -4334189.19545  -3264322.23245                  23115420.9024
        10.2504          8.5004
  24681336.2344    4965177.72143   3699702.94342                  24681342.8794
         6.0004          2.0004
  25054314.6884   -4002330.57541   -206889.55541                  25054328.7074
         3.2504          1.0004
 98  6 11 20  6 30.0000000  0  7G 5G 6G10G30G17G24G26
  23266987.2974    5732602.53545   4388564.89945                  23266993.5314
         9.0004          5.2504
  21768739.7114   -3742329.09246  -2858839.97946                  21768742.3014
        16.0004         17.5004
  22316873.1564    2623936.04446   2023158.25246                  22316876.9184
        14.7504         13.0004
  21700983.0864    1942555.99946   1487113.84546                  21700986.2734
        15.5004         17.7504
  23110197.6414   -4361614.86945  -3285692.86445                  23110202.7504
        10.2504          8.2504
  24688805.2894    5004426.61743   3730286.43442                  24688807.6334
         5.7504          1.7504
  25046839.1414   -4041618.37142   -237503.32941                  25046842.8204
         3.7504          0.7504
 98  6 11 20  6 45.0000000  0  7G 5G 6G10G30G17G24G26
  23276513.5944    5782661.83945   4427572.08945                  23276519.9924
         9.0004          5.5004
  21764265.2034   -3765842.90846  -2877162.42546                  21764267.5594
        16.2504         17.0004
  22322677.3204    2654434.54646   2046923.32146                  22322680.7194
        14.7504         13.2504
  21706392.0314    1970977.27446   1509260.27246                  21706395.3134
        15.7504         17.5004
  23104998.6334   -4388933.47545  -3306980.05945                  23105004.0824
        10.2504          8.2504
  24696281.4924    5043712.47643   3760898.78042                  24696287.9384
         5.7504          2.2504
  25039370.3204   -4080864.73941   -268084.75141                  25039378.2704
         3.5004          0.7504
 98  6 11 20  7  0.0000000  0  7G 5G 6G10G30G17G24G26
  23286057.7344    5832816.12245   4466653.29745                  23286063.3834
         9.2504          5.0004
  21759809.0554   -3789260.40246  -2895409.82046                  21759811.1174
        16.2504         17.5004
  22328513.4064    2685102.17246   2070820.16546                  22328516.7344
        14.7504         13.0004
  21711832.4534    1999567.53446   1531538.37446                  21711835.8634
        15.7504         17.7504
  23099819.8134   -4416147.10745  -3328185.46845                  23099824.7344
        10.2504          8.2504
  24703764.0314    5083034.26943   3791539.09442                  24703769.0824
         5.7504          1.7504
  25031909.0944   -4120068.88241   -298633.32741                  25031917.3134
         3.5004          1.0004
 98  6 11 20  7 15.0000000  0  7G 5G 6G10G30G17G24G26
  23295620.0314    5883066.47745   4505809.32745                  23295625.0944
         9.2504          5.2504
  21755370.4304   -3812584.86346  -2913584.71346                  21755372.9494
        16.2504         17.2504
  22334380.7504    2715937.21346   2094847.47146                  22334384.1844
        14.7504         13.0004
  21717304.5314    2028323.29146   1553945.43846                  21717307.6954
        16.0004         17.7504
  23094660.5864   -4443259.19145  -3349311.73445                  23094665.9184
        10.2504          8.2504
  24711253.3054    5122388.72743   3822204.91242                  24711259.0824
         5.7504          2.0004
  25024457.8674   -4159231.82841   -329149.74541                  25024467.5514
         3.5004          1.2504
 98  6 11 20  7 30.0000000  0  7G 5G 6G10G30G17G24G26
  23305200.7584    5933413.83045   4545040.98345                  23305206.3484
         9.2504          5.2504
  21750950.1644   -3835815.19846  -2931686.26546                  21750952.5434
        16.5004         17.5004
  22340279.8204    2746937.95746   2119003.89546                  22340283.0664
        15.0004         13.5004
  21722808.1024    2057244.09946   1576481.11246                  21722811.0434
        16.0004         17.7504
  23089522.1484   -4470265.16045  -3370355.32945                  23089527.5274
        10.5004          8.5004
  24718748.4694    5161776.76743   3852896.81042                  24718752.5824
         5.7504          2.0004
  25017012.7034   -4198350.17942   -359631.39741                  25017028.2464
         3.7504          1.2504
 98  6 11 20  7 45.0000000  0  7G 5G 6G10G30G17G24G26
  23314801.2114    5983865.44145   4584353.84645                  23314806.9414
         9.0004          5.0004
  21746548.3834   -3858945.00646  -2949709.48846                  21746550.9494
        16.5004         18.0004
  22346211.9144    2778108.56546   2143292.67646                  22346215.3014
        14.7504         13.5004
  21728343.8834    2086335.91546   1599150.03446                  21728346.8134
        16.2504         18.0004
  23084405.0164   -4497153.96245  -3391307.60845                  23084409.7854
        10.7504          8.0004
  24726251.1254    5201205.52943   3883620.51242                  24726255.5554
         5.7504          2.0004
  25009579.4844   -4237413.59041   -390070.41741                  25009589.0044
         3.5004          1.0004
 98  6 11 20  8  0.0000000  0  7G 5G 6G10G30G17G24G26
  23324419.9774    6034410.97345   4623739.91845                  23324426.3054
         9.0004          5.2504
  21742164.7274   -3881982.91746  -2967661.10246                  21742166.9414
        16.7504         18.0004
  22352173.5704    2809436.61346   2167704.14046                  22352176.8054
        15.2504         13.2504
  21733910.1804    2115587.03146   1621943.08746                  21733913.1804
        16.2504         18.2504
  23079308.3594   -4523938.33245  -3412178.53145                  23079313.1174
        10.7504          8.2504
  24733760.2974    5240664.19943   3914367.50642                  24733765.3014
         5.7504          1.7504
  25002155.1334   -4276432.49941   -420474.51441                  25002166.7854
         3.5004          1.0004
 98  6 11 20  8 15.0000000  0  7G 5G 6G10G30G17G24G26
  23334055.7814    6085046.60245   4663196.18745                  23334061.7344
         9.0004          4.7504
  21737796.6334   -3904934.64246  -2985545.55446                  21737799.0944
        16.7504         18.0004
  22358163.7894    2840916.40146   2192233.84246                  22358167.0004
        15.0004         13.2504
  21739505.7974    2144990.15946   1644854.59546                  21739508.8204
        16.2504         18.0004
  23074229.3364   -4550627.21745  -3432975.03545                  23074233.4384
        11.0004          8.5004
  24741272.7974    5280144.14043   3945131.06242                  24741278.6914
         6.0004          2.2504
  24994737.2274   -4315412.27641   -450848.34341                  24994743.1804
         3.5004          0.7504
 98  6 11 20  8 30.0000000  0  7G 5G 6G10G30G17G24G26
  23343709.9454    6135782.29145   4702730.41245                  23343715.8984
         9.0004          5.0004
  21733447.4534   -3927791.81846  -3003356.33246                  21733449.7854
        16.5004         18.5004
  22364184.2424    2872555.12246   2216887.39046                  22364187.2544
        14.7504         13.0004
  21745131.3364    2174553.62446   1667891.03946                  21745134.4534
        16.5004         18.2504
  23069169.8364   -4577215.80645  -3453693.39345                  23069174.2194
        10.7504          8.7504
  24748791.3204    5319653.03843   3975917.21642                  24748798.2974
         5.7504          1.7504
  24987329.1414   -4354343.77942   -481184.43241                  24987337.6174
         3.7504          1.0004
 98  6 11 20  8 45.0000000  0  7G 5G 6G10G30G17G24G26
  23353382.2664    6186606.28545   4742333.46845                  23353387.8914
         9.0004          5.0004
  21729113.8754   -3950565.05446  -3021101.70446                  21729116.3014
        16.7504         17.7504
  22370233.2194    2904343.77446   2241657.76246                  22370236.6764
        14.5004         12.7504
  21750785.6954    2204267.74246   1691044.87646                  21750788.6604
        16.7504         18.2504
  23064126.6724   -4603716.84345  -3474343.51545                  23064131.1954
        10.7504          8.7504
  24756313.0704    5359178.99343   4006716.61142                  24756318.8014
         5.7504          2.0004
  24979926.9534   -4393236.75041   -511490.55141                  24979935.9454
         3.5004          1.0004
 98  6 11 20  9  0.0000000  0  7G 5G 6G10G30G17G24G26
  23363070.2584    6237515.98245   4782003.31145                  23363075.4964
         9.0004          5.0004
  21724796.1804   -3973254.22746  -3038781.57146                  21724798.5124
        16.5004         18.2504
  22376310.4534    2936280.47746   2266543.50346                  22376313.9224
        14.7504         12.5004
  21756469.0634    2234134.33946   1714317.52546                  21756472.0164
        16.5004         18.2504
  23059099.9304   -4630132.24245  -3494926.92745                  23059104.3244
        11.0004          9.2504
  24763837.8524    5398719.93043   4037527.72242                  24763842.0004
         6.0004          1.7504
  24972533.8444   -4432090.46141   -541765.98441                  24972543.1994
         3.5004          1.2504
 98  6 11 20  9 15.0000000  0  7G 5G 6G10G30G17G24G26
  23372775.1334    6288516.78845   4821744.10245                  23372781.1684
         8.7504          5.0004
  21720495.0554   -3995857.01446  -3056394.12546                  21720497.6214
        16.7504         18.0004
  22382415.6174    2968362.27746   2291542.30146                  22382418.9344
        14.5004         12.7504
  21762181.9224    2264155.72646   1737710.79846                  21762184.7464
        16.7504         18.2504
  23054089.5784   -4656461.47745  -3515443.18745                  23054093.7624
        10.7504          8.7504
  24771364.1334    5438277.37343   4068351.65942                  24771369.7814
         5.2504          2.0004
  24965147.9144   -4470904.38142   -572010.47441                  24965155.1024
         3.7504          1.0004
 98  6 11 20  9 30.0000000  0  7G 5G 6G10G30G17G24G26
  23382499.4384    6339619.34945   4861564.21145                  23382504.9574
         8.5004          4.5004
  21716212.7194   -4018360.05646  -3073928.95546                  21716215.4964
        16.7504         18.0004
  22388550.9844    3000600.14346   2316662.71446                  22388554.1024
        14.7504         12.7504
  21767927.3054    2294345.61046   1761235.36046                  21767930.2114
        17.0004         18.7504
  23049098.6804   -4682690.44845  -3535881.31145                  23049103.2034
        10.7504          8.7504
  24778899.1644    5477866.50644   4099200.28242                  24778902.3634
         6.2504          1.7504
  24957772.0474   -4509665.57841   -602213.92142                  24957779.6684
         3.5004          1.5004
 98  6 11 20  9 45.0000000  0  7G 5G 6G10G30G17G24G26
  23392242.0084    6390817.46845   4901458.79445                  23392247.2464
         8.5004          4.5004
  21711948.9694   -4040767.60046  -3091389.37046                  21711951.6414
        17.0004         18.5004
  22394714.0314    3032990.29346   2341901.78746                  22394716.9144
        14.7504         12.7504
  21773703.6174    2324702.37146   1784889.95546                  21773706.6764
        16.7504         18.5004
  23044126.0164   -4708820.82245  -3556242.63245                  23044130.7274
        11.0004          8.7504
  24786437.7814    5517486.22843   4130072.79042                  24786441.2624
         6.0004          2.2504
  24950403.8444   -4548377.31341   -632378.79141                  24950408.2384
         3.5004          0.7504
 98  6 11 20 10  0.0000000  0  7G 5G 6G10G30G17G24G26
  23401999.2814    6442092.63445   4941413.39345                  23402005.0594
         8.5004          4.7504
  21707699.1804   -4063098.81146  -3108790.30546                  21707701.6764
        17.0004         18.5004
  22400903.0554    3065514.74746   2367245.51246                  22400906.1484
        14.7504         12.5004
  21779508.8914    2355208.11946   1808660.64546                  21779511.6684
        17.0004         18.7504
  23039168.4224   -4734877.18645  -3576546.25345                  23039172.7464
        11.5004          9.0004
  24793980.2504    5557118.11243   4160954.73242                  24793986.2854
         6.0004          2.0004
  24943043.4224   -4587061.39742   -662522.01441                  24943057.0314
         3.7504          1.0004
 98  6 11 20 10 15.0000000  0  7G 5G 6G10G30G17G24G26
  23411774.3754    6493459.55545   4981439.50045                  23411780.1414
         8.5004          4.7504
  21703466.6174   -4085342.24746  -3126122.84346                  21703469.1604
        17.0004         18.5004
  22407120.6334    3098187.66146   2392704.93246                  22407123.8554
        14.7504         12.5004
  21785344.9304    2385877.25146   1832558.64546                  21785347.8714
        17.0004         18.7504
  23034224.9924   -4760849.01445  -3596784.03745                  23034228.9304
        11.2504          9.0004
  24801526.4224    5596774.82044   4191856.03842                  24801530.9574
         6.5004          2.0004
  24935688.5314   -4625707.52141   -692635.83941                  24935695.0004
         3.5004          1.0004
 98  6 11 20 10 30.0000000  0  7G 5G 6G10G30G17G24G26
  23421572.6334    6544947.77945   5021560.11245                  23421578.6094
         8.5004          4.7504
  21699255.8284   -4107470.42046  -3143365.56146                  21699258.3134
        17.2504         18.5004
  22413372.2344    3131038.87046   2418303.26746                  22413375.3754
        14.2504         13.0004
  21791218.6884    2416742.86646   1856609.75446                  21791221.7934
        17.0004         19.0004
  23029305.8364   -4786701.31345  -3616928.65445                  23029310.7704
        11.2504          9.0004
  24809083.5784    5636489.18043   4222802.25642                  24809088.9574
         6.0004          2.0004
  24928348.0394   -4664284.04341   -722695.32941                  24928354.4144
         3.5004          0.7504
 98  6 11 20 10 45.0000000  0  7G 5G 6G10G30G17G24G26
  23431397.5084    6596582.28045   5061794.72745                  23431403.1094
         8.2504          4.7504
  21695072.0554   -4129455.06146  -3160496.44546                  21695074.5044
        17.0004         18.5004
  22419662.7584    3164095.63046   2444061.78046                  22419666.0514
        15.0004         12.7504
  21797134.9144    2447831.81746   1880834.88546                  21797137.8914
        16.7504         18.7504
  23024414.4844   -4812406.18745  -3636958.41045                  23024418.8324
        11.0004          9.2504
  24816658.5234    5676293.12044   4253818.32542                  24816661.6294
         6.2504          1.7504
  24921026.2664   -4702763.16742   -752679.01641                  24921034.4734
         3.7504          0.7504
 98  6 11 20 11  0.0000000  0  7G 5G 6G10G30G17G24G26
  23441244.9304    6648325.74745   5102114.22745                  23441251.1994
         8.2504          4.7504
  21690910.2424   -4151326.44946  -3177539.07446                  21690912.5274
        17.0004         18.5004
  22425985.5084    3197325.06446   2469954.84246                  22425988.5204
        14.2504         12.5004
  21803086.9064    2479111.97546   1905209.01246                  21803089.6604
        16.7504         19.0004
  23019544.6414   -4837995.49045  -3656898.10645                  23019549.6564
        10.7504          9.2504
  24824243.0474    5716153.66844   4284878.43142                  24824246.4694
         6.2504          2.0004
  24913715.7194   -4741176.72842   -782611.45041                  24913726.7274
         3.7504          1.0004
 98  6 11 20 11 15.0000000  0  7G 5G 6G10G30G17G24G26
  23451105.5944    6700144.43145   5142492.34545                  23451110.8914
         8.5004          4.7504
  21686763.5554   -4173116.63646  -3194518.44146                  21686765.6644
        17.0004         18.2504
  22432335.4924    3230692.56946   2495955.48046                  22432338.7734
        14.5004         12.2504
  21809069.8834    2510550.80046   1929706.77346                  21809072.7074
        17.0004         19.0004
  23014691.4304   -4863500.49845  -3676772.11445                  23014696.0944
        11.0004          9.5004
  24831833.6094    5756038.99643   4315957.86142                  24831838.4144
         5.7504          1.7504
  24906411.7274   -4779555.93441   -812517.26041                  24906422.3014
         3.5004          1.0004
 98  6 11 20 11 30.0000000  0  7G 5G 6G10G30G17G24G26
  23460978.3984    6752029.00345   5182921.82345                  23460983.8594
         8.5004          4.7504
  21682630.7194   -4194834.89046  -3211441.74346                  21682633.1684
        17.0004         18.7504
  22438710.2274    3264191.14446   2522058.26246                  22438713.9304
        14.5004         12.5004
  21815080.6484    2542138.50546   1954320.54746                  21815083.4264
        17.0004         18.7504
  23009852.6174   -4888928.43745  -3696586.08345                  23009857.3404
        11.0004          9.2504
  24839426.0234    5795940.28443   4347049.76042                  24839430.1254
         6.0004          1.7504
  24899113.5164   -4817909.63342   -842403.07941                  24899120.4224
         4.0004          0.7504
 98  6 11 20 11 45.0000000  0  7G 5G 6G10G30G17G24G26
  23470864.2894    6803977.38245   5223401.01644                  23470869.4344
         8.5004          4.2504
  21678511.7734   -4216479.59646  -3228307.74646                  21678514.1524
        17.2504         18.2504
  22445110.2344    3297823.27546   2548265.11046                  22445113.6564
        14.2504         12.5004
  21821119.8754    2573874.59946   1979049.94746                  21821122.8284
        17.0004         19.0004
  23005029.0634   -4914276.60245  -3716337.88345                  23005033.9264
        11.0004          8.7504
  24847021.5704    5835855.97843   4378152.88542                  24847026.6804
         5.7504          1.7504
  24891821.9774   -4856234.69342   -872266.72041                  24891830.4304
         4.2504          1.0004
 98  6 11 20 12  0.0000000  0  7G 5G 6G10G30G17G24G26
  23480763.9614    6855999.70145   5263937.80045                  23480769.7854
         8.5004          4.5004
  21674408.6884   -4238040.78746  -3245108.66646                  21674411.0314
        17.0004         18.0004
  22451537.3524    3331597.64246   2574582.79046                  22451540.4104
        14.7504         12.5004
  21827188.7274    2605765.50546   2003899.98346                  21827191.7624
        17.0004         18.5004
  23000221.1804   -4939541.69845  -3736024.95045                  23000226.3244
        11.0004          8.7504
  24854621.9614    5875791.83343   4409271.69942                  24854625.5004
         5.7504          1.7504
  24884533.5084   -4894526.08442   -902104.09342                  24884541.9964
         3.7504          1.5004
 98  6 11 20 12 15.0000000  0  7G 5G 6G10G30G17G24G26
  23490679.3674    6908105.06045   5304539.32245                  23490685.1454
         8.5004          4.5004
  21670324.2344   -4259506.17146  -3261834.93246                  21670326.3554
        17.2504         18.0004
  22457993.5864    3365526.02846   2601020.49246                  22457996.7734
        14.7504         12.2504
  21833288.6954    2637822.94846   2028879.78546                  21833291.7194
        16.7504         18.5004
  22995431.3134   -4964713.40645  -3755639.24345                  22995435.8834
        11.0004          9.0004
  24862226.2734    5915756.00643   4440412.56142                  24862233.5314
         5.7504          1.5004
  24877255.5554   -4932771.38842   -931905.48741                  24877261.0864
         4.0004          1.0004
 98  6 11 20 12 30.0000000  0  7G 5G 6G10G30G17G24G26
  23500608.2584    6960279.12645   5345194.34245                  23500614.2704
         8.5004          4.7504
  21666256.3834   -4280883.95546  -3278492.93946                  21666258.6094
        17.2504         18.2504
  22464477.2344    3399597.70746   2627569.83946                  22464480.3874
        14.2504         12.5004
  21839419.0084    2670036.90646   2053981.54246                  21839422.1374
        16.7504         18.5004
  22990657.4384   -4989797.61045  -3775185.37145                  22990662.3834
        11.0004          9.2504
  24869834.3834    5955737.44943   4471566.91642                  24869841.9344
         5.2504          1.5004
  24869985.7424   -4970976.95242   -961675.95542                  24869996.6214
         4.2504          1.5004
 98  6 11 20 12 45.0000000  0  7G 5G 6G10G30G17G24G26
  23510549.0314    7012518.84845   5385900.53945                  23510554.7734
         8.5004          4.5004
  21662205.3364   -4302171.53946  -3295080.66446                  21662207.6334
        17.5004         18.0004
  22470988.0554    3433812.66746   2654230.84046                  22470991.5234
        14.2504         12.5004
  21845578.8364    2702406.61846   2079204.67446                  21845581.8364
        17.0004         18.5004
  22985900.9924   -5014796.32245  -3794664.86845                  22985905.8324
        11.5004          9.2504
  24877445.8444    5995735.19643   4502733.93442                  24877449.8164
         5.5004          1.7504
  24862724.2814   -5009140.49142   -991413.67941                  24862730.0004
         4.2504          1.0004
 98  6 11 20 13  0.0000000  0  7G 5G 6G10G30G17G24G26
  23520503.1094    7064828.75845   5426661.44344                  23520509.6724
         8.5004          4.2504
  21658173.1484   -4323360.61246  -3311591.62946                  21658175.2704
        17.2504         18.2504
  22477527.0234    3468175.73446   2681007.24746                  22477530.5274
        14.2504         12.5004
  21851768.3754    2734932.58246   2104549.55546                  21851771.5274
        16.7504         18.7504
  22981160.8204   -5039706.51245  -3814075.39245                  22981165.2154
        11.2504          9.5004
  24885060.7344    6035749.19143   4533913.63442                  24885064.7304
         5.5004          2.0004
  24855470.6724   -5047256.68742  -1021114.49242                  24855477.1994
         4.2504          1.5004
 98  6 11 20 13 15.0000000  0  7G 5G 6G10G30G17G24G26
  23530470.6884    7117211.14545   5467478.79945                  23530476.3954
         8.5004          4.7504
  21654159.3834   -4344453.52546  -3328027.65546                  21654161.6454
        17.2504         18.2504
  22484094.3594    3502686.06346   2707898.40446                  22484098.0274
        14.7504         12.2504
  21857987.5394    2767614.25946   2130015.77646                  21857990.4924
        16.7504         18.5004
  22976437.6884   -5064526.23945  -3833415.42145                  22976441.6954
        11.7504          9.0004
  24892676.6884    6075776.66243   4565103.88242                  24892679.6994
         5.5004          1.7504
  24848226.3364   -5085324.17342  -1050777.32542                  24848236.1374
         4.5004          1.7504
 98  6 11 20 13 30.0000000  0  7G 5G 6G10G30G17G24G26
  23540453.2274    7169667.02645   5508353.43645                  23540458.8524
         8.5004          4.5004
  21650162.8834   -4365454.88046  -3344392.34046                  21650165.4024
        17.2504         18.2504
  22490688.9454    3537341.00746   2734902.25046                  22490692.7424
        14.7504         12.5004
  21864235.0634    2800446.68246   2155599.45646                  21864238.2734
        17.0004         18.7504
  22971730.7974   -5089258.97945  -3852687.67245                  22971734.7234
        11.5004          9.5004
  24900297.0554    6115815.55543   4596302.97442                  24900302.1054
         6.0004          1.7504
  24840990.3444   -5123348.25542  -1080406.39842                  24840995.1374
         4.2504          1.5004
 98  6 11 20 13 45.0000000  0  7G 5G 6G10G30G17G24G26
  23550448.7894    7222194.79645   5549284.08744                  23550454.0514
         8.2504          4.2504
  21646183.3284   -4386366.77746  -3360687.31846                  21646185.8134
        17.2504         18.5004
  22497311.1414    3572140.62446   2762018.82746                  22497314.3054
        14.7504         12.7504
  21870510.6644    2833424.50346   2181296.43946                  21870513.7704
        17.0004         18.7504
  22967040.0864   -5113909.40945  -3871895.78945                  22967044.5634
        11.5004          9.2504
  24907918.0704    6155863.99743   4627509.51942                  24907922.9344
         5.7504          1.7504
  24833761.0474   -5161332.94042  -1110004.76041                  24833769.7344
         4.2504          1.2504
 98  6 11 20 14  0.0000000  0  7G 5G 6G10G30G17G24G26
  23560458.6884    7274795.53045   5590271.60745                  23560465.0274
         8.5004          4.5004
  21642220.9534   -4407189.55046  -3376912.85146                  21642223.1684
        17.5004         18.0004
  22503960.5784    3607083.88746   2789247.33746                  22503964.4924
        14.5004         12.2504
  21876814.1564    2866548.23646   2207107.12046                  21876817.2384
        17.0004         19.0004
  22962365.0234   -5138478.14945  -3891040.24045                  22962369.6294
        11.7504          9.2504
  24915540.1484    6195921.58043   4658723.15642                  24915546.4184
         5.7504          1.7504
  24826541.0864   -5199278.48042  -1139572.60442                  24826548.6374
         4.5004          1.5004
 98  6 11 20 14 15.0000000  0  7G 5G 6G10G30G17G24G26
  23570481.9144    7327468.83245   5631315.62345                  23570487.7384
         8.5004          4.5004
  21638275.7194   -4427922.28246  -3393068.22546                  21638277.9804
        17.2504         18.7504
  22510636.9224    3642169.96946   2816587.14146                  22510640.7424
        15.0004         12.2504
  21883145.3284    2899820.48646   2233033.51846                  21883148.2114
        17.0004         19.0004
  22957705.7034   -5162965.11445  -3910120.98945                  22957709.9224
        11.7504          9.5004
  24923165.4144    6235990.02843   4689945.28842                  24923170.0664
         5.7504          1.5004
  24819327.0864   -5237184.48542  -1169109.62942                  24819335.4804
         4.2504          1.5004
 98  6 11 20 14 30.0000000  0  7G 5G 6G10G30G17G24G26
  23580518.4454    7380209.84345   5672412.44844                  23580524.2464
         8.5004          4.2504
  21634346.2894   -4448570.59946  -3409157.80946                  21634348.6914
        17.2504         18.5004
  22517340.0554    3677392.40946   2844033.18746                  22517343.7814
        15.0004         12.5004
  21889504.1884    2933233.82946   2259069.86646                  21889506.9534
        17.2504         19.2504
  22953060.1254   -5187373.11545  -3929140.18845                  22953064.2624
        11.5004          9.7504
  24930791.3674    6276066.20743   4721173.44642                  24930795.0704
         5.7504          1.7504
  24812121.0944   -5275054.06342  -1198618.27841                  24812126.7544
         4.2504          1.2504
 98  6 11 20 14 45.0000000  0  7G 5G 6G10G30G17G24G26
  23590568.1254    7433021.03045   5713563.94445                  23590574.3134
         8.2504          4.5004
  21630433.0554   -4469135.47946  -3425182.38946                  21630435.5274
        17.0004         18.2504
  22524068.1484    3712751.09746   2871585.41146                  22524071.9804
        15.0004         12.2504
  21895888.6254    2966784.78546   2285213.43746                  21895891.2734
        17.5004         19.0004
  22948429.9614   -5211704.86345  -3948099.97845                  22948434.5084
        11.2504          9.0004
  24938419.7974    6316152.53143   4752409.51442                  24938425.3874
         5.5004          1.7504
  24804921.0864   -5312887.95142  -1228099.09041                  24804927.0984
         4.5004          1.2504
 98  6 11 20 15  0.0000000  0  7G 5G 6G10G30G17G24G26
  23600632.3134    7485906.98645   5754773.69244                  23600637.3754
         8.7504          4.2504
  21626535.5554   -4489617.07246  -3441142.06246                  21626537.9454
        17.0004         18.5004
  22530822.5554    3748244.74446   2899242.78546                  22530826.2584
        14.7504         12.5004
  21902298.7734    3000470.25246   2311461.82946                  21902301.5864
        17.7504         19.2504
  22943814.0004   -5235961.61345  -3967001.32645                  22943818.9454
        11.2504          9.5004
  24946049.9844    6356247.95243   4783652.62942                  24946054.0634
         5.7504          2.0004
  24797728.3134   -5350687.78042  -1257553.43941                  24797735.0514
         4.5004          1.2504
 98  6 11 20 15 15.0000000  0  7G 5G 6G10G30G17G24G26
  23610710.4064    7538868.71745   5796042.51444                  23610716.1134
         8.5004          4.2504
  21622653.0784   -4510019.88646  -3457040.35346                  21622655.3754
        17.2504         18.5004
  22537601.8674    3783869.66946   2927002.45746                  22537605.3484
        14.7504         12.5004
  21908733.8134    3034287.23846   2337812.70246                  21908736.6484
        17.7504         19.2504
  22939211.8444   -5260146.52145  -3985846.70145                  22939216.2624
        11.5004          9.0004
  24953681.2194    6396351.39243   4814902.11941                  24953685.4384
         6.0004          1.2504
  24790541.2274   -5388455.92742  -1286982.96742                  24790549.0234
         4.5004          1.5004
 98  6 11 20 15 30.0000000  0  7G 5G 6G10G30G17G24G26
  23620803.8674    7591907.62445   5837371.46844                  23620809.3874
         8.5004          4.2504
  21618785.0704   -4530345.24046  -3472878.28846                  21618787.4734
        17.0004         18.5004
  22544406.2734    3819628.30946   2954866.32546                  22544409.7304
        14.7504         12.5004
  21915195.1884    3068241.33746   2364270.42046                  21915198.0944
        17.2504         18.7504
  22934623.4614   -5284260.39245  -4004636.71945                  22934627.9734
        11.2504          9.7504
  24961313.9454    6436463.55843   4846158.26942                  24961318.8554
         6.0004          1.5004
  24783360.0864   -5426193.21342  -1316388.60441                  24783367.4144
         4.5004          1.2504
 98  6 11 20 15 45.0000000  0  7G 5G 6G10G30G17G24G26
  23630910.6334    7645018.57145   5878756.50845                  23630916.6684
         8.5004          4.5004
  21614932.0004   -4550592.66146  -3488655.49546                  21614934.4964
        17.0004         18.2504
  22551236.1954    3855518.33146   2982832.57546                  22551239.8284
        14.7504         12.2504
  21921682.7344    3102333.14346   2390835.43746                  21921685.5474
        17.5004         19.2504
  22930047.2034   -5308307.68445  -4023374.85145                  22930051.7624
        11.5004          8.7504
  24968948.2974    6476583.42243   4877420.46142                  24968956.0234
         6.0004          1.5004
  24776183.9454   -5463899.69242  -1345770.15142                  24776188.9964
         4.7504          1.5004
 98  6 11 20 16  0.0000000  0  7G 5G 6G10G30G17G24G26
  23641029.8674    7698196.66745   5920193.92744                  23641035.0234
         8.2504          4.2504
  21611093.5864   -4570763.79446  -3504373.25446                  21611096.1644
        17.0004         18.0004
  22558090.0164    3891537.24246   3010899.24346                  22558093.3094
        14.7504         12.2504
  21928196.3524    3136562.98446   2417508.01346                  21928199.3164
        17.7504         18.7504
  22925484.0704   -5332287.89245  -4042060.71345                  22925487.5984
        11.7504          9.5004
  24976585.1644    6516708.64343   4908686.83542                  24976594.5314
         6.0004          1.7504
  24769015.7894   -5501571.60942  -1375124.79342                  24769023.0594
         4.5004          1.7504
 98  6 11 20 16 15.0000000  0  7G 5G 6G10G30G17G24G26
  23651161.4844    7751438.04745   5961680.63044                  23651167.0864
         8.5004          4.0004
  21607269.7974   -4590858.15246  -3520031.19346                  21607272.2584
        16.7504         18.2504
  22564968.2664    3927680.15846   3039062.54246                  22564971.8754
        15.0004         12.2504
  21934736.2274    3170930.28746   2444287.70546                  21934739.1214
        17.2504         18.7504
  22920933.1564   -5356201.51945  -4060694.69745                  22920936.9184
        11.7504         10.0004
  24984221.0084    6556839.06843   4939957.20242                  24984228.4184
         6.0004          1.7504
  24761853.4384   -5539208.64042  -1404452.18742                  24761863.5554
         4.2504          1.5004
 98  6 11 20 16 30.0000000  0  7G 5G 6G10G30G17G24G26
  23661303.7274    7804734.40245   6003210.18744                  23661310.1724
         8.2504          4.0004
  21603459.3984   -4610881.87846  -3535634.09146                  21603462.1994
        17.0004         18.0004
  22571867.8204    3963939.30846   3067316.43346                  22571871.2194
        15.0004         12.5004
  21941300.2504    3205424.18946   2471166.04346                  21941302.9694
        17.5004         19.0004
  22916393.9224   -5380056.21345  -4079282.75845                  22916398.9144
        11.7504          9.7504
  24991856.9304    6596967.30743   4971225.98542                  24991861.5704
         5.7504          1.7504
  24754697.9534   -5576815.04442  -1433755.85441                  24754703.9774
         4.5004          1.0004
 98  6 11 20 16 45.0000000  0  7G 5G 6G10G30G17G24G26
  23671459.0634    7858100.68645   6044794.20744                  23671465.2274
         8.2504          4.0004
  21599664.7274   -4630822.46546  -3551172.20846                  21599667.5984
        16.7504         18.0004
  22578792.4064    4000328.40946   3095671.57046                  22578795.9694
        15.0004         13.0004
  21947890.6954    3240057.53446   2498153.04346                  21947893.4494
        17.5004         18.7504
  22911869.0084   -5403836.57845  -4097812.90545                  22911872.9574
        11.7504          9.7504
  24999496.1094    6637107.06344   5002503.67242                  24999499.4144
         6.2504          2.0004
  24747549.8134   -5614375.47742  -1463023.50642                  24747559.6024
         4.5004          1.5004
 98  6 11 20 17  0.0000000  0  7G 5G 6G10G30G17G24G26
  23681627.1334    7911534.73445   6086431.04844                  23681632.2424
         8.2504          4.2504
  21595885.5634   -4650682.69346  -3566647.70746                  21595888.1524
        16.7504         18.2504
  22585741.4144    4036844.71246   3124125.82546                  22585744.8954
        15.0004         13.5004
  21954508.1644    3274831.66846   2525249.74846                  21954510.8954
        17.7504         19.0004
  22907357.2194   -5427542.01445  -4116284.66045                  22907361.0864
        11.7504          9.7504
  25007135.9924    6677256.08843   5033788.57442                  25007141.9804
         6.0004          1.7504
  24740409.8914   -5651891.86442  -1492256.99442                  24740418.0164
         4.5004          1.5004
 98  6 11 20 17 15.0000000  0  7G 5G 6G10G30G17G24G26
  23691807.3674    7965035.57745   6128119.94644                  23691813.3324
         8.2504          3.7504
  21592121.3524   -4670463.13446  -3582061.03346                  21592124.0944
        16.5004         17.5004
  22592713.9064    4073485.63146   3152677.18146                  22592717.2114
        15.5004         13.0004
  21961152.0474    3309746.69646   2552456.23746                  21961154.9304
        17.7504         19.2504
  22902860.5474   -5451171.94646  -4134697.58145                  22902865.1414
        12.0004         10.2504
  25014777.4774    6717414.09743   5065080.47642                  25014780.8874
         5.7504          1.5004
  24733279.1484   -5689364.62742  -1521456.37541                  24733286.3134
         4.7504          1.2504
 98  6 11 20 17 30.0000000  0  7G 5G 6G10G30G17G24G26
  23701998.1724    8018587.99145   6169848.99644                  23702004.2304
         8.0004          4.0004
  21588370.8834   -4690170.88646  -3597417.71846                  21588373.5434
        16.5004         17.0004
  22599708.8204    4110243.46946   3181319.65346                  22599711.6804
        15.5004         13.2504
  21967821.9224    3344796.62946   2579767.84346                  21967824.7344
        17.5004         18.7504
  22898377.4844   -5474733.78745  -4153057.44945                  22898381.8444
        11.7504         10.0004
  25022419.8754    6757573.77844   5096373.71242                  25022425.0204
         6.2504          1.5004
  24726155.4694   -5726803.03743  -1550629.06041                  24726162.8324
         5.0004          1.2504
 98  6 11 20 17 45.0000000  0  7G 5G 6G10G30G17G24G26
  23712197.5944    8072183.32645   6211611.52644                  23712203.8164
         8.2504          4.0004
  21584634.3204   -4709808.82546  -3612719.99946                  21584637.0274
        16.2504         17.5004
  22606724.8444    4147112.34446   3210048.64246                  22606727.5514
        15.5004         13.0004
  21974516.1564    3379973.34446   2607178.24646                  21974518.9454
        17.7504         19.2504
  22893906.2584   -5498227.85345  -4171364.50545                  22893910.5354
        11.7504         10.2504
  25030061.0944    6797733.38643   5127666.90442                  25030065.5704
         6.0004          1.7504
  24719036.6884   -5764212.71042  -1579779.37841                  24719040.0864
         4.7504          1.2504
 98  6 11 20 18  0.0000000  0  7G 5G 6G10G30G17G24G26
  23722405.6024    8125828.87845   6253413.19044                  23722411.7304
         8.2504          4.0004
  21580911.8284   -4729368.93046  -3627961.63646                  21580914.8874
        16.2504         17.5004
  22613763.2504    4184099.79846   3238870.03146                  22613766.2504
        15.5004         12.5004
  21981234.5704    3415278.16046   2634688.46046                  21981237.3134
        18.0004         19.0004
  22889450.8594   -5521643.70345  -4189610.59545                  22889455.5004
        11.7504         10.2504
  25037706.2274    6837903.39144   5158968.18342                  25037710.3164
         6.2504          1.5004
  24711925.2584   -5801584.75043  -1608900.30642                  24711933.8984
         5.0004          1.5004
 98  6 11 20 18 15.0000000  0  7G 5G 6G10G30G17G24G26
  23732625.0314    8179530.59845   6295258.58544                  23732631.1844
         8.2504          4.0004
  21577205.5314   -4748846.54446  -3643138.99146                  21577208.3794
        16.5004         17.5004
  22620825.0164    4221209.79046   3267786.89546                  22620827.9574
        15.5004         12.7504
  21987977.1174    3450711.69946   2662298.98346                  21987979.9304
        18.0004         19.0004
  22885010.2504   -5544977.22746  -4207792.55445                  22885014.3634
        12.0004         10.2504
  25045352.9224    6878088.38043   5190281.06542                  25045356.4964
         6.0004          1.5004
  24704820.3444   -5838919.79143  -1637992.42641                  24704827.1294
         5.2504          1.2504
 98  6 11 20 18 30.0000000  0  7G 5G 6G10G30G17G24G26
  23742855.6024    8233288.34745   6337147.64644                  23742862.4104
         8.0004          4.0004
  21573514.3444   -4768245.08146  -3658254.72946                  21573516.8984
        16.5004         17.7504
  22627909.6174    4258438.48546   3296796.26346                  22627912.5594
        15.5004         13.0004
  21994743.8204    3486271.17546   2690007.63546                  21994746.7384
        17.7504         19.0004
  22880584.6024   -5568234.04946  -4225914.73045                  22880588.8094
        12.2504         10.2504
  25053001.9844    6918284.14443   5221602.41342                  25053008.1604
         5.7504          1.5004
  24697721.0164   -5876223.67243  -1667060.29642                  24697725.3404
         5.2504          1.5004
 98  6 11 20 18 45.0000000  0  7G 5G 6G10G30G17G24G26
  23753095.7974    8287102.60145   6379080.74044                  23753101.2934
         8.0004          4.2504
  21569837.2504   -4787567.99946  -3673311.54646                  21569839.8874
        16.5004         18.0004
  22635016.5554    4295787.28546   3325899.21446                  22635019.5314
        15.5004         13.0004
  22001534.5314    3521955.59846   2717813.64646                  22001537.3094
        17.2504         19.0004
  22876173.3284   -5591415.78546  -4243978.40245                  22876177.5944
        12.5004         10.7504
  25060652.8134    6958487.72443   5252929.87441                  25060657.1024
         6.0004          1.2504
  24690627.2344   -5913499.01043  -1696105.93541                  24690632.7194
         5.2504          1.2504
 98  6 11 20 19  0.0000000  0  7G 5G 6G10G30G17G24G26
  23763345.8284    8340968.51745   6421054.09644                  23763350.8794
         7.7504          3.7504
  21566173.5554   -4806820.92046  -3688313.81046                  21566175.9224
        17.0004         18.0004
  22642145.7814    4333251.17846   3355091.85446                  22642148.4654
        15.5004         12.7504
  22008348.6884    3557764.35146   2745716.54346                  22008351.5234
        17.5004         18.5004
  22871775.3134   -5614528.98146  -4261988.67345                  22871779.6254
        12.5004         10.5004
  25068304.7504    6998695.26944   5284260.41341                  25068311.4654
         6.2504          1.0004
  24683538.5314   -5950753.07643  -1725134.88942                  24683544.7544
         5.2504          1.5004
 98  6 11 20 19 15.0000000  0  7G 5G 6G10G30G17G24G26
  23773606.3134    8394885.72545   6463067.41544                  23773612.3244
         8.0004          3.7504
  21562523.9224   -4825999.76346  -3703258.36646                  21562526.5594
        17.2504         18.7504
  22649297.2424    4370832.83046   3384376.24346                  22649300.1604
        15.5004         12.5004
  22015186.5164    3593697.33946   2773716.23646                  22015189.2344
        17.7504         18.5004
  22867389.2194   -5637575.49646  -4279946.97745                  22867392.9344
        12.2504         10.5004
  25075955.9304    7038906.43243   5315593.73842                  25075960.2194
         5.7504          1.5004
  24676453.0554   -5987984.32343  -1754146.20142                  24676457.9304
         5.2504          1.5004
 98  6 11 20 19 30.0000000  0  7G 5G 6G10G30G17G24G26
  23783875.7664    8448851.95145   6505118.94243                  23783881.2854
         8.0004          3.2504
  21558889.0864   -4845100.45446  -3718142.01746                  21558891.2664
        17.0004         18.5004
  22656471.8914    4408535.39846   3413754.86346                  22656474.9384
        15.2504         12.2504
  22022047.7734    3629755.07746   2801813.14846                  22022050.6804
        17.2504         18.5004
  22863016.9844   -5660554.19146  -4297852.44345                  22863020.8874
        12.5004         10.0004
  25083608.4224    7079120.29043   5346929.13742                  25083612.9694
         5.7504          1.7504
  24669372.5234   -6025190.38643  -1783137.75942                  24669381.3874
         5.2504          1.7504
 98  6 11 20 19 45.0000000  0  7G 5G 6G10G30G17G24G26
  23794154.0164    8502862.73345   6547205.18144                  23794159.0664
         7.7504          3.5004
  21555268.1334   -4864129.05746  -3732969.49346                  21555270.4884
        17.2504         18.5004
  22663668.7424    4446354.66246   3443224.41046                  22663671.8954
        15.0004         12.2504
  22028932.6334    3665933.06946   2830003.75546                  22028935.8554
        17.2504         18.0004
  22858656.5084   -5683468.43246  -4315707.68045                  22858660.4924
        12.5004         10.7504
  25091261.0554    7119331.93643   5378262.90041                  25091267.2194
         5.7504          1.2504
  24662297.6644   -6062373.42742  -1812111.50842                  24662303.8284
         4.7504          1.5004
 98  6 11 20 20  0.0000000  0  7G 5G 6G10G30G17G24G26
  23804441.0474    8556923.00145   6589329.97444                  23804447.0354
         7.7504          3.7504
  21551660.4694   -4883086.72546  -3747741.69746                  21551662.9184
        17.5004         18.7504
  22670887.7664    4484291.18946   3472785.32846                  22670891.1524
        15.0004         12.2504
  22035840.0784    3702233.23346   2858289.57046                  22035843.0664
        17.2504         19.0004
  22854308.0554   -5706319.98246  -4333514.07045                  22854312.2854
        12.7504         10.7504
  25098912.1804    7159540.88743   5409594.42341                  25098917.9804
         5.7504          1.0004
  24655227.8674   -6099527.81843  -1841062.78342                  24655239.0394
         5.0004          1.7504
 98  6 11 20 20 15.0000000  0  7G 5G 6G10G30G17G24G26
  23814737.7504    8611032.95345   6631493.50444                  23814743.6914
         7.5004          3.7504
  21548065.7344   -4901977.37646  -3762461.68146                  21548067.7504
        17.2504         18.5004
  22678128.3524    4522340.82146   3502434.39046                  22678131.6564
        15.2504         12.2504
  22042771.6484    3738658.30546   2886672.71346                  22042774.5784
        17.2504         18.0004
  22849969.9304   -5729115.30846  -4351276.65045                  22849973.7504
        13.0004         10.5004
  25106561.1644    7199739.93243   5440918.34941                  25106564.3404
         5.5004          1.2504
  24648162.7974   -6136654.10343  -1869992.26342                  24648168.5274
         5.0004          1.7504
 98  6 11 20 20 30.0000000  0  7G 5G 6G10G30G17G24G26
  23825044.7274    8665193.96145   6673696.76444                  23825050.5744
         7.7504          3.5004
  21544484.3284   -4920798.15046  -3777127.22046                  21544486.7304
        17.5004         18.5004
  22685390.2274    4560501.61946   3532170.06646                  22685393.1214
        15.2504         12.7504
  22049727.8284    3775212.21046   2915156.24346                  22049730.6524
        17.2504         18.2504
  22845642.6954   -5751855.29046  -4368996.10745                  22845646.5634
        12.7504         11.0004
  25114209.0314    7239929.52643   5472234.88141                  25114213.5434
         5.2504          1.2504
  24641103.1094   -6173747.90343  -1898896.39042                  24641111.4224
         5.2504          1.7504
 98  6 11 20 20 45.0000000  0  7G 5G 6G10G30G17G24G26
  23835360.8134    8719405.93245   6715939.77044                  23835366.4264
         7.7504          3.5004
  21540915.7344   -4939549.43346  -3791738.60046                  21540918.1254
        17.5004         19.0004
  22692672.8984    4598773.24446   3561992.10146                  22692676.3204
        15.0004         12.7504
  22056707.9304    3811894.22646   2943739.60346                  22056710.6024
        17.2504         18.2504
  22841326.0704   -5774539.50446  -4386672.09945                  22841329.7034
        12.7504         10.7504
  25121853.8754    7280107.81643   5503542.66441                  25121858.6214
         5.2504          1.0004
  24634051.8284   -6210805.35543  -1927772.22442                  24634060.0234
         5.0004          1.5004
 98  6 11 20 21  0.0000000  0  7G 5G 6G10G30G17G24G26
  23845685.9694    8773667.05745   6758221.08743                  23845691.3364
         7.7504          3.2504
  21537361.5234   -4958229.06246  -3806294.15546                  21537363.9844
        17.2504         19.0004
  22699977.5234    4637158.23246   3591902.47846                  22699980.7814
        14.7504         12.5004
  22063712.6254    3848703.75846   2972422.31846                  22063715.4264
        17.2504         18.5004
  22837020.8674   -5797163.85746  -4404301.44745                  22837024.3134
        12.7504         11.0004
  25129499.2894    7320276.95743   5534843.20041                  25129502.7704
         5.5004          1.2504
  24627006.4224   -6247823.68043  -1956617.57742                  24627013.2544
         5.0004          1.7504
 98  6 11 20 21 15.0000000  0  7G 5G 6G10G30G17G24G26
  23856021.2194    8827973.49445   6800537.70844                  23856027.9104
         8.2504          3.5004
  21533820.3674   -4976836.91946  -3820793.77946                  21533822.7464
        17.2504         18.7504
  22707302.3204    4675650.86246   3621896.72246                  22707305.8594
        14.7504         12.0004
  22070740.8444    3885636.40446   3001200.97046                  22070743.5744
        17.2504         18.0004
  22832726.3204   -5819732.16946  -4421887.11945                  22832730.0474
        12.7504         10.7504
  25137140.2584    7360434.73743   5566134.95342                  25137145.8244
         5.5004          1.5004
  24619969.2344   -6284804.24543  -1985433.49242                  24619977.1604
         5.2504          1.5004
 98  6 11 20 21 30.0000000  0  7G 5G 6G10G30G17G24G26
  23866364.1254    8882328.53145   6842892.15544                  23866370.3714
         8.0004          3.7504
  21530293.9384   -4995368.19746  -3835233.72546                  21530296.3404
        17.2504         18.5004
  22714647.8444    4714252.21446   3651975.68946                  22714651.6884
        15.0004         12.2504
  22077792.0554    3922691.01246   3030074.65846                  22077794.8914
        17.0004         17.5004
  22828443.8284   -5842237.38946  -4439423.64345                  22828447.6134
        12.7504         11.2504
  25144781.2814    7400583.92143   5597420.01042                  25144783.2504
         5.2504          1.5004
  24612941.6954   -6321741.74243  -2014215.82242                  24612948.3874
         5.2504          2.0004
 98  6 11 20 21 45.0000000  0  7G 5G 6G10G30G17G24G26
  23876717.0944    8936731.90045   6885284.30944                  23876722.9304
         8.2504          3.7504
  21526781.5864   -5013827.07946  -3849617.26546                  21526784.0004
        17.5004         19.0004
  22722013.4844    4752958.49546   3682136.41846                  22722016.8834
        15.0004         12.0004
  22084865.8284    3959866.05046   3059042.18646                  22084868.6994
        17.0004         17.5004
  22824173.0784   -5864680.43146  -4456911.71045                  22824176.7934
        12.7504         11.2504
  25152419.2114    7440725.12243   5628698.78841                  25152424.6134
         5.2504          1.2504
  24605920.0164   -6358637.58143  -2042965.71542                  24605927.2274
         5.2504          1.7504
 98  6 11 20 22  0.0000000  0  7G 5G 6G10G30G17G24G26
  23887078.8134    8991184.15045   6927714.56144                  23887084.4384
         8.0004          3.7504
  21523282.9614   -5032212.93346  -3863943.90246                  21523285.3524
        17.5004         19.2504
  22729398.7034    4791767.70746   3712377.35546                  22729402.1604
        14.7504         12.0004
  22091962.5634    3997158.14346   3088100.92346                  22091965.2704
        17.0004         17.5004
  22819913.3134   -5887063.42346  -4474352.98245                  22819917.2154
        12.7504         11.2504
  25160056.5164    7480858.82743   5659971.79842                  25160064.3594
         5.5004          1.5004
  24598905.4224   -6395494.07443  -2071684.95842                  24598914.4734
         5.2504          1.7504
 98  6 11 20 22 15.0000000  0  7G 5G 6G10G30G17G24G26
  23897450.6804    9045686.44145   6970183.78944                  23897456.9024
         8.2504          3.5004
  21519799.2734   -5050520.01546  -3878209.15146                  21519801.5944
        17.2504         19.0004
  22736803.7344    4830683.64246   3742701.45445                  22736806.9924
        14.7504         11.5004
  22099081.6174    4034568.88846   3117252.12046                  22099084.4184
        17.0004         17.2504
  22815665.9534   -5909384.68946  -4491746.16245                  22815670.0314
        12.7504         11.0004
  25167693.7974    7520987.21143   5691240.56742                  25167699.8444
         5.0004          1.5004
  24591900.0634   -6432310.30943  -2100372.73842                  24591909.7584
         5.2504          2.0004
 98  6 11 20 22 30.0000000  0  7G 5G 6G10G30G17G24G26
  23907830.5314    9100235.67645   7012689.59644                  23907836.7544
         8.0004          4.0004
  21516331.2814   -5068744.16246  -3892409.78346                  21516333.6954
        17.5004         18.7504
  22744229.8364    4869707.28346   3773109.46745                  22744233.2344
        14.7504         11.7504
  22106222.4844    4072094.73346   3146493.00146                  22106225.4734
        17.0004         17.5004
  22811430.5784   -5931641.24546  -4509088.91845                  22811434.3284
        13.0004         11.2504
  25175328.4844    7561111.13943   5722505.92542                  25175335.1764
         5.2504          1.5004
  24584900.8914   -6469090.28943  -2129032.33942                  24584906.3164
         5.2504          2.0004
 98  6 11 20 22 45.0000000  0  7G 5G 6G10G30G17G24G26
  23918219.2974    9154826.01745   7055227.40944                  23918225.8594
         7.7504          3.7504
  21512878.7894   -5086886.32746  -3906546.53446                  21512881.2034
        17.2504         19.0004
  22751676.7894    4908840.19346   3803602.63645                  22751680.1524
        14.7504         11.7504
  22113384.6884    4109730.86446   3175819.83046                  22113387.6884
        17.0004         17.0004
  22807207.7814   -5953831.96346  -4526380.37945                  22807211.6954
        12.7504         10.7504
  25182963.1644    7601230.49143   5753767.76142                  25182971.3714
         5.5004          1.7504
  24577907.8754   -6505837.50843  -2157666.45742                  24577912.6804
         5.2504          2.0004
 98  6 11 20 23  0.0000000  0  7G 5G 6G10G30G17G24G26
  23928613.8984    9209450.92745   7097792.20743                  23928620.0274
         7.5004          3.2504
  21509441.0864   -5104952.13146  -3920623.77946                  21509443.4184
        17.5004         19.2504
  22759143.9064    4948080.85546   3834179.76145                  22759147.1414
        14.7504         11.5004
  22120567.1024    4147474.43346   3205230.36646                  22120570.2544
        17.0004         17.2504
  22802997.3674   -5975957.61746  -4543621.10845                  22803001.5394
        12.5004         11.2504
  25190596.0314    7641342.27043   5785023.62441                  25190601.2704
         5.0004          1.2504
  24570919.9534   -6542558.88643  -2186280.38542                  24570925.7074
         5.0004          2.0004
 98  6 11 20 23 15.0000000  0  7G 5G 6G10G30G17G24G26
  23939015.0084    9264112.67145   7140385.68344                  23939021.5004
         7.5004          3.5004
  21506018.0634   -5122939.94546  -3934640.25146                  21506020.5004
        17.7504         19.5004
  22766631.8284    4987430.56046   3864841.85745                  22766635.4734
        14.2504         11.7504
  22127770.4844    4185328.40246   3234726.92846                  22127773.4734
        17.2504         17.7504
  22798799.7734   -5998015.75446  -4560809.26945                  22798803.6644
        12.5004         10.7504
  25198228.2814    7681450.47043   5816276.70341                  25198229.9454
         5.0004          1.0004
  24563937.2424   -6579253.81943  -2214873.70942                  24563942.1054
         5.2504          1.7504
 98  6 11 20 23 30.0000000  0  7G 5G 6G10G30G17G24G26
  23949425.0554    9318813.22745   7183009.39444                  23949431.8874
         7.5004          3.5004
  21502609.0704   -5140852.55746  -3948598.13146                  21502611.3674
        17.2504         19.2504
  22774140.7584    5026888.87446   3895588.58645                  22774144.3324
        14.7504         11.5004
  22134994.9224    4223293.68046   3264310.22846                  22134997.6294
        17.2504         18.0004
  22794615.2274   -6020005.41546  -4577944.04745                  22794619.2814
        12.5004         11.0004
  25205860.2344    7721556.39543   5847528.05542                  25205865.1684
         5.0004          1.7504
  24556959.4064   -6615922.31643  -2243446.44842                  24556966.6764
         5.2504          2.0004
 98  6 11 20 23 45.0000000  0  7G 5G 6G10G30G17G24G26
  23959841.0314    9373552.29245   7225663.12344                  23959847.0904
         7.5004          3.5004
  21499214.4454   -5158692.39046  -3962499.29746                  21499217.1764
        17.2504         19.5004
  22781670.9694    5066460.70346   3926423.76745                  22781674.6844
        14.2504         11.5004
  22142241.5704    4261373.75146   3293982.97846                  22142244.4534
        17.2504         17.7504
  22790444.1414   -6041924.20346  -4595023.60545                  22790448.7114
        12.2504         11.0004
  25213492.8984    7761662.68543   5878779.67041                  25213497.8794
         5.2504          1.2504
  24549987.2194   -6652562.09643  -2271996.84442                  24549992.5634
         5.5004          2.0004
 98  6 11 20 24  0.0000000  0  7G 5G 6G10G30G17G24G26
  23970266.1484    9428331.81845   7268348.36043                  23970272.0084
         7.5004          3.2504
  21495834.0084   -5176456.87446  -3976341.75146                  21495836.7274
        17.2504         19.0004
  22789223.7034    5106152.14446   3957352.14345                  22789227.4654
        14.5004         11.5004
  22149510.9064    4299574.83146   3323750.01946                  22149513.6604
        17.5004         18.0004
  22786286.7194   -6063771.39646  -4612047.37745                  22786290.9384
        12.2504         11.0004
  25221124.4064    7801770.66243   5910032.59641                  25221131.6174
         5.2504          1.2504
  24543020.7814   -6689171.02943  -2300523.15142                  24543024.8364
         5.5004          2.2504
 98  6 11 20 24 15.0000000  0  7G 5G 6G10G30G17G24G26
  23980696.4454    9483144.70645   7311059.61344                  23980702.2114
         7.5004          3.5004
  21492466.2194   -5194154.30246  -3990131.94946                  21492468.8444
        17.5004         19.5004
  22796798.7344    5145957.87546   3988369.59445                  22796802.5554
        14.2504         11.7504
  22156802.4304    4337892.17046   3353607.65146                  22156805.2664
        17.2504         18.0004
  22782141.3594   -6085553.33046  -4629020.29745                  22782146.0474
        12.2504         11.0004
  25228755.7814    7841873.72243   5941281.65842                  25228762.9924
         5.2504          1.7504
  24536058.9304   -6725753.86643  -2329029.11642                  24536063.6884
         5.2504          1.5004
 98  6 11 20 24 30.0000000  0  7G 5G 6G10G30G17G24G26
  23991134.8364    9537996.19744   7353800.92343                  23991141.4574
         7.2504          3.2504
  21489111.9144   -5211781.48146  -4003867.41246                  21489114.3404
        17.5004         19.5004
  22804395.9924    5185880.89946   4019478.42145                  22804399.3094
        14.5004         11.2504
  22164117.4774    4376331.81646   3383560.59446                  22164120.4884
        17.2504         18.0004
  22778010.0634   -6107265.20046  -4645938.63245                  22778014.4694
        12.5004         10.7504
  25236386.6724    7881975.15243   5972529.52642                  25236394.3634
         5.2504          1.5004
  24529103.0704   -6762304.69043  -2357510.10942                  24529109.8914
         5.5004          1.7504
 98  6 11 20 24 45.0000000  0  8G 5G 6G13G10G30G17G24G26
  24001579.8444    9592887.35644   7396573.16844                  24001586.3714
         7.2504          3.5004
  21485770.6174   -5229340.02646  -4017549.38546                  21485773.1724
        17.7504         19.5004
  25570558.4614        412.73752
         4.5004
  22812014.8444    5225918.43846   4050676.50145                  22812017.7274
        14.7504         11.0004
  22171455.6804    4414895.79846   3413610.41446                  22171458.3874
        17.0004         17.7504
  22773891.7114   -6128905.97646  -4662801.55945                  22773896.1644
        12.2504         11.0004
  25244017.1724    7922074.69343
         5.0004
  24522153.8674   -6798820.39743  -2385963.81742                  24522160.9734
         5.7504          2.2504
 98  6 11 20 25  0.0000000  0  8G 5G 6G13G10G30G17G24G26
  24012034.3914    9647824.03745   7439380.86343                  24012041.5204
         7.5004          3.2504
  21482442.0864   -5246830.20046  -4031178.09246                  21482444.6994
        17.5004         19.5004
  25571752.4224       6689.50442
         4.7504
  22819655.6024    5266071.94546   4081964.93645                  22819658.8014
        14.7504         11.0004
  22178818.9844    4453589.03846   3443760.95846                  22178821.9494
        17.2504         17.7504
  22769787.9694   -6150473.69746  -4679607.55445                  22769792.1054
        12.7504         11.0004
  25251648.6644    7962175.66443
         5.0004
  24515214.2034   -6835293.76343  -2414384.53042                  24515217.8714
         5.5004          2.2504
 98  6 11 20 25 15.0000000  0  8G 5G 6G13G10G30G17G24G26
  24022497.7114    9702809.97244   7482226.94143                  24022503.7584
         7.0004          3.2504
  21479128.1024   -5264247.82846  -4044750.26346                  21479130.6564
        17.7504         19.5004
  25572973.9144      13100.35842
         4.7504
  22827318.6484    5306340.77846   4113343.23745                  22827321.6954
        14.7504         11.5004
  22186207.1724    4492413.66446   3474013.87646                  22186210.2544
        17.0004         17.5004
  22765697.6804   -6171967.50646  -4696355.96645                  22765701.8874
        13.0004         11.2504
  25259279.8834    8002278.34443
         5.2504
  24508281.4304   -6871720.53643  -2442768.85042                  24508288.3954
         5.5004          1.7504
 98  6 11 20 25 30.0000000  0  8G 5G 6G13G10G30G17G24G26
  24032970.6484    9757845.35144   7525111.54843                  24032977.8954
         7.0004          3.0004
  21475828.0164   -5281589.04046  -4058262.89646                  21475830.5704
        17.5004         19.5004
  25574219.5234      19648.22443
         5.0004
  22835004.1484    5346726.76046   4144812.82545                  22835007.5594
        15.0004         11.0004
  22193620.2034    4531369.70246   3504369.19946                  22193623.6604
        16.7504         17.0004
  22761621.2344   -6193388.99946  -4713048.02245                  22761625.2544
        12.7504         11.7504
  25266911.5234    8042381.85843
         5.2504
  24501359.8054   -6908094.78343  -2471112.29942                  24501365.4414
         5.2504          1.5004
 98  6 11 20 25 45.0000000  0  8G 5G 6G13G10G30G17G24G26
  21645118.2894    9812955.01944   7568054.03843                  21645124.1844
         6.7504          3.2504
  19074201.7424   -5298860.36446  -4071721.06546                  19074204.1214
        17.7504         19.7504
  23177152.4924      26337.63942      1049.02451                  23177159.0904
         4.7504          1.0004
  20444375.9844    5387251.77946   4176390.75345                  20444378.9494
        14.5004         11.5004
  19802722.6414    4570476.89746   3534842.30746                  19802726.0864
        16.7504         17.2504
  20359216.8524   -6214751.17246  -4729693.85245                  20359220.9534
        13.2504         11.7504
  22876207.1334    8082505.90543      4164.05251                  22876212.5124
         5.0004          1.2504
  22096105.4614   -6944432.95543  -2499427.67442                  22096110.4534
         5.5004          1.7504
 98  6 11 20 26  0.0000000  0  8G 5G 6G13G10G30G17G24G26
  21655607.0314    9868079.84744   7611008.34643                  21655612.7384
         6.7504          3.0004
  19070933.3284   -5316036.41046  -4085104.99846                  19070935.7074
        17.7504         19.7504
  23178450.8754      33159.90742      6365.13641                  23178455.7384
         4.7504          1.2504
  20452105.4774    5427871.15046   4208042.20745                  20452108.6294
        14.2504         11.2504
  19810184.8834    4609693.21246   3565400.44346                  19810188.1294
        16.5004         17.2504
  20355167.1174   -6236033.91646  -4746277.79746                  20355171.0084
        13.5004         12.2504
  22883837.2974    8122605.74842     35410.63341                  22883842.7114
         4.5004          1.2504
  22089204.0234   -6980696.52043  -2527684.88242                  22089209.8244
         5.0004          1.5004
 98  6 11 20 26 15.0000000  0  8G 5G 6G13G10G30G17G24G26
  21666105.3204    9923245.39944   7653994.39643                  21666112.3674
         6.7504          2.7504
  19067681.4774   -5333125.72646  -4098421.34046                  19067683.6804
        18.0004         20.0004
  23179774.8284      40116.54942     11785.86541                  23179779.2114
         4.7504          0.7504
  20459856.1724    5468599.04246   4239778.20845                  20459859.8404
        14.5004         11.0004
  19817671.5004    4649034.07446   3596055.62546                  19817674.7584
        16.5004         17.2504
  20351129.4454   -6257251.99046  -4762811.34246                  20351133.0904
        13.7504         12.5004
  22891467.4144    8162700.10943     66652.93842                  22891471.5164
         5.0004          1.5004
  22082313.7034   -7016908.31043  -2555901.77842                  22082318.4024
         5.0004          1.7504
 98  6 11 20 26 30.0000000  0  8G 5G 6G13G10G30G17G24G26
  21676610.9924    9978454.47744   7697014.33643                  21676618.6024
         6.7504          2.7504
  19064447.1954   -5350122.44246  -4111665.53246                  19064449.1644
        18.0004         19.5004
  23181125.4454      47211.80643     17314.64041                  23181129.6884
         5.0004          0.7504
  20467626.8364    5509436.02946   4271599.23045                  20467630.0234
        14.2504         10.7504
  19825181.7734    4688500.36446   3626808.55346                  19825185.1844
        16.5004         17.2504
  20347104.8674   -6278399.86146  -4779290.18746                  20347109.0044
        13.7504         12.0004
  22899097.5554    8202795.48643     97896.09641                  22899105.6564
         5.2504          1.0004
  22075434.0474   -7053063.40743  -2584074.42942                  22075441.1294
         5.0004          1.5004
 98  6 11 20 26 45.0000000  0  8G 5G 6G13G10G30G17G24G26
  21687125.1564   10033704.11644   7740065.89043                  21687130.9804
         6.7504          3.2504
  19061230.0164   -5367027.05546  -4124837.95546                  19061232.1254
        18.0004         19.7504
  23182500.8984      54443.44743     22949.72841                  23182504.5784
         5.0004          1.0004
  20475418.2734    5550379.39046   4303503.14645                  20475421.5904
        14.2504         11.0004
  19832714.5314    4728087.24846   3657655.43846                  19832717.9064
        16.2504         16.7504
  20343093.7664   -6299479.20946  -4795715.63246                  20343097.8914
        13.7504         12.2504
  22906727.2814    8242890.66843    129139.03542                  22906735.2544
         5.0004          1.5004
  22068563.0864   -7089163.48143  -2612204.21142                  22068570.1214
         5.0004          2.0004
 98  6 11 20 27  0.0000000  0  8G 5G 6G13G10G30G17G24G26
  21697645.6254   10088990.34944   7783145.96143                  21697652.1174
         6.7504          3.0004
  19058030.4844   -5383842.58746  -4137940.96246                  19058032.9574
        18.2504         20.0004
  23183902.4064      61808.44443     28688.63241                  23183906.3094
         5.0004          1.2504
  20483229.4454    5591428.19146   4335489.20345                  20483232.4694
        14.2504         10.7504
  19840270.0314    4767791.46646   3688593.75646                  19840273.5234
        16.5004         17.0004
  20339094.5634   -6320493.94246  -4812090.74046                  20339098.4414
        13.5004         12.2504
  22914356.7584    8282986.08243    160382.18041                  22914365.7034
         5.0004          1.0004
  22061704.5704   -7125210.76343  -2640292.92442                  22061710.4184
         5.0004          2.0004
 98  6 11 20 27 15.0000000  0  8G 5G 6G13G10G30G17G24G26
  21708173.8524   10144313.89444   7826255.12343                  21708180.4024
         6.5004          3.0004
  19054848.3594   -5400563.78946  -4150970.47446                  19054850.5744
        18.2504         20.0004
  23185330.0784      69312.12843     34535.75741                  23185329.7504
         5.0004          1.2504
  20491061.5864    5632587.00246   4367561.00145                  20491064.6684
        14.0004         10.5004
  19847847.7504    4807610.93546   3719621.88946                  19847851.2304
        16.7504         16.5004
  20335107.9694   -6341444.20846  -4828415.59546                  20335111.6954
        13.5004         12.2504
  22921987.2664    8323084.19843    191627.46042                  22921990.1374
         5.0004          1.5004
  22054854.6094   -7161206.61043  -2668341.50642                  22054862.5234
         5.0004          1.7504
 98  6 11 20 27 30.0000000  0  8G 5G 6G13G10G30G17G24G26
  21718707.5704   10199668.86044   7869388.75143                  21718714.3674
         6.5004          3.0004
  19051683.7974   -5417194.45346  -4163929.42746                  19051685.6844
        18.2504         20.0004
  23186784.2814      76953.37743     40489.89842                  23186789.6844
         5.0004          1.5004
  20498914.1564    5673851.78046   4399715.36745                  20498917.6954
        14.0004         10.5004
  19855446.3594    4847540.00846   3750735.40946                  19855449.6994
        16.5004         17.2504
  20331131.9774   -6362337.54646  -4844696.10246                  20331135.4104
        14.0004         12.2504
  22929618.8284    8363179.68243    222870.63841                  22929622.9884
         5.0004          0.7504
  22048013.0314   -7197157.17143  -2696354.80342                  22048019.7114
         5.0004          2.0004
 98  6 11 20 27 45.0000000  0  8G 5G 6G13G10G30G17G24G26
  21729248.3594   10255059.44844   7912550.14143                  21729254.5944
         6.7504          3.2504
  19048536.1644   -5433734.22846  -4176817.56146                  19048538.2854
        18.0004         20.2504
  23188266.0084      84734.38943     46553.11941                  23188274.6134
         5.0004          0.7504
  20506786.9844    5715223.01646   4431952.68045                  20506790.3244
        14.0004         10.5004
  19863065.1024    4887580.22046   3781935.53846                  19863068.2544
        16.7504         17.0004
  20327166.9384   -6383171.92646  -4860930.68146                  20327171.0274
        13.2504         12.0004
  22937248.5704    8403278.68243    254116.57742                  22937258.1024
         5.2504          1.5004
  22041180.3834   -7233060.95143  -2724331.66242                  22041186.7234
         5.2504          2.0004
 98  6 11 20 28  0.0000000  0  8G 5G 6G13G10G30G17G24G26
  21739796.7274   10310489.51744   7955742.28543                  21739803.3834
         6.7504          2.5004
  19045405.8284   -5450184.65246  -4189636.07346                  19045408.1844
        18.2504         20.0004
  23189770.7114      92650.15043     52721.18941                  23189776.8524
         5.0004          1.0004
  20514678.2734    5756694.69546   4464268.27345                  20514682.1414
        14.0004         10.5004
  19870705.6414    4927730.40146   3813221.36346                  19870708.7114
        17.0004         17.0004
  20323214.0784   -6403947.29846  -4877119.25946                  20323218.0274
        13.2504         12.0004
  22944880.6094    8443382.68443
         5.2504
  22034355.7034   -7268923.45243  -2752276.33242                  22034361.1174
         5.5004          2.2504
 98  6 11 20 28 15.0000000  0  8G 5G 6G13G10G30G17G24G26
  21750351.7034   10365957.38144   7998963.90543                  21750358.7154
         6.7504          3.0004
  19042291.2034   -5466551.25446  -4202389.26246                  19042293.5004
        18.0004         19.7504
  23191302.2894     100695.26043     58990.17641                  23191306.9064
         5.2504          1.0004
  20522588.4384    5798260.89346   4496657.50045                  20522591.6254
        14.0004         10.2504
  19878365.9694    4967985.71846   3844589.09846                  19878368.8284
        16.5004         16.7504
  20319271.2114   -6424666.28046  -4893263.92246                  20319275.5824
        13.2504         12.2504
  22952511.7894    8483488.24542
         4.5004
  22027538.7194   -7304748.30543  -2780191.72442                  22027545.1994
         5.5004          1.7504
 98  6 11 20 28 30.0000000  0  8G 5G 6G13G10G30G17G24G26
  21760915.1174   10421466.71744   8042217.82043                  21760921.4804
         7.0004          3.0004
  19039192.4534   -5482835.45146  -4215078.24946                  19039194.6914
        18.2504         19.7504
  23192857.1094     108871.03643     65360.90041                  23192863.0394
         5.0004          1.0004
  20530516.6334    5839924.18746   4529122.39645                  20530520.1484
        14.0004         10.5004
  19886046.9304    5008347.70846   3876039.96846                  19886050.1054
        16.7504         16.7504
  20315340.2814   -6445322.69046  -4909359.81046                  20315344.0554
        13.2504         12.0004
  22960144.7194    8523598.90743
         5.0004
  22020729.4694   -7340531.68043  -2808074.75442                  22020734.9414
         5.2504          2.2504
 98  6 11 20 28 45.0000000  0  8G 5G 6G13G10G30G17G24G26
  21771485.6254   10477018.65344   8085504.95143                  21771492.5784
         6.7504          2.7504
  19036108.7734   -5499040.11446  -4227705.25646                  19036111.1994
        18.2504         19.5004
  23194437.3754     117173.26442     71830.20441                  23194443.1884
         4.5004          1.2504
  20538463.3834    5881684.14646   4561662.62945                  20538466.8524
        14.0004         10.2504
  19893747.2194    5048813.65946   3907571.82646                  19893750.2774
        16.7504         17.0004
  20311420.4694   -6465920.75146  -4925410.23246                  20311424.5594
        13.2504         12.0004
  22967778.3204    8563709.33843      2081.30751                  22967784.8484
         5.0004          1.2504
  22013927.4454   -7376276.11643  -2835927.41342                  22013934.1134
         5.2504          2.2504
 98  6 11 20 29  0.0000000  0  8G 5G 6G13G10G30G17G24G26
  21782064.8134   10532615.85844   8128827.30743                  21782071.0944
         7.0004          3.0004
  19033041.3284   -5515161.32546  -4240267.23846                  19033043.6484
        18.2504         19.5004
  23196043.1954     125603.42743     78399.15541                  23196046.5004
         5.0004          1.0004
  20546429.0004    5923543.65146   4594280.40745                  20546432.2704
        13.7504         10.2504
  19901468.5084    5089388.28646   3939188.38646                  19901471.6024
        16.5004         16.5004
  20307512.0234   -6486458.90146  -4941413.97846                  20307516.3014
        13.0004         12.0004
  22975409.9144    8603819.92742     33336.16641                  22975414.0514
         4.5004          1.2504
  22007132.6334   -7411978.61643  -2863747.44742                  22007138.7504
         5.2504          1.7504
 98  6 11 20 29 15.0000000  0  8G 5G 6G13G10G30G17G24G26
  21792654.3914   10588256.02744   8172183.16443                  21792659.9924
         7.0004          3.0004
  19029989.5394   -5531197.86546  -4252763.24546                  19029991.8364
        18.2504         19.5004
  23197670.4064     134158.90943     85065.74942                  23197672.7504
         5.0004          1.5004
  20554413.2974    5965500.58246   4626974.11445                  20554416.6134
        14.2504         10.0004
  19909209.9144    5130071.20446   3970889.31446                  19909213.1484
        16.5004         16.7504
  20303615.5864   -6506937.51746  -4957371.32245                  20303619.5704
        13.2504         11.5004
  22983041.8134    8643926.30442     64587.90041                  22983046.7814
         4.5004          1.0004
  22000346.8054   -7447641.04443  -2891536.21842                  22000354.0394
         5.5004          2.0004
 98  6 11 20 29 30.0000000  0  8G 5G 6G13G10G30G17G24G26
  21803249.1804   10643935.42644   8215569.60543                  21803254.3834
         7.0004          3.0004
  19026952.7274   -5547155.11546  -4265197.46146                  19026954.9064
        18.2504         19.7504
  23199321.0394     142834.96342     91826.29941                  23199323.5824
         4.7504          1.0004
  20562414.5314    6007548.34246   4659738.60545                  20562418.1524
        14.0004         10.0004
  19916971.9384    5170860.42446   4002673.08046                  19916975.2424
        16.5004         16.7504
  20299729.5864   -6527357.47046  -4973282.96946                  20299733.5704
        13.0004         12.0004
  22990673.2664    8684023.41842     95832.32941                  22990684.1564
         4.7504          1.0004
  21993567.2814   -7483262.61243  -2919293.20442                  21993573.4104
         5.7504          1.5004
 98  6 11 20 29 45.0000000  0  8G 5G 6G13G10G30G17G24G26
  21813854.1024   10699657.62444   8258989.42343                  21813861.3714
         7.2504          3.0004
  19023931.9384   -5563030.98646  -4277568.26346                  19023934.0704
        18.5004         19.7504
  23200996.1484     151636.70042     98684.89842                  23201000.6724
         4.7504          1.5004
  20570433.7194    6049690.46346   4692576.60845                  20570437.1994
        14.0004         10.2504
  19924755.9304    5211763.69446   4034545.72046                  19924759.0594
        16.5004         17.0004
  20295856.1094   -6547711.86546  -4989143.52246                  20295860.4924
        13.0004         12.2504
  22998302.2034    8724116.86242    127073.95642                  22998306.5514
         4.7504          1.5004
  21986798.9774   -7518835.78343  -2947012.42343                  21986807.1374
         5.7504          2.5004
 98  6 11 20 30  0.0000000  0  8G 5G 6G13G10G30G17G24G26
  21824464.3674   10755418.32144   8302439.15943                  21824472.3634
         7.0004          3.2504
  19020925.7584   -5578827.54146  -4289877.27246                  19020927.8914
        18.2504         19.7504
  23202694.5864     160561.29042    105639.21041                  23202696.1094
         4.7504          1.2504
  20578470.6484    6091924.35446   4725486.11645                  20578474.2234
        14.0004         10.5004
  19932560.4774    5252777.76946   4066504.70146                  19932563.6764
        16.7504         16.7504
  20291995.2504   -6567999.72346  -5004952.23245                  20291999.7034
        13.0004         11.5004
  23005931.3674    8764204.72442    158311.20941                  23005939.5634
         4.7504          1.2504
  21980037.7194   -7554365.04943  -2974697.46142                  21980043.6724
         5.7504          2.2504
 98  6 11 20 30 15.0000000  0  8G 5G 6G13G10G30G17G24G26
  21835082.8204   10811215.70344   8345917.54343                  21835089.8444
         7.0004          3.2504
  19017935.7814   -5594540.24246  -4302120.93746                  19017938.0204
        18.2504         19.7504
  23204416.0864     169613.33242    112692.64941                  23204418.6524
         4.7504          1.2504
  20586526.6024    6134257.32846   4758472.83645                  20586529.9304
        14.0004         10.2504
  19940386.8204    5293904.92646   4098551.80346                  19940389.8204
        17.0004         17.0004
  20288148.3284   -6588218.35346  -5020707.00845                  20288152.8634
        13.0004         11.7504
  23013559.1024    8804286.32942    189543.53942                  23013563.5084
         4.7504          1.7504
  21973285.7504   -7589846.39143  -3002345.14543                  21973290.7544
         6.0004          2.5004
 98  6 11 20 30 30.0000000  0  8G 5G 6G13G10G30G17G24G26
  21845706.4844   10867046.48544   8389421.95543                  21845713.3444
         7.0004          3.0004
  19014961.8134   -5610169.44646  -4314299.53146                  19014963.9224
        18.5004         19.7504
  23206164.6564     178795.47343    119847.55341                  23206168.3244
         5.0004          1.2504
  20594601.3204    6176691.56646   4791538.47645                  20594605.0944
        14.0004         10.5004
  19948234.1414    5335143.68646   4130685.86846                  19948237.1884
        16.7504         16.7504
  20284313.7814   -6608368.00546  -5036408.02345                  20284317.9064
        13.0004         11.7504
  23021184.0234    8844359.99042    220769.75941                  23021192.2664
         4.7504          1.2504
  21966544.2974   -7625277.17643  -3029953.49243                  21966549.7234
         6.0004          2.5004
 98  6 11 20 30 45.0000000  0  8G 5G 6G13G10G30G17G24G26
  21856335.8754   10922907.81344   8432950.12843                  21856342.6254
         7.0004          3.0004
  19012003.1174   -5625717.48646  -4326414.89146                  19012005.1804
        18.2504         19.2504
  23207936.4534     188106.85143    127103.24941                  23207939.3484
         5.0004          1.2504
  20602695.4304    6219227.06546   4824682.99945                  20602699.0864
        13.7504         10.2504
  19956103.1024    5376494.24446   4162907.03846                  19956106.0204
        16.5004         16.7504
  20280491.6724   -6628451.76746  -5052057.69445                  20280495.5044
        13.0004         11.7504
  23028807.8754    8884422.93443    251987.52341                  23028814.1454
         5.0004          1.2504
  21959809.9224   -7660660.51743  -3057524.78242                  21959817.3554
         6.0004          2.2504
 98  6 11 20 31  0.0000000  0  8G 5G 6G13G10G30G17G24G26
  21866972.6954   10978800.49944   8476502.75143                  21866979.1994
         6.7504          2.7504
  19009060.4614   -5641180.86946  -4338464.28246                  19009062.4184
        18.0004         19.5004
  23209733.8754     197553.77243    134464.45441                  23209737.7304
         5.0004          1.0004
  20610810.1954    6261868.72846   4857910.26945                  20610813.5124
        13.7504         10.7504
  19963993.7814    5417960.27546   4195218.20046                  19963996.5824
        16.5004         16.7504
  20276683.3984   -6648465.46446  -5067652.78046                  20276687.1484
        12.7504         12.0004
  23036430.5164    8924480.43243    283201.16941                  23036435.5664
         5.2504          1.0004
  21953086.4144   -7695990.21843  -3085054.31443                  21953092.4844
         6.0004          2.5004
 98  6 11 20 31 15.0000000  0  8G 5G 6G13G10G30G17G24G26
  21877614.4924   11034720.77244   8520076.86443                  21877621.0904
         6.7504          3.0004
  19006133.0944   -5656563.26246  -4350450.56546                  19006135.1804
        18.0004         19.2504
  23211558.5554     207137.25843    141932.14341                  23211565.5434
         5.0004          1.0004
  20618944.2114    6304613.17046   4891217.60745                  20618948.0084
        14.0004         10.2504
  19971906.2504    5459540.76946   4227618.54546                  19971909.2154
        16.5004         16.7504
  20272888.1884   -6668407.84846  -5083192.28746                  20272892.2424
        13.0004         12.2504
  23044052.5704    8964533.88342    314411.58841                  23044056.8594
         4.7504          1.2504
  21946374.5234   -7731265.59743  -3112541.53042                  21946379.7504
         6.0004          2.2504
 98  6 11 20 31 30.0000000  0  8G 5G 6G13G10G30G17G24G26
  21888261.7734   11090672.59544   8563675.56743                  21888267.6564
         6.7504          2.7504
  19003221.7194   -5671864.17846  -4362373.35446                  19003223.9344
        18.0004         19.2504
  23213408.5704     216861.34442    149509.35442                  23213409.1214
         4.5004          1.5004
  20627098.1644    6347463.39546   4924607.38645                  20627101.4224
        14.0004         10.2504
  19979840.6334    5501234.65046   4260107.24446                  19979843.8444
        16.5004         16.5004
  20269107.3834   -6688276.92646  -5098674.68146                  20269111.2274
        13.0004         12.0004
  23051674.1884    9004587.07242    345621.81341                  23051679.2154
         4.7504          1.0004
  21939672.3754   -7766484.93843  -3139985.06042                  21939680.2774
         6.0004          2.0004
 98  6 11 20 31 45.0000000  0  8G 5G 6G13G10G30G17G24G26
  21898914.9384   11146654.66544   8607297.83943                  21898921.2194
         6.7504          2.7504
  19000325.2814   -5687083.61046  -4374232.64946                  19000327.5204
        18.0004         19.0004
  23215284.5554     226726.31442    157196.28941                  23215284.4264
         4.7504          1.0004
  20635272.1884    6390417.94246   4958078.44545                  20635275.1054
        14.0004         10.7504
  19987795.2274    5543037.75946   4292681.05146                  19987798.5084
        16.7504         16.5004
  20265339.4224   -6708077.72346  -5114103.86346                  20265343.2074
        13.0004         12.2504
  23059295.5474    9044638.50143    376830.71942                  23059302.0044
         5.0004          1.5004
  21932979.6414   -7801652.71843  -3167388.43043                  21932986.8984
         6.0004          2.5004
 98  6 11 20 32  0.0000000  0  8G 5G 6G13G10G30G17G24G26
  21909572.9534   11202666.65244   8650943.42143                  21909579.5164
         6.7504          2.7504
  18997445.2274   -5702218.77546  -4386026.28146                  18997447.4064
        17.7504         19.0004
  23217188.8594     236730.02542    164991.50741                  23217193.7464
         4.7504          1.0004
  20643465.9694    6433475.23046   4991629.57245                  20643469.4494
        14.0004         10.2504
  19995769.9534    5584945.33646   4325336.26446                  19995773.2234
        16.5004         16.0004
  20261583.9384   -6727813.36746  -5129482.28046                  20261588.2384
        13.2504         12.2504
  23066916.9694    9084687.36743    408037.54341                  23066921.7504
         5.2504          1.2504
  21926296.9844   -7836774.36343  -3194755.83942                  21926302.3524
         6.0004          2.2504
 98  6 11 20 32 15.0000000  0  8G 5G 6G13G10G30G17G24G26
  21920238.4614   11258709.08144   8694612.71742                  21920244.0164
         6.7504          2.2504
  18994581.2814   -5717268.72946  -4397753.52446                  18994583.7664
        17.7504         18.5004
  23219118.9844     246868.73343    172891.75441                  23219124.2584
         5.0004          1.0004
  20651678.4064    6476632.90646   5025258.91445                  20651681.5594
        13.7504         10.0004
  20003764.2584    5626954.74246   4358070.83246                  20003767.3054
        16.5004         16.5004
  20257840.9144   -6747485.04946  -5144810.84946                  20257844.9104
        13.0004         12.0004
  23074537.9224    9124733.14043    439241.99641                  23074545.1684
         5.0004          1.2504
  21919621.5234   -7871847.76243  -3222085.65142                  21919627.6174
         6.0004          2.0004
 98  6 11 20 32 30.0000000  0  8G 5G 6G13G10G30G17G24G26
  21930908.6024   11314781.24444   8738305.21443                  21930914.9654
         6.7504          2.7504
  18991732.5474   -5732238.11546  -4409417.98046                  18991734.8674
        17.7504         19.0004
  23221071.9534     257137.71942    180893.54741                  23221077.1804
         4.7504          1.0004
  20659908.9774    6519884.56346   5058961.48945                  20659912.5044
        13.7504          9.2504
  20011776.9144    5669062.68946   4390882.17346                  20011780.1024
        16.5004         16.0004
  20254108.1484   -6767097.47946  -5160093.26046                  20254112.1214
        13.0004         12.2504
  23082156.9144    9164771.37243    470440.62741                  23082162.5634
         5.0004          1.0004
  21912957.6644   -7906871.24544  -3249376.59242                  21912964.5084
         6.2504          2.2504
 98  6 11 20 32 45.0000000  0  8G 5G 6G13G10G30G17G24G26
  21941584.4454   11370887.70144   8782024.37243                  21941590.7734
         6.5004          2.5004
  18988899.7114   -5747125.61846  -4421018.63546                  18988902.0554
        17.2504         18.5004
  23223052.3674     267542.59742    189001.29341                  23223056.9264
         4.7504          0.7504
  20668157.7344    6563231.35646   5092738.19645                  20668160.8634
        13.5004          9.7504
  20019810.3204    5711276.25246   4423775.82146                  20019813.2734
        16.7504         16.5004
  20250388.6254   -6786645.74646  -5175325.66746                  20250392.6564
        13.0004         12.0004
  23089775.0784    9204807.59143    501637.69641                  23089779.8244
         5.0004          1.0004
  21906303.0004   -7941840.16044  -3276625.02042                  21906310.6564
         6.2504          2.2504
 98  6 11 20 33  0.0000000  0  8G 5G 6G13G10G30G17G24G26
  21952267.8524   11427025.95644   8825768.38543                  21952274.7234
         6.2504          2.7504
  18986081.6644   -5761933.45746  -4432557.21046                  18986084.1954
        17.2504         18.7504
  23225057.7734     278081.25242    197213.20841                  23225060.5864
         4.5004          1.0004
  20676424.1334    6606672.54646   5126588.45845                  20676426.8284
        13.2504          9.5004
  20027862.6564    5753593.13746   4456749.97646                  20027865.9964
        16.2504         15.5004
  20246680.4144   -6806131.49346  -5190509.34646                  20246685.0314
        13.2504         12.0004
  23097394.3524    9244842.40343    532833.52441                  23097401.5864
         5.0004          1.0004
  21899658.5704   -7976756.31743  -3303832.31043                  21899663.9144
         6.0004          2.5004
 98  6 11 20 33 15.0000000  0  8G 5G 6G13G10G30G17G24G26
  21962957.1024   11483196.56644   8869537.54243                  21962963.5474
         6.2504          2.5004
  18983279.7114   -5776657.46746  -4444030.46346                  18983282.1724
        17.2504         19.0004
  23227088.9844     288753.63742    205529.39841                  23227091.0594
         4.7504          1.0004
  20684708.6884    6650206.40046   5160510.93345                  20684711.8984
        13.2504          9.5004
  20035934.9144    5796011.09046   4489802.88546                  20035937.8674
        16.2504         15.7504
  20242983.8364   -6825556.30246  -5205645.56646                  20242988.0904
        12.7504         12.0004
  23105011.8054    9284876.28243    564028.67741                  23105017.9454
         5.0004          1.2504
  21893024.2974   -8011619.41043  -3330998.29442                  21893029.1134
         6.0004          2.2504
 98  6 11 20 33 30.0000000  0  8G 5G 6G13G10G30G17G24G26
  21973651.8364   11539398.03344   8913330.79242                  21973658.5044
         6.2504          2.2504
  18980494.6254   -5791294.45746  -4455435.91546                  18980496.9924
        17.5004         18.2504
  23229144.8524     299557.25742    213947.81141                  23229145.3204
         4.5004          0.7504
  20693009.7584    6693830.69746   5194503.87645                  20693013.4264
        13.2504          9.2504
  20044025.6954    5838529.90946   4522934.38546                  20044028.9534
        16.2504         16.0004
  20239297.9844   -6844925.17846  -5220738.18246                  20239302.0044
        13.0004         12.0004
  23112629.0784    9324906.44143    595220.99041                  23112634.0944
         5.0004          1.2504
  21886399.1094   -8046433.70643  -3358126.19042                  21886405.5204
         6.0004          2.2504
 98  6 11 20 33 45.0000000  0  8G 5G 6G13G10G30G17G24G26
  21984352.2344   11595628.20944   8957146.39243                  21984357.8484
         6.2504          2.7504
  18977726.1254   -5805843.19846  -4466772.59346                  18977728.6914
        17.2504         18.7504
  23231224.0634     310490.82842    222467.43241                  23231222.0354
         4.2504          1.0004
  20701328.5944    6737546.64846   5228568.24045                  20701331.8164
        13.2504          9.2504
  20052136.5394    5881151.05046   4556145.63346                  20052139.6334
        16.0004         16.0004
  20235622.7114   -6864238.24946  -5235787.31846                  20235626.9064
        13.0004         12.0004
  23120245.2814    9364932.01843    626409.71541                  23120253.9224
         5.0004          1.2504
  21879782.9534   -8081199.52444  -3385216.39142                  21879788.1334
         6.2504          2.0004
 98  6 11 20 34  0.0000000  0  8G 5G 6G13G10G30G17G24G26
  21995057.4064   11651884.08443   9000981.99843                  21995066.2814
         6.0004          2.5004
  18974973.9384   -5820305.36746  -4478041.81646                  18974976.5984
        17.2504         18.5004
  23233330.7814     321553.71042    231087.89241                  23233335.8444
         4.2504          1.0004
  20709664.9304    6781352.96146   5262703.01445                  20709667.8834
        13.2504          9.7504
  20060266.5554    5923875.21346   4589437.14546                  20060269.9884
        16.2504         15.5004
  20231958.0474   -6883496.83046  -5250793.99446                  20231962.1604
        12.7504         12.0004
  23127861.8134    9404953.22643    657595.02241                  23127867.2974
         5.0004          1.0004
  21873176.7814   -8115915.75743  -3412267.94942                  21873182.4534
         6.0004          2.2504
 98  6 11 20 34 15.0000000  0  8G 5G 6G13G10G30G17G24G26
  22005767.4064   11708164.87344   9044837.03243                  22005773.6994
         6.2504          2.5004
  18972238.0314   -5834683.48346  -4489245.54546                  18972240.5864
        17.2504         18.2504
  23235459.5474     332745.99142    239809.31041                  23235459.8404
         4.2504          0.7504
  20718018.8834    6825252.42546   5296910.37845                  20718022.3524
        13.7504          9.7504
  20068416.9064    5966705.60046   4622811.42446                  20068420.1414
        15.7504         15.0004
  20228304.6094   -6902697.05546  -5265755.19746                  20228308.7114
        13.0004         12.0004
  23135476.5084    9444970.32243    688777.10041                  23135482.0514
         5.0004          1.2504
  21866581.0004   -8150578.19643  -3439277.52742                  21866587.7384
         6.0004          2.2504
 98  6 11 20 34 30.0000000  0  8G 5G 6G13G10G30G17G24G26
  22016482.4064   11764468.66044   9088709.97642                  22016489.7584
         6.2504          2.2504
  18969517.4694   -5848979.98146  -4500385.67546                  18969519.8484
        17.2504         18.2504
  23237614.7814     344068.26042    248631.68341                  23237618.8014
         4.5004          1.0004
  20726390.8204    6869247.97746   5331192.60845                  20726393.8554
        13.7504          9.7504
  20076587.4614    6009642.33546   4656268.58246                  20076590.7304
        15.5004         15.2504
  20224661.8834   -6921839.08146  -5280671.05546                  20224665.8324
        13.0004         12.5004
  23143090.4924    9484981.32742    719954.44841                  23143096.8794
         4.7504          1.0004
  21859995.4454   -8185187.49744  -3466245.75043                  21860001.0824
         6.2504          2.5004
 98  6 11 20 34 45.0000000  0  8G 5G 6G13G10G30G17G24G26
  22027200.0004   11820793.14944   9132599.06143                  22027205.7664
         6.2504          2.5004
  18966812.6484   -5863193.75946  -4511461.34346                  18966815.2504
        17.2504         18.2504
  23239794.8984     355523.08842    257557.54241                  23239794.3134
         4.5004          1.2504
  20734781.7584    6913341.99046   5365551.55945                  20734784.6054
        14.0004          9.7504
  20084778.5634    6052687.20746   4689810.00046                  20084781.7854
        15.5004         15.2504
  20221029.9304   -6940922.72246  -5295541.41246                  20221034.1374
        13.0004         12.2504
  23150703.4304    9524985.19543    751126.23041                  23150711.0044
         5.0004          1.2504
  21853417.4384   -8219747.30944  -3493175.34643                  21853424.9414
         6.2504          2.7504
 98  6 11 20 35  0.0000000  0  8G 5G 6G13G10G30G17G24G26
  22037922.1884   11877137.06744   9176503.31343                  22037928.8794
         6.2504          2.7504
  18964124.1254   -5877321.45446  -4522469.93746                  18964126.5984
        17.2504         18.7504
  23241999.7504     367109.78942    266586.12641                  23242002.0594
         4.5004          1.0004
  20743191.8984    6957537.45346   5399989.58145                  20743194.8754
        14.0004          9.7504
  20092990.4844    6095841.03746   4723436.31646                  20092993.3914
        15.5004         15.0004
  20217409.9304   -6959948.97746  -5310367.05446                  20217413.9614
        13.2504         12.5004
  23158314.0944    9564983.27843    782293.61242                  23158319.4264
         5.0004          1.5004
  21846850.5554   -8254260.53744  -3520068.67943                  21846855.6054
         6.5004          2.5004
 98  6 11 20 35 15.0000000  0  8G 5G 6G13G10G30G17G24G26
  22048647.5784   11933500.05344   9220422.38443                  22048654.2934
         6.2504          2.5004
  18961452.8444   -5891359.70146  -4533408.82646                  18961455.2234
        17.5004         18.5004
  23244228.7424     378824.21442    275714.23441                  23244232.1414
         4.7504          0.5004
  20751620.3984    7001831.85846   5434504.68445                  20751623.6334
        14.0004          9.2504
  20101222.4064    6139099.73446   4757144.34946                  20101225.8054
        15.5004         14.7504
  20213799.2114   -6978922.89946  -5325151.91246                  20213803.5234
        13.0004         12.5004
  23165924.3594    9604970.21842    813452.16741                  23165931.7814
         4.7504          1.0004
  21840291.3914   -8288729.24544  -3546927.37843                  21840298.2854
         6.5004          3.0004
 98  6 11 20 35 30.0000000  0  8G 5G 6G13G10G30G17G24G26
  22059377.3984   11989882.61844   9264356.68243                  22059383.4804
         6.2504          2.5004
  18958798.7274   -5905307.48346  -4544277.22646                  18958800.9884
        17.2504         19.0004
  23246480.8984     390667.82742    284943.02541                  23246483.3834
         4.5004          1.0004
  20760068.3204    7046224.20946   5469096.11945                  20760071.3914
        14.0004          9.7504
  20109474.6884    6182465.81046   4790936.05846                  20109478.2504
        15.2504         14.7504
  20210199.2194   -6997842.87746  -5339894.74746                  20210203.3674
        13.2504         12.5004
  23173530.7814    9644944.87142    844601.10941                  23173537.5314
         4.7504          1.0004
  21833741.3134   -8323149.54444  -3573748.31943                  21833747.0784
         6.5004          2.5004
 98  6 11 20 35 45.0000000  0  8G 5G 6G13G10G30G17G24G26
  22070110.5004   12046286.74044   9308307.87143                  22070116.2304
         6.5004          2.5004
  18956161.0234   -5919168.30446  -4555077.86746                  18956163.3794
        17.5004         18.5004
  23248760.8834     402641.98042    294273.45941                  23248765.7584
         4.5004          1.2504
  20768535.2974    7090717.44646   5503766.15445                  20768538.7424
        14.0004          9.7504
  20117747.7274    6225940.98546   4824812.77346                  20117751.2544
        15.2504         14.7504
  20206609.8364   -7016704.43746  -5354592.05946                  20206614.2664
        13.0004         12.7504
  23181135.9144    9684908.43642    875741.58541                  23181142.8094
         4.7504          1.0004
  21827200.8984   -8357517.39944  -3600528.35943                  21827208.0634
         6.2504          2.5004
 98  6 11 20 36  0.0000000  0  8G 5G 6G13G10G30G17G24G26
  22080849.0554   12102716.44744   9352278.92043                  22080858.6684
         6.5004          2.7504
  18953539.8914   -5932942.69746  -4565811.16146                  18953542.0944
        17.7504         19.0004
  23251062.4614     414748.17542    303706.91541                  23251064.2304
         4.2504          1.0004
  20777021.5234    7135312.41546   5538515.46545                  20777024.6994
        14.0004         10.2504
  20126041.2894    6269522.66046   4858772.47846                  20126045.1334
        15.0004         14.5004
  20203032.0394   -7035505.54446  -5369242.26146                  20203036.5744
        13.2504         12.7504
  23188738.9844    9724862.00242    906874.17341                  23188744.2584
         4.7504          1.0004
  21820671.9614   -8391829.85044  -3627265.25843                  21820679.1954
         6.5004          2.7504
 98  6 11 20 36 15.0000000  0  8G 5G 6G13G10G30G17G24G26
  22091592.0704   12159169.45844   9396268.11643                  22091597.5554
         6.2504          2.5004
  18950934.4064   -5946634.92446  -4576480.42646                  18950936.7154
        17.7504         19.0004
  23253392.4694     426979.12442    313237.47041                  23253399.7974
         4.5004          1.0004
  20785525.2974    7180002.05946   5573338.55345                  20785528.4614
        14.0004          9.7504
  20134353.3984    6313203.94146   4892809.79346                  20134356.8554
        15.7504         14.5004
  20199464.6954   -7054250.84546  -5383848.97546                  20199468.5744
        13.5004         12.7504
  23196339.1954    9764799.56342    937994.26741                  23196342.3244
         4.7504          1.0004
  21814152.7504   -8426089.97944  -3653961.39343                  21814160.1254
         6.2504          2.5004
 98  6 11 20 36 30.0000000  0  8G 5G 6G13G10G30G17G24G26
  22102338.6414   12215645.56444   9440275.38143                  22102345.1094
         6.2504          2.5004
  18948344.4384   -5960244.26446  -4587085.10846                  18948346.6764
        17.7504         19.2504
  23255742.3204     439333.56242    322864.29541                  23255742.4144
         4.2504          1.0004
  20794047.4694    7224784.87646   5608234.24145                  20794051.0554
        13.7504          9.5004
  20142684.8444    6356984.80946   4926924.71346                  20142688.4534
        15.5004         14.7504
  20195908.3754   -7072940.22446  -5398412.12746                  20195912.3594
        13.5004         13.0004
  23203936.0234    9804723.75243    969104.06141                  23203942.0474
         5.0004          1.2504
  21807643.1724   -8460297.02944  -3680616.20643                  21807649.0664
         6.2504          2.7504
 98  6 11 20 36 45.0000000  0  8G 5G 6G13G10G30G17G24G26
  22113090.7114   12272145.52743   9484301.19543                  22113097.1214
         6.0004          2.5004
  18945770.7194   -5973769.51646  -4597624.26446                  18945773.1564
        18.0004         19.7504
  23258117.9064     451813.23042    332588.82141                  23258121.6214
         4.5004          1.0004
  20802585.8134    7269655.55446   5643198.38945                  20802589.2584
        14.0004          9.7504
  20151034.6414    6400863.43246   4961115.80546                  20151038.1684
        15.5004         14.7504
  20192362.0234   -7091575.70646  -5412933.26446                  20192366.0904
        13.7504         13.2504
  23211531.6254    9844635.54342   1000204.10441                  23211532.8554
         4.7504          0.7504
  21801143.0314   -8494449.97344  -3707228.80443                  21801148.7624
         6.5004          2.7504
 98  6 11 20 37  0.0000000  0  8G 5G 6G13G10G30G17G24G26
  22123846.2344   12328670.45243   9528346.42942                  22123850.3594
         6.0004          2.2504
  18943213.7584   -5987207.36346  -4608095.31846                  18943216.0204
        18.0004         19.0004
  23260517.1644     464420.18842    342412.34941                  23260522.4384
         4.7504          1.2504
  20811140.9694    7314612.16346   5678229.50545                  20811144.5434
        13.7504          9.5004
  20159403.6254    6444842.38546   4995385.08046                  20159407.0594
        15.5004         14.7504
  20188826.3754   -7110156.06946  -5427411.46646                  20188829.9614
        13.7504         13.2504
  23219124.3204    9884538.50242   1031297.27441                  23219132.5044
         4.2504          0.7504
  21794655.3984   -8528543.17644  -3733794.86043                  21794659.5234
         6.7504          2.7504
 98  6 11 20 37 15.0000000  0  8G 5G 6G13G10G30G17G24G26
  22134607.5394   12385218.37844   9572409.63543                  22134614.6564
         6.2504          2.5004
  18940672.5944   -6000561.05646  -4618500.79046                  18940674.8794
        18.0004         19.7504
  23262939.8364     477151.79242    352333.01241                  23262940.3524
         4.5004          1.2504
  20819711.4064    7359650.82446   5713324.55745                  20819714.4774
        13.7504          9.5004
  20167790.6024    6488914.53346   5029726.97246                  20167794.1294
        15.7504         14.5004
  20185300.7504   -7128683.43146  -5441848.35246                  20185304.6524
        13.7504         13.5004
  23226715.9694    9924430.69542   1062382.08041                  23226721.1484
         4.2504          0.5004
  21788180.1334   -8562574.71444  -3760312.87043                  21788187.6024
         6.5004          2.5004
 98  6 11 20 37 30.0000000  0  8G 5G 6G13G10G30G17G24G26
  22145372.5084   12441788.85843   9616490.40042                  22145379.6254
         6.0004          2.0004
  18938147.1804   -6013832.34846  -4628842.05646                  18938149.4654
        18.0004         19.5004
  23265385.6174     490008.66442    362351.42041                  23265390.1294
         4.5004          1.0004
  20828297.3984    7404769.87946   5748482.24245                  20828300.5044
        13.5004          9.5004
  20176194.2814    6533078.15146   5064140.13446                  20176197.5394
        15.5004         14.2504
  20181785.6334   -7147154.67546  -5456241.52946                  20181789.9344
        13.5004         13.2504
  23234305.3984    9964313.06242   1093459.13241                  23234314.5204
         4.5004          0.7504
  21781716.7424   -8596542.09944  -3786780.91043                  21781723.0354
         7.0004          2.7504
 98  6 11 20 37 45.0000000  0  8G 5G 6G13G10G30G17G24G26
  22156142.5554   12498380.38243   9660587.56742                  22156149.0704
         6.0004          2.2504
  18935636.7194   -6027023.29146  -4639120.70646                  18935638.9804
        18.0004         19.2504
  23267856.3834     502990.94042    372467.43541                  23267861.1294
         4.2504          1.0004
  20836898.7114    7449969.36146   5783702.60845                  20836901.9804
        13.7504          9.2504
  20184615.4614    6577331.77746   5098623.44346                  20184618.8014
        15.2504         14.2504
  20178281.8914   -7165566.85446  -5470588.66846                  20178285.7584
        13.7504         13.5004
  23241893.3204   10004188.25042   1124530.77541                  23241899.3674
         4.5004          0.7504
  21775263.8284   -8630447.88244  -3813200.90743                  21775271.1334
         7.2504          2.7504
 98  6 11 20 38  0.0000000  0  8G 5G 6G13G10G30G17G24G26
  22166914.5944   12554992.40843   9704700.66042                  22166920.3244
         6.0004          2.0004
  18933142.1334   -6040133.17146  -4649336.20146                  18933144.3364
        18.0004         19.2504
  23270350.5084     516098.66142    382681.31541                  23270357.4614
         4.2504          1.2504
  20845514.7274    7495246.47246   5818983.45645                  20845517.8554
        13.2504          9.0004
  20193053.5864    6621673.20246   5133175.16046                  20193056.7034
        15.2504         14.2504
  20174789.0234   -7183920.60046  -5484890.27746                  20174792.7034
        13.7504         13.2504
  23249480.0554   10044054.54242   1155595.30941                  23249480.4884
         4.2504          0.7504
  21768822.8674   -8664295.34244  -3839575.52443                  21768829.0204
         7.0004          3.2504
 98  6 11 20 38 15.0000000  0  8G 5G 6G13G10G30G17G24G26
  22177690.8134   12611621.99643   9748827.52242                  22177698.7384
         6.0004          2.0004
  18930664.0784   -6053156.45746  -4659484.21646                  18930666.1054
        18.2504         19.5004
  23272869.2734     529332.13342    392993.05741                  23272878.8524
         4.5004          0.5004
  20854145.0314    7540599.09046   5854323.15045                  20854148.2074
        13.7504          9.0004
  20201508.3984    6666104.45946   5167796.87146                  20201511.5634
        15.0004         13.7504
  20171307.8524   -7202216.65846  -5499146.94146                  20171312.0704
        13.7504         13.5004
  23257063.9534   10083912.14642   1186653.10841                  23257065.7584
         3.7504          0.7504
  21762393.5394   -8698081.22744  -3865902.13943                  21762396.5274
         7.2504          3.0004
 98  6 11 20 38 30.0000000  0  8G 5G 6G13G10G30G17G24G26
  22188469.9614   12668264.33143   9792964.26942                  22188477.6884
         5.7504          2.0004
  18928202.3914   -6066093.10346  -4669564.72046                  18928204.7704
        18.0004         19.5004
  23275410.9774     542692.01042    403403.48241                  23275412.5824
         4.2504          1.0004
  20862789.6724    7586027.61146   5889721.99145                  20862793.1994
        13.2504          9.0004
  20209980.7894    6710627.00246   5202489.71446                  20209984.3874
        15.2504         13.7504
  20167836.7894   -7220455.19746  -5513358.78246                  20167841.1604
        13.7504         13.5004
  23264647.3364   10123762.84942   1217705.58441                  23264651.7194
         3.7504          0.7504
  21755976.5004   -8731806.66044  -3892181.62543                  21755981.9844
         7.2504          2.5004
 98  6 11 20 38 45.0000000  0  8G 5G 6G13G10G30G17G24G26
  22199250.2114   12724918.62943   9837110.30942                  22199256.2704
         6.0004          2.0004
  18925757.4694   -6078941.88946  -4679576.75746                  18925759.6844
        18.0004         19.2504
  23277977.1954     556180.73642    413914.09841                  23277984.8524
         4.0004          0.5004
  20871449.3594    7631534.13346   5925181.59745                  20871452.9694
        13.2504          9.0004
  20218471.0164    6755240.54646   5237253.46946                  20218474.3324
        15.5004         13.5004
  20164377.4844   -7238636.68946  -5527526.16346                  20164381.7624
        13.7504         13.5004
  23272228.4224   10163604.29141   1248750.83541                  23272239.3484
         3.5004          1.0004
  21749569.5234   -8765472.53844  -3918414.72343                  21749574.7974
         7.0004          2.5004
 98  6 11 20 39  0.0000000  0  8G 5G 6G13G10G30G17G24G26
  22210034.5784   12781584.24243   9881265.18242                  22210041.9654
         5.7504          2.2504
  18923328.7974   -6091703.53546  -4689520.89846                  18923331.2584
        18.0004         19.2504
  23280569.0164     569797.01842    424524.17841                  23280574.5234
         4.2504          0.5004
  20880123.7734    7677119.16946   5960702.40045                  20880127.7234
        13.2504          8.5004
  20226977.2034    6799943.56646   5272086.94646                  20226980.1914
        15.5004         13.7504
  20160928.2344   -7256761.30846  -5541649.23346                  20160932.4534
        14.0004         13.5004
  23279806.1254   10203429.19842   1279783.01241                  23279813.7344
         3.7504          0.7504
  21743174.0084   -8799081.42744  -3944603.43843                  21743179.5274
         7.0004          2.5004
 98  6 11 20 39 15.0000000  0  8G 5G 6G13G10G30G17G24G26
  22220820.0234   12838261.27543   9925428.97442                  22220827.6684
         6.0004          1.7504
  18920916.6484   -6104379.46546  -4699398.25046                  18920918.9344
        18.0004         19.0004
  23283183.4224     583537.87042    435231.33841                  23283188.2974
         4.5004          0.7504
  20888813.3984    7722784.71346   5996285.91645                  20888816.6094
        13.2504          9.0004
  20235500.8594    6844734.30846   5306988.78546                  20235503.8364
        15.2504         13.5004
  20157489.9304   -7274829.73046  -5555728.50846                  20157493.8674
        14.0004         13.2504
  23287382.2114   10243237.16942
         3.7504
  21736789.4064   -8832635.04444  -3970749.04443                  21736795.6054
         7.2504          2.5004
 98  6 11 20 39 30.0000000  0  8G 5G 6G13G10G30G17G24G26
  22231607.8524   12894954.65743   9969605.54342                  22231613.7234
         5.7504          2.0004
  18918520.8834   -6116968.80246  -4709208.12646                  18918523.4494
        18.0004         19.0004
  23285823.3594     597408.62042    446039.70941                  23285828.9264
         4.5004          0.7504
  20897518.8914    7768532.93646   6031933.87445                  20897522.0664
        13.0004          8.7504
  20244041.2034    6889614.73946   5341960.50446                  20244044.3914
        15.5004         13.5004
  20154062.8364   -7292839.25246  -5569761.89146                  20154066.5984
        14.0004         13.7504
  23294953.6334   10283029.80142
         4.0004
  21730414.8134   -8866131.40544  -3996850.06943                  21730422.0004
         6.7504          2.7504
 98  6 11 20 39 45.0000000  0  8G 5G 6G13G10G30G17G24G26
  25240317.2114   12951625.44643  10013764.42042                  25240328.0784
         5.7504          2.0004
  21914067.9304   -6129461.47346  -4718942.67446                  21914070.1454
        17.7504         19.2504
  26286411.7344     611401.38443    456943.11041                  26286416.5984
         5.0004          0.7504
  23904159.0704    7814333.22746   6067622.40045                  23904162.8094
        13.0004          8.2504
  23250518.2274    6934557.05646   5376980.44146                  23250521.1334
        15.5004         13.2504
  23148573.8364   -7310777.83846  -5583739.98846                  23148577.7274
        14.0004         13.7504
  26300444.4144   10322782.04641
         3.5004
  24721979.3444   -8899551.06744  -4022891.30643                  24721984.5824
         6.7504          2.7504
 98  6 11 20 40  0.0000000  0  8G 5G 6G13G10G30G17G24G26
  25251111.1024   13008347.62843  10057963.38942                  25251119.2734
         5.2504          1.7504
  21911706.1254   -6141875.72646  -4728616.12146                  21911708.4104
        18.0004         19.0004
  26289100.3914     625535.03943    467956.33741                  26289104.6564
         5.0004          1.2504
  23912895.8674    7860244.46246   6103397.37345                  23912899.5354
        13.0004          8.5004
  23259093.6884    6979621.35846   5412095.44146                  23259096.3834
        15.5004         13.5004
  23145168.7114   -7328671.71946  -5597683.26946                  23145173.1524
        14.0004         13.7504
  26308010.6954   10362546.69542
         3.7504
  24715625.5164   -8932938.57444  -4048907.50743                  24715632.1844
         6.7504          2.7504
 98  6 11 20 40 15.0000000  0  8G 5G 6G13G10G30G17G24G26
  25261907.5004   13065084.31443  10102173.66942                  25261916.0704
         5.5004          1.7504
  21909360.3754   -6154202.18346  -4738221.15146                  21909362.4734
        18.0004         19.0004
  26291815.4384     639800.42643    479072.24041                  26291823.6334
         5.0004          1.0004
  23921648.6024    7906239.09046   6139237.32445                  23921651.7424
        13.0004          8.0004
  23267687.0164    7024780.23246   5447284.12946                  23267690.3204
        15.5004         13.2504
  23141774.5314   -7346508.98246  -5611582.42046                  23141778.4804
        14.2504         13.7504
  26315575.5084   10402299.04041
         3.5004
  24709284.5474   -8966265.30544  -4074876.34443                  24709290.9694
         7.0004          2.5004
 98  6 11 20 40 30.0000000  0  8G 5G 6G13G10G30G17G24G26
  25272707.5634   13121835.79743  10146395.45842                  25272713.8094
         5.7504          2.0004
  21907030.8054   -6166442.69846  -4747759.21646                  21907033.1954
        18.0004         19.0004
  26294553.2194     654193.69842    490287.81341                  26294557.3674
         4.7504          0.7504
  23930417.2734    7952318.68046   6175143.49645                  23930420.4264
        13.0004          8.2504
  23276298.6254    7070032.94546   5482545.93846                  23276302.0234
        15.5004         13.5004
  23138390.4844   -7364290.68846  -5625438.28446                  23138394.9734
        14.5004         13.7504
  26323137.4694   10442042.73441
         3.5004
  24702953.8984   -8999532.77344  -4100798.99743                  24702958.7504
         7.0004          2.5004
 98  6 11 20 40 45.0000000  0  8G 5G 6G13G10G30G17G24G26
  25283509.4064   13178605.27043  10190631.26142                  25283516.9344
         5.5004          1.7504
  21904717.1414   -6178601.04446  -4757233.25646                  21904719.7074
        17.7504         19.2504
  26297317.5004     668716.04242    501603.89441                  26297317.4654
         4.5004          0.7504
  23939202.0084    7998483.78846   6211116.29245                  23939205.1134
        13.0004          8.2504
  23284927.3364    7115376.47746   5517878.51146                  23284930.5824
        15.2504         13.0004
  23135017.4384   -7382017.15646  -5639251.11246                  23135021.1884
        14.7504         14.2504
  26330699.0474   10481776.77341
         3.5004
  24696633.6094   -9032743.94244  -4126677.76743                  24696639.7034
         7.0004          2.5004
 98  6 11 20 41  0.0000000  0  8G 5G 6G13G10G30G17G24G26
  25294316.1024   13235394.54343  10234882.49342                  25294322.1954
         5.2504          2.2504
  21902419.3754   -6190675.20046  -4766641.68946                  21902421.8244
        17.7504         19.0004
  26300105.5784     683368.96142    513021.74641                  26300108.4384
         4.7504          1.0004
  23948003.1954    8044733.89946   6247155.31845                  23948006.4304
        13.0004          8.7504
  23293572.5634    7160809.85046   5553281.09446                  23293575.9024
        15.2504         12.7504
  23131654.5784   -7399687.92146  -5653020.52146                  23131658.3984
        14.7504         14.0004
  26338259.7814   10521503.77942
         3.7504
  24690325.0314   -9065895.62344  -4152510.20143                  24690331.5944
         6.7504          2.7504
 98  6 11 20 41 15.0000000  0  8G 5G 6G13G10G30G17G24G26
  25305126.8524   13292200.79943  10279146.97042                  25305134.5204
         5.2504          2.0004
  21900137.8444   -6202665.78946  -4775985.00146                  21900140.3404
        18.0004         19.0004
  26302919.9384     698153.27843    524541.97341                  26302920.9574
         5.0004          1.0004
  23956819.4924    8091064.73346   6283257.25645                  23956822.4224
        13.0004          8.0004
  23302235.7034    7206332.09246   5588752.91946                  23302238.6684
        15.2504         12.7504
  23128302.7664   -7417301.66046  -5666745.50146                  23128306.5164
        14.7504         14.2504
  26345818.6484   10561227.18442      6188.39451                  26345821.1564
         3.7504          1.0004
  24684028.1414   -9098987.17544  -4178295.76043                  24684032.6294
         6.7504          2.7504
 98  6 11 20 41 30.0000000  0  8G 5G 6G13G10G30G17G24G26
  25315939.1564   13349023.11843  10323423.93642                  25315946.6374
         5.2504          2.0004
  21897872.5474   -6214571.04646  -4785261.82746                  21897874.9264
        18.2504         19.2504
  26305757.9774     713068.43643    536164.16041                  26305757.9184
         5.7504          1.0004
  23965651.2274    8137475.67846   6319421.61345                  23965654.9654
        12.7504          8.0004
  23310914.8134    7251942.24646   5624293.25646                  23310917.6484
        15.0004         12.7504
  23124962.3754   -7434858.09146  -5680425.82746                  23124966.2774
        14.7504         14.2504
  26353377.2974   10600949.66642     37140.92841                  26353385.6334
         3.7504          0.5004
  24677741.9454   -9132017.42344  -4204033.61443                  24677747.5824
         7.0004          2.7504
 98  6 11 20 41 45.0000000  0  8G 5G 6G13G10G30G17G24G26
  25326754.9774   13405855.34943  10367708.64042                  25326762.3404
         5.0004          1.7504
  21895623.5944   -6226389.25646  -4794470.82146                  21895626.0664
        18.2504         19.2504
  26308620.1804     728110.54143    547885.28841                  26308624.6094
         5.5004          1.2504
  23974498.0394    8183963.41646   6355645.82145                  23974501.1914
        13.0004          8.0004
  23319610.3914    7297637.79146   5659900.13546                  23319613.8714
        15.0004         13.0004
  23121632.1954   -7452356.73046  -5694061.13046                  23121635.8984
        14.5004         14.5004
  26360936.2734   10640669.45242     68091.31641                  26360940.7734
         3.7504          0.7504
  24671468.0474   -9164989.45044  -4229726.02943                  24671473.5314
         6.7504          2.7504
 98  6 11 20 42  0.0000000  0  8G 5G 6G13G10G30G17G24G26
  25337571.2194   13462699.52943  10412002.69542                  25337580.7384
         5.2504          2.2504
  21893392.4064   -6238115.19046  -4803607.91446                  21893394.8324
        18.2504         19.2504
  26311506.3284     743277.09843    559703.44741                  26311507.4304
         5.2504          1.0004
  23983359.5944    8230530.68046   6391931.97945                  23983363.1454
        13.0004          8.2504
  23328323.0234    7343422.29246   5695576.31946                  23328326.2114
        15.2504         12.7504
  23118313.7664   -7469795.33946  -5707649.63446                  23118317.5514
        15.0004         14.7504
  26368494.7114   10680389.43442     99041.91341                  26368497.7814
         4.2504          0.7504
  24665204.8364   -9197899.92544  -4255370.51143                  24665210.5314
         6.5004          2.5004
 98  6 11 20 42 15.0000000  0  8G 5G 6G13G10G30G17G24G26
  25348390.3054   13519554.01743  10456304.73942                  25348400.2814
         5.0004          2.0004
  21891177.8834   -6249751.92646  -4812675.50246                  21891180.1684
        18.2504         19.5004
  26314414.8914     758563.57443    571614.94941                  26314420.2584
         5.2504          1.2504
  23992235.1484    8277174.34846   6428277.68545                  23992238.7234
        13.0004          8.2504
  23337051.7894    7389291.68246   5731318.66146                  23337055.0354
        15.5004         12.5004
  23115006.1884   -7487177.88446  -5721194.47046                  23115010.1604
        14.7504         15.2504
  26376052.4534   10720104.04542    129988.30541                  26376064.2934
         4.2504          0.7504
  24658954.1484   -9230749.90344  -4280967.84743                  24658958.6254
         7.0004          2.5004
 98  6 11 20 42 30.0000000  0  8G 5G 6G13G10G30G17G24G26
  25359211.8754   13576419.39543  10500615.24742                  25359217.3134
         5.0004          2.0004
  21888980.8444   -6261297.18546  -4821671.80746                  21888983.0474
        18.2504         19.2504
  26317346.7424     773970.59343    583620.39141                  26317350.1644
         5.0004          1.0004
  24001125.4304    8323893.14646   6464681.93845                  24001128.3594
        13.0004          8.2504
  23345795.7894    7435242.94946   5767124.79746                  23345799.2934
        15.2504         13.0004
  23111708.7894   -7504505.22346  -5734696.27546                  23111712.9264
        15.0004         15.2504
  26383608.3754   10759812.31942    160929.87641                  26383613.6844
         4.5004          0.7504
  24652713.7974   -9263541.04844  -4306519.30743                  24652719.2704
         7.0004          3.0004
 98  6 11 20 42 45.0000000  0  8G 5G 6G13G10G30G17G24G26
  25370035.2194   13633294.30443  10544933.21842                  25370041.5944
         5.0004          1.7504
  21886800.8284   -6272751.34346  -4830597.12746                  21886802.8324
        18.2504         19.2504
  26320301.7274     789499.64842    595720.93341                  26320303.6484
         4.7504          1.0004
  24010029.3524    8370683.92846   6501142.25145                  24010032.3164
        12.7504          8.2504
  23354554.7814    7481271.70546   5802991.31346                  23354558.1214
        15.0004         12.5004
  23108421.7814   -7521778.42546  -5748155.89646                  23108425.5204
        15.5004         15.2504
  26391163.8674   10799512.17842    191864.68741                  26391166.2814
         4.5004          1.0004
  24646484.3754   -9296278.15044  -4332028.69043                  24646489.5204
         6.7504          2.7504
 98  6 11 20 43  0.0000000  0  8G 5G 6G13G10G30G17G24G26
  25380859.2664   13690175.96342  10589256.44342                  25380866.8984
         4.7504          2.0004
  21884638.7344   -6284113.90446  -4839451.07446                  21884640.5744
        18.2504         19.5004
  26323280.3674     805153.46543    607918.71741                  26323283.6134
         5.0004          1.2504
  24018947.4064    8417546.20946   6537658.30745                  24018951.0274
        12.5004          7.7504
  23363328.8674    7527379.10046   5838919.10046                  23363332.3954
        14.7504         12.7504
  23105144.9924   -7538998.22046  -5761573.90646                  23105148.6254
        15.2504         15.2504
  26398715.5394   10839200.49542    222790.64541                  26398719.6764
         4.5004          0.7504
  24640265.4384   -9328959.09744  -4357494.32143                  24640270.6294
         6.7504          2.7504
 98  6 11 20 43 15.0000000  0  8G 5G 6G13G10G30G17G24G26
  25391683.8834   13747058.75442  10633580.52142                  25391692.9924
         4.5004          1.5004
  21882493.7114   -6295388.02946  -4848236.10746                  21882496.0904
        18.5004         19.5004
  26326281.8674     820925.87142    620208.95741                  26326287.0234
         4.5004          1.2504
  24027877.5864    8464475.85946   6574226.85545                  24027880.7504
        12.2504          7.7504
  23372117.4614    7573562.40646   5874906.05146                  23372121.1884
        14.7504         12.7504
  23101877.6954   -7556168.82946  -5774953.58846                  23101881.5274
        15.0004         15.0004
  26406264.8754   10878871.37342    253702.95141                  26406274.3014
         4.5004          0.5004
  24634055.5234   -9361588.77844  -4382920.00342                  24634060.7034
         6.2504          2.2504
 98  6 11 20 43 30.0000000  0  8G 5G 6G13G10G30G17G24G26
  25402509.6804   13803946.57242  10677908.55042                  25402517.3134
         4.5004          1.5004
  21880365.5394   -6306570.99846  -4856950.11246                  21880367.3914
        18.5004         19.7504
  26329304.6174     836818.47042    632592.70541                  26329307.5004
         4.5004          1.2504
  24036821.1954    8511476.98846   6610851.07945                  24036824.5704
        12.2504          8.0004
  23380921.6024    7619829.15746   5910958.01046                  23380925.2234
        14.7504         13.0004
  23098619.6644   -7573288.33046  -5788293.44946                  23098623.3204
        15.0004         15.2504
  26413810.2034   10918525.14742    284601.98541                  26413823.9534
         4.2504          0.7504
  24627857.8754   -9394162.89444  -4408302.37043                  24627862.7154
         6.7504          2.7504
 98  6 11 20 43 45.0000000  0  8G 5G 6G13G10G30G17G24G26
  25413336.5004   13860841.09942  10722241.74142                  25413347.4144
         4.5004          1.7504
  21878254.6484   -6317662.40846  -4865592.76546                  21878256.6294
        18.5004         19.0004
  26332353.8284     852830.92342    645069.87741                  26332352.2114
         4.5004          0.7504
  24045779.6254    8558551.04646   6647532.14445                  24045782.5554
        12.2504          7.7504
  23389742.1094    7666180.98046   5947076.26846                  23389745.6724
        14.7504         12.7504
  23095370.9384   -7590359.96246  -5801596.00946                  23095374.7344
        14.7504         15.0004
  26421353.4384   10958161.47442    315487.36341                  26421360.1884
         4.5004          1.0004
  24621669.6024   -9426680.41544  -4433640.63443                  24621674.8404
         7.0004          3.0004
 98  6 11 20 44  0.0000000  0  8G 5G 6G13G10G30G17G24G26
  25424164.9304   13917744.09642  10766581.67242                  25424170.6724
         4.5004          1.5004
  21876161.9844   -6328661.78446  -4874163.71546                  21876164.1414
        18.2504         19.2504
  26335423.6484     868965.04342    657642.02541                  26335428.9344
         4.5004          1.0004
  24054751.4304    8605698.90746   6684270.71645                  24054754.6524
        12.5004          8.0004
  23398579.0944    7712619.80346   5983262.31446                  23398582.2344
        14.7504         12.5004
  23092131.5704   -7607383.45246  -5814861.05746                  23092135.5084
        14.7504         14.7504
  26428892.2894   10997781.30742    346359.92741                  26428902.1374
         4.2504          1.0004
  24615492.9454   -9459138.71244  -4458932.74243                  24615498.5944
         6.5004          3.0004
 98  6 11 20 44 15.0000000  0  8G 5G 6G13G10G30G17G24G26
  25434995.2814   13974656.47442  10810928.78242                  25435003.3834
         4.7504          1.7504
  21874085.2274   -6339574.02346  -4882666.75546                  21874087.4184
        18.2504         19.5004
  26338517.3674     885223.60642    670310.97341                  26338523.3324
         4.5004          1.0004
  24063737.4454    8652920.45846   6721066.72145                  24063740.9144
        12.2504          7.7504
  23407432.6094    7759144.30746   6019515.12946                  23407436.3134
        14.7504         12.5004
  23088900.3364   -7624362.56046  -5828091.51246                  23088904.1334
        15.0004         14.7504
  26436428.8284   11037380.75542    377216.58941                  26436430.3284
         4.2504          1.0004
  24609327.3674   -9491537.29844  -4484178.38343                  24609332.2194
         6.5004          2.7504
 98  6 11 20 44 30.0000000  0  8G 5G 6G13G10G30G17G24G26
  25445826.2424   14031576.06842  10855281.56241                  25445832.7344
         4.7504          1.2504
  21872024.4844   -6350402.91746  -4891104.86146                  21872026.7344
        18.2504         19.2504
  26341635.4694     901608.71442    683078.64841                  26341638.3164
         4.2504          0.7504
  24072737.0004    8700215.10446   6757919.66445                  24072740.0704
        12.2504          7.5004
  23416301.7734    7805752.21546   6055832.93146                  23416305.3364
        14.7504         12.5004
  23085677.8834   -7641296.33046  -5841286.65446                  23085681.7624
        15.0004         14.7504
  26443958.1484   11076957.90142    408055.90741                  26443960.5864
         4.0004          1.2504
  24603173.8134   -9523876.66644  -4509377.82442                  24603180.4104
         6.7504          2.2504
 98  6 11 20 44 45.0000000  0  8G 5G 6G13G10G30G17G24G26
  25456658.4384   14088500.31042  10899637.92742                  25456666.4224
         4.7504          1.5004
  21869979.4924   -6361149.71546  -4899478.98446                  21869981.6844
        18.2504         19.2504
  26344778.2734     918119.10543    695943.84141                  26344778.1214
         5.0004          1.2504
  24081751.1414    8747583.41346   6794830.03945                  24081754.6804
        12.2504          7.7504
  23425187.1564    7852445.12446   6092216.97846                  23425191.0124
        14.7504         12.2504
  23082464.5234   -7658184.00846  -5854445.86446                  23082468.1454
        15.0004         14.7504
  26451485.4304   11116513.86041    438878.64641                  26451494.7854
         3.5004          0.5004
  24597030.5554   -9556156.62144  -4534530.93843                  24597037.2814
         6.7504          3.0004
 98  6 11 20 45  0.0000000  0  8G 5G 6G13G10G30G17G24G26
  25467493.1094   14145433.92742  10944001.64342                  25467503.6844
         4.7504          2.0004
  21867950.5394   -6371810.43546  -4907786.04046                  21867952.6844
        18.0004         19.0004
  26347944.1644     934759.05043    708910.08441                  26347949.6374
         5.0004          1.0004
  24090780.0634    8795031.40146   6831802.46045                  24090783.6844
        12.5004          7.5004
  23434090.2274    7899231.03546   6128673.47346                  23434094.1994
        14.5004         12.5004
  23079260.1724   -7675021.64646  -5867566.09046                  23079263.7464
        15.0004         15.2504
  26459010.0164   11156051.57041    469687.25041                  26459022.0314
         3.2504          0.5004
  24590899.9774   -9588370.25844  -4559632.45043                  24590905.8364
         7.2504          2.5004
 98  6 11 20 45 15.0000000  0  8G 5G 6G13G10G30G17G24G26
  25478329.0554   14202373.33442  10988369.85742                  25478337.9414
         4.7504          2.0004
  21865937.5704   -6382389.21146  -4916029.24146                  21865939.6094
        18.0004         19.2504
  26351134.9144     951521.57343    721971.73741                  26351135.0314
         5.2504          1.0004
  24099823.7734    8842555.41946   6868834.14845                  24099827.3714
        12.2504          7.7504
  23443010.4844    7946106.88546   6165200.06846                  23443014.7734
        14.5004         12.0004
  23076065.6954   -7691810.06346  -5880647.95846                  23076069.4574
        15.0004         15.2504
  26466530.8524   11195568.11441
         3.5004
  24584783.7274   -9620516.64544  -4584681.51743                  24584788.9654
         7.2504          3.0004
 98  6 11 20 45 30.0000000  0  8G 5G 6G13G10G30G17G24G26
  25489164.1414   14259317.64342  11032741.87442                  25489173.4264
         4.7504          2.0004
  21863939.7584   -6392887.48746  -4924209.72446                  21863942.0554
        18.0004         19.0004
  26354345.3674     968404.44042    735127.17941                  26354352.1294
         4.5004          1.0004
  24108881.0864    8890151.84545   6905922.25145                  24108884.8364
        11.7504          7.7504
  23451947.2734    7993068.80746   6201793.72846                  23451950.7424
        14.5004         12.5004
  23072880.4534   -7708549.30046  -5893691.51446                  23072884.1334
        15.0004         15.0004
  26474047.6954   11235064.39841
         3.2504
  24578679.0634   -9652595.12545  -4609677.71843                  24578684.0434
         7.5004          3.0004
 98  6 11 20 45 45.0000000  0  8G 5G 6G13G10G30G17G24G26
  25500002.4534   14316268.88242  11077119.29842                  25500011.7974
         4.7504          2.0004
  21861957.8284   -6403302.64546  -4932325.42946                  21861960.1844
        17.7504         18.7504
  26357582.4384     985408.84743    748377.44841                  26357584.1724
         5.0004          1.2504
  24117952.0704    8937819.65946   6943065.98545                  24117956.1254
        12.2504          7.7504
  23460899.4064    8040113.36146   6238451.77846                  23460903.4614
        14.7504         12.2504
  23069705.2664   -7725234.75846  -5906693.15346                  23069709.0274
        15.0004         14.7504
  26481559.5164   11274546.16341
         2.5004
  24572588.5784   -9684602.90245  -4634618.76143                  24572593.2074
         7.7504          3.2504
 98  6 11 20 46  0.0000000  0  8G 5G 6G13G10G30G17G24G26
  25510840.6024   14373226.14142  11121501.42042                  25510848.3634
         4.7504          1.7504
  21859991.9534   -6413634.43046  -4940376.17646                  21859994.5204
        17.7504         18.7504
  26360842.2974    1002536.18343    761723.37141                  26360842.8714
         5.0004          1.0004
  24127036.6254    8985557.93646   6980264.62145                  24127040.5514
        12.2504          8.0004
  23469866.4534    8087235.38246   6275170.19046                  23469870.1914
        14.5004         12.2504
  23066540.6804   -7741863.53446  -5919650.62846                  23066544.5704
        15.0004         14.5004
  26489068.4224   11314016.15141
         2.5004
  24566510.4844   -9716540.08345  -4659504.83244                  24566515.7344
         7.7504          3.5004
 98  6 11 20 46 15.0000000  0  8G 5G 6G13G10G30G17G24G26
  25521680.3524   14430186.33943  11165885.78042                  25521689.2624
         5.0004          1.7504
  21858040.8364   -6423887.31946  -4948365.44046                  21858042.9694
        17.7504         18.7504
  26364123.3364    1019783.58843    775162.87941                  26364125.3634
         5.0004          1.0004
  24136133.7424    9033365.92146   7017517.58945                  24136137.9024
        12.0004          7.7504
  23478847.2114    8134429.88046   6311945.07946                  23478850.7384
        14.7504         12.0004
  23063386.6564   -7758437.75646  -5932565.59146                  23063390.5124
        14.7504         14.5004
  26496578.3524   11353472.37441
         2.7504
  24560446.3754   -9748408.87445  -4684337.59244                  24560451.4384
         8.0004          3.5004
 98  6 11 20 46 30.0000000  0  8G 5G 6G13G10G30G17G24G26
  25532520.3444   14487149.76343  11210272.69442                  25532528.8554
         5.0004          2.0004
  21856105.1884   -6434057.62946  -4956290.36146                  21856107.7304
        17.5004         18.7504
  26367429.5864    1037152.62442    788697.19241                  26367432.7154
         4.7504          1.0004
  24145244.7584    9081244.76146   7054825.74545                  24145248.8014
        12.2504          8.0004
  23487841.7424    8181696.22446   6348775.94746                  23487845.5274
        14.2504         12.0004
  23060243.6254   -7774954.84146  -5945436.03746                  23060247.5044
        14.7504         14.5004
  26504085.2274   11392919.18941
         2.0004
  24554395.8834   -9780207.42445  -4709115.60743                  24554400.1374
         7.7504          3.2504
 98  6 11 20 46 45.0000000  0  8G 5G 6G13G10G30G17G24G26
  24643986.0314   14544125.99043  11254669.62942                  24643993.2664
         5.0004          1.5004
  20954808.4614   -6444145.40746  -4964150.97246                  20954810.9804
        17.7504         18.7504
  25471380.8984    1054643.17042    802326.13941                  25471381.8364
         4.7504          0.7504
  23254993.3914    9129201.45246   7092194.57645                  23254997.3984
        12.2504          7.7504
  22597473.8754    8229042.08346   6385668.76945                  22597477.7424
        14.2504         11.7504
  22157733.0944   -7791419.68746  -5958265.77046                  22157736.8444
        14.5004         14.7504
  25612215.3594   11432368.88541
         2.2504
  23648979.4384   -9811940.99945  -4733843.04044                  23648984.3014
         7.7504          3.5004
 98  6 11 20 47  0.0000000  0  8G 5G 6G13G10G30G17G24G26
  24654825.7814   14601090.19642  11299057.13442                  24654834.8554
         4.7504          1.7504
  20952905.5394   -6454145.78646  -4971943.48246                  20952907.9884
        17.7504         18.5004
  25474730.1954    1072245.10942    816041.92941                  25474727.8754
         4.5004          1.0004
  23264129.6174    9177213.82146   7129606.78945                  23264133.6484
        12.0004          7.7504
  22606494.6724    8276445.77746   6422606.67345                  22606498.3984
        14.2504         11.5004
  22154610.1334   -7807829.83546  -5971052.89246                  22154614.0824
        14.7504         14.7504
  25619718.0554   11471805.44241
         2.0004
  23642954.7034   -9843598.59645  -4758511.24543                  23642960.7974
         7.5004          3.0004
 98  6 11 20 47 15.0000000  0  8G 5G 6G13G10G30G17G24G26
  24665665.2424   14658055.55243  11343445.55342                  24665671.9104
         5.0004          2.0004
  20951019.2344   -6464057.74446  -4979667.08546                  20951021.5554
        17.7504         18.7504
  25478100.3444    1089964.69642    829849.28841                  25478104.0474
         4.2504          0.7504
  23273278.9694    9225293.61945   7167071.55545                  23273282.9414
        11.7504          7.5004
  22615528.1414    8323914.92746   6459595.56045                  22615532.0784
        14.0004         11.7504
  22151497.5704   -7824187.96646  -5983799.47446                  22151501.4614
        14.7504         14.5004
  25627224.8134   11511238.72341
         1.7504
  23636943.8984   -9875185.08745  -4783124.02744                  23636948.3634
         7.5004          3.7504
 98  6 11 20 47 30.0000000  0  8G 5G 6G13G10G30G17G24G26
  24676506.4384   14715022.02543  11387834.84642                  24676512.1914
         5.0004          1.5004
  20949150.5234   -6473878.32446  -4987319.48446                  20949152.7974
        17.7504         18.5004
  25481495.8524    1107801.90442    843748.52641                  25481499.8014
         4.2504          1.0004
  23282441.2894    9273441.19745   7204589.12445                  23282445.8834
        11.7504          7.0004
  22624573.1174    8371448.19946   6496634.42946                  22624576.9614
        13.7504         12.0004
  22148394.8524   -7840491.73846  -5996503.70446                  22148398.8014
        15.0004         14.7504
  25634725.4064   11550671.65741
         1.7504
  23630947.2664   -9906698.77445  -4807680.08144                  23630951.2274
         7.7504          3.5004
 98  6 11 20 47 45.0000000  0  8G 5G 6G13G10G30G17G24G26
  24687346.6094   14771988.54042  11432224.18642                  24687354.4884
         4.7504          1.5004
  20947300.0004   -6483603.45546  -4994897.50946                  20947302.4384
        18.0004         18.5004
  25484913.0784    1125758.95742    857741.02541                  25484916.7814
         4.5004          1.2504
  23291616.5634    9321657.45645   7242160.22045                  23291620.7584
        11.7504          7.0004
  22633631.0164    8419046.38346   6533723.86845                  22633635.1054
        13.7504         11.5004
  22145302.2664   -7856743.34646  -6009167.28446                  22145305.9574
        15.0004         15.0004
  25642232.5704   11590103.86541
         1.5004
  23624963.5234   -9938142.62845  -4832181.72843                  23624969.0664
         7.5004          3.2504
 98  6 11 20 48  0.0000000  0  7G 5G 6G13G10G30G17G26
  24698187.0864   14828953.84743  11476612.54542                  24698192.6174
         5.0004          1.5004
  20945467.4844   -6493233.50246  -5002401.44146                  20945469.6414
        18.0004         19.0004
  25488352.4454    1143836.08842    871827.11941                  25488353.8284
         4.5004          0.5004
  23300805.3674    9369943.63745   7279785.78045                  23300809.5744
        11.5004          7.5004
  22642700.9144    8466711.30346   6570865.31945                  22642705.2624
        13.5004         11.2504
  22142218.8054   -7872947.74146  -6021794.07146                  22142222.4614
        15.0004         14.7504
  23618993.0944   -9969518.69945  -4856630.55844                  23618997.7584
         7.5004          3.5004
 98  6 11 20 48 15.0000000  0  7G 5G 6G13G10G30G17G26
  24709026.6414   14885915.60143  11520998.19942                  24709036.3364
         5.0004          2.0004
  20943652.8594   -6502770.10846  -5009832.56646                  20943655.0744
        18.0004         18.7504
  25491814.7504    1162033.92642    886007.23041                  25491819.0634
         4.5004          0.7504
  23310007.2114    9418300.69045   7317466.57845                  23310011.6764
        11.5004          7.0004
  22651785.2974    8514447.00746   6608061.91945                  22651789.3634
        13.7504         11.5004
  22139143.4304   -7889108.31546  -6034386.71646                  22139147.0984
        15.0004         14.5004
  23613034.4304  -10000826.89045  -4881026.49044                  23613039.3404
         7.5004          3.5004
 98  6 11 20 48 30.0000000  0  7G 5G 6G13G10G30G17G26
  24719865.8054   14942874.11943  11565381.25642                  24719875.1604
         5.0004          1.5004
  20941855.7814   -6512212.99546  -5017190.66246                  20941857.7974
        18.2504         18.7504
  25495302.1954    1180350.98443    900280.25941                  25495306.2274
         5.0004          0.7504
  23319222.7974    9466727.92945   7355202.07345                  23319227.2034
        11.5004          6.7504
  22660882.6804    8562254.90146   6645314.77745                  22660887.3094
        13.7504         11.0004
  22136076.9774   -7905224.31646  -6046944.63046                  22136080.6914
        15.2504         14.5004
  23607089.8754  -10032067.82744  -4905369.98043                  23607095.1134
         7.0004          3.2504
 98  6 11 20 48 45.0000000  0  7G 5G 6G13G10G30G17G26
  24730703.9384   14999829.83543  11609762.17942                  24730712.6024
         5.0004          1.7504
  20940077.0554   -6521560.66646  -5024474.56646                  20940079.2584
        18.2504         19.2504
  25498809.4454    1198786.88243    914645.83941                  25498805.4144
         5.0004          1.2504
  23328450.9144    9515221.54445   7392989.28045                  23328454.8874
        11.5004          6.7504
  22669994.4844    8610137.90046   6682626.15045                  22669998.7274
        13.7504         11.2504
  22133018.7814   -7921293.53046  -6059466.09046                  22133022.2974
        15.0004         15.0004
  23601158.1334  -10063240.87245  -4929660.62343                  23601163.1844
         7.5004          3.0004
 98  6 11 20 49  0.0000000  0  7G 5G 6G13G10G30G17G26
  24741542.4534   15056784.16043  11654142.03142                  24741551.3984
         5.0004          1.7504
  20938315.5784   -6530815.52946  -5031686.15446                  20938317.5594
        18.0004         19.0004
  25502341.8674    1217344.99342    929106.65041                  25502341.0944
         4.7504          1.2504
  23337691.5164    9563781.76645   7430828.39445                  23337695.4534
        11.7504          7.5004
  22679121.2194    8658099.57446   6719998.83745                  22679125.3794
        13.7504         11.0004
  22129970.3054   -7937314.27146  -6071949.77746                  22129973.8914
        15.0004         14.7504
  23595238.4384  -10094345.94545  -4953898.28944                  23595243.9574
         7.5004          4.0004
 98  6 11 20 49 15.0000000  0  7G 5G 6G13G10G30G17G26
  24752379.1954   15113735.82843  11698519.71642                  24752389.7704
         5.0004          1.5004
  20936571.4534   -6539981.63146  -5038828.57246                  20936573.5394
        18.2504         19.2504
  25505896.0704    1236025.22542
         4.5004
  23346944.5394    9612406.22145   7468717.56345                  23346948.3484
        11.7504          6.7504
  22688263.0784    8706138.91946   6757432.05145                  22688267.2974
        13.7504         11.2504
  22126930.5314   -7953286.65346  -6084395.77446                  22126934.1994
        15.0004         14.7504
  23589331.5554  -10125388.21245  -4978087.00943                  23589337.3094
         7.5004          3.2504
 98  6 11 20 49 30.0000000  0  7G 5G 6G13G10G30G17G26
  24763216.5784   15170683.14243  11742894.11442                  24763229.2734
         5.0004          1.5004
  20934843.5944   -6549062.41146  -5045904.51046                  20934845.5394
        18.0004         19.2504
  25509473.3914    1254827.30542
         4.5004
  23356208.9064    9661091.27045   7506653.93645                  23356212.3634
        11.7504          7.2504
  22697419.3364    8754254.69446   6794924.80945                  22697423.3794
        13.7504         11.0004
  22123900.0864   -7969211.91046  -6096805.05746                  22123903.6374
        15.0004         14.7504
  23583435.8524  -10156368.60745  -5002227.51643                  23583440.5394
         7.7504          3.2504
 98  6 11 20 49 45.0000000  0  7G 5G 6G13G10G30G17G26
  24774052.1644   15227627.74542  11787266.35041                  24774063.2194
         4.5004          1.2504
  20933132.2584   -6558055.80546  -5052912.35546                  20933134.3914
        18.2504         19.0004
  25513074.8444    1273754.62842
         4.5004
  23365483.8594    9709835.01745   7544636.06145                  23365487.7624
        11.5004          7.2504
  22706590.9454    8802452.74646   6832481.67945                  22706594.9414
        13.7504         11.5004
  22120879.4844   -7985086.67646  -6109174.99346                  22120883.2114
        15.0004         14.7504
  23577552.3984  -10187285.28145  -5026318.35544                  23577556.3244
         7.7504          3.5004
 98  6 11 20 50  0.0000000  0  7G 5G 6G13G10G30G17G26
  24784888.7814   15284566.86442  11831634.36442                  24784897.0944
         4.5004          1.5004
  20931436.3204   -6566967.35146  -5059856.41546                  20931438.3714
        18.2504         18.7504
  25516701.2894    1292805.38042
         4.5004
  23374770.2584    9758632.91745   7582660.37445                  23374773.7974
        11.7504          7.2504
  22715777.8914    8850732.09946   6870101.90345                  22715781.7704
        13.7504         11.0004
  22117867.3984   -8000914.87846  -6121508.64746                  22117871.1604
        14.7504         14.7504
  23571679.6724  -10218143.35545  -5050363.56544                  23571684.3954
         7.7504          3.7504
 98  6 11 20 50 15.0000000  0  7G 5G 6G13G10G30G17G26
  24795722.7814   15341502.78242  11875999.79241                  24795732.2194
         4.5004          1.2504
  20929755.7194   -6575799.09046  -5066738.29746                  20929757.9924
        18.2504         19.0004
  25520349.1564    1311981.30843      7979.37351                  25520353.5164
         5.0004          1.0004
  23384066.3134    9807484.24345   7620726.32245                  23384070.1454
        11.7504          7.0004
  22724981.0784    8899092.60046   6907785.36545                  22724985.0514
        13.5004         11.0004
  22114864.8364   -8016694.16346  -6133804.18646                  22114868.5984
        15.0004         14.7504
  23565820.4774  -10248939.19745  -5074360.24944                  23565825.3284
         7.7504          3.5004
 98  6 11 20 50 30.0000000  0  7G 5G 6G13G10G30G17G26
  24806556.6254   15398436.93042  11920363.89841                  24806564.5164
         4.5004          1.2504
  20928090.3984   -6584550.19946  -5073557.34746                  20928092.5904
        18.2504         18.7504
  25524022.3754    1331281.67342     23018.56641                  25524030.6054
         4.7504          0.5004
  23393372.8444    9856388.70245   7658833.67545                  23393376.6294
        11.7504          7.2504
  22734198.6254    8947532.52046   6945530.69945                  22734202.8444
        13.2504         10.7504
  22111872.3674   -8032420.69046  -6146058.61846                  22111876.5514
        14.7504         14.7504
  23559972.6024  -10279670.80145  -5098306.91744                  23559977.6524
         7.7504          3.7504
 98  6 11 20 50 45.0000000  0  7G 5G 6G13G10G30G17G26
  24817392.2664   15455370.33542  11964727.42042                  24817401.9734
         4.5004          1.7504
  20926441.5394   -6593215.87946  -5080309.82346                  20926443.7074
        18.0004         18.7504
  25527718.5164    1350706.78943     38154.99341                  25527721.3984
         5.0004          1.0004
  23402689.5234    9905347.61145   7696983.44545                  23402693.3674
        11.7504          7.0004
  22743431.2274    8996050.69646   6983337.01745                  22743435.5984
        13.2504         11.0004
  22108889.1484   -8048094.38946  -6158271.87646                  22108893.0514
        14.7504         15.2504
  23554136.7734  -10310337.35345  -5122202.86244                  23554142.5044
         8.0004          3.7504
 98  6 11 20 51  0.0000000  0  7G 5G 6G13G10G30G17G26
  24828225.3984   15512296.92942  12009085.63742                  24828233.4654
         4.5004          1.5004
  20924807.9304   -6601799.88246  -5086998.66046                  20924810.1914
        18.0004         18.2504
  25531438.9224    1370255.10743     53387.43741                  25531444.1254
         5.0004          1.2504
  23412015.7344    9954357.37545   7735172.85345                  23412019.2384
        11.5004          6.7504
  22752678.3444    9044643.33046   7021201.35645                  22752682.3404
        13.2504         10.7504
  22105915.7424   -8063721.02046  -6170448.46646                  22105919.8444
        15.0004         14.7504
  23548313.0864  -10340942.32445  -5146050.84644                  23548318.5594
         7.7504          4.0004
 98  6 11 20 51 15.0000000  0  7G 5G 6G13G10G30G17G26
  24839055.9304   15569216.32142  12053438.24341                  24839064.7934
         4.2504          1.2504
  20923190.3284   -6610299.35346  -5093621.62346                  20923192.6134
        17.7504         18.5004
  25535182.4304    1389927.50943     68716.59341                  25535184.2464
         5.2504          1.0004
  23421352.3834   10003422.69945   7773405.54545                  23421356.1564
        11.7504          6.5004
  22761939.0554    9093307.21846   7059121.22645                  22761943.4964
        13.2504         10.7504
  22102950.4064   -8079302.44546  -6182589.82946                  22102954.2854
        15.5004         15.0004
  23542499.9224  -10371487.55345  -5169852.24944                  23542506.1094
         8.0004          4.2504
 98  6 11 20 51 30.0000000  0  7G 5G 6G13G10G30G17G26
  24849885.3914   15626128.55542  12097785.25741                  24849894.8874
         4.2504          1.2504
  20921590.2734   -6618708.29446  -5100174.05046                  20921592.7234
        17.7504         18.2504
  25538948.7274    1409723.23143     84141.93241                  25538955.6334
         5.0004          0.7504
  23430700.3204   10052545.86445   7811683.32145                  23430703.7894
        11.2504          6.5004
  22771212.4774    9142040.16846   7097094.88845                  22771216.3794
        13.2504         10.2504
  22099994.2344   -8094838.56546  -6194695.88746                  22099998.1374
        15.5004         15.0004
  23536699.3914  -10401969.72445  -5193604.53844                  23536704.6294
         7.7504          3.7504
 98  6 11 20 51 45.0000000  0  7G 5G 6G13G10G30G17G26
  24860715.2894   15683032.88342  12142126.09341                  24860723.1804
         4.2504          1.2504
  20920007.9614   -6627022.78046  -5106652.87146                  20920010.2814
        17.7504         18.0004
  25542739.8054    1429643.53843     99664.15741                  25542746.1334
         5.0004          1.0004
  23440059.3674   10101731.21845   7850009.55045                  23440063.4104
        11.2504          6.5004
  22780499.2734    9190843.08946   7135123.09045                  22780503.5744
        13.2504         10.0004
  22097046.7034   -8110327.10846  -6206764.86946                  22097050.2194
        15.5004         15.5004
  23530911.7894  -10432384.06345  -5217303.96444                  23530917.1804
         8.2504          3.7504
 98  6 11 20 52  0.0000000  0  7G 5G 6G13G10G30G17G26
  24871542.1254   15739931.01442  12186462.10442                  24871548.2774
         4.5004          1.5004
  20918444.0164   -6635241.33346  -5113056.94746                  20918446.3834
        17.7504         18.2504
  25546554.3204    1449686.02042    115281.67741                  25546555.6804
         4.5004          0.7504
  23449431.5394   10150980.88345   7888385.88645                  23449435.3134
        11.0004          6.7504
  22789799.2894    9239714.58046   7173204.71245                  22789803.7774
        13.2504          9.7504
  22094108.3674   -8125767.34346  -6218796.21346                  22094112.1294
        15.7504         15.5004
  23525136.7664  -10462730.05145  -5240950.13344                  23525141.5234
         7.7504          4.0004
 98  6 11 20 52 15.0000000  0  7G 5G 6G13G10G30G17G26
  24882367.9844   15796820.11742  12230791.12741                  24882377.3164
         4.5004          1.2504
  20916897.6804   -6643367.88746  -5119389.32146                  20916900.0944
        17.7504         18.5004
  25550390.6334    1469845.56642    130990.31141                  25550391.3834
         4.7504          0.7504
  23458815.9924   10200294.36945   7926811.96345                  23458820.4804
        11.0004          6.0004
  22799111.4384    9288648.20746   7211334.75945                  22799115.8444
        13.2504         10.5004
  22091179.1724   -8141163.31746  -6230793.06746                  22091182.6054
        15.5004         15.2504
  23519374.7584  -10493009.45745  -5264544.39344                  23519379.6804
         8.0004          3.5004
 98  6 11 20 52 30.0000000  0  7G 5G 6G13G10G30G17G26
  24893191.2424   15853700.48242  12275113.32141                  24893202.2504
         4.2504          1.2504
  20915369.4454   -6651399.46746  -5125647.70546                  20915371.7774
        17.7504         18.2504
  25554248.6414    1490120.78743    146789.22441                  25554253.8324
         5.0004          1.0004
  23468212.5554   10249672.38445   7965288.32045                  23468216.4574
        11.2504          6.5004
  22808434.6484    9337641.54346   7249511.32445                  22808438.7034
        13.2504         10.2504
  22088257.5784   -8156514.65946  -6242755.14446                  22088261.2814
        15.5004         15.5004
  23513626.2424  -10523218.17745  -5288083.60944                  23513630.9884
         8.7504          4.0004
 98  6 11 20 52 45.0000000  0  7G 5G 6G13G10G30G17G26
  24904015.6024   15910572.37742  12319428.91341                  24904028.5084
         4.2504          1.0004
  20913860.1254   -6659331.51146  -5131828.51846                  20913862.7624
        18.0004         18.2504
  25558129.6414    1510511.40743    162678.07141                  25558121.1414
         5.0004          0.5004
  23477621.2584   10299118.60345   8003817.81445                  23477624.9494
        10.7504          6.2504
  22817769.2194    9386696.59546   7287735.99245                  22817773.1804
        13.2504          9.7504
  22085344.9384   -8171820.74646  -6254681.95946                  22085348.4884
        15.5004         15.0004
  23507891.8364  -10553355.16945  -5311566.92344                  23507896.8984
         8.2504          4.2504
 98  6 11 20 53  0.0000000  0  7G 5G 6G13G10G30G17G26
  24914834.6724   15967431.47242  12363734.49641                  24914842.0594
         4.2504          1.2504
  20912369.3834   -6667164.53046  -5137932.16946                  20912371.8204
        17.7504         18.5004
  25562031.9694    1531019.01842    178657.98941                  25562033.9264
         4.5004          0.7504
  23487043.2274   10348629.40345   8042397.62945                  23487047.5514
        10.2504          6.0004
  22827116.4384    9435814.24346   7326009.43145                  22827120.5514
        13.2504         10.0004
  22082440.8364   -8187082.50546  -6266574.23246                  22082444.6334
        15.5004         15.5004
  23502169.3524  -10583421.95445  -5334995.51344                  23502174.3324
         8.2504          4.2504
 98  6 11 20 53 15.0000000  0  7G 5G 6G13G10G30G17G26
  24925653.4534   16024283.07742  12408034.28541                  24925662.0944
         4.2504          1.2504
  20910897.6804   -6674899.06246  -5143959.08146                  20910900.2934
        18.0004         18.5004
  25565957.2034    1551647.39242    194731.98841                  25565953.7704
         4.5004          0.7504
  23496476.9614   10398206.24245   8081028.90545                  23496481.2974
        10.2504          6.0004
  22836475.1804    9484995.66346   7364332.56245                  22836478.9414
        13.2504         10.0004
  22079545.1804   -8202296.73246  -6278429.46546                  22079549.1294
        15.5004         15.5004
  23496462.5234  -10613413.80145  -5358365.70344                  23496466.4384
         8.5004          4.2504
 98  6 11 20 53 30.0000000  0  7G 5G 6G13G10G30G17G26
  24936469.6414   16081125.45242  12452326.83441                  24936478.5864
         4.2504          1.2504
  20909443.7034   -6682539.08246  -5149912.35146                  20909446.2584
        18.0004         18.7504
  25569903.0944    1572389.33542    210894.54241                  25569908.9884
         4.2504          1.0004
  23505922.6024   10447844.02045   8119707.67645                  23505926.2234
        10.2504          5.7504
  22845845.2504    9534235.96346   7402701.57245                  22845848.9534
        13.5004         10.0004
  22076658.7194   -8217466.44546  -6290250.01246                  22076662.7154
        15.5004         15.0004
  23490769.6254  -10643331.16745  -5381677.88344                  23490773.3404
         8.5004          4.2504
 98  6 11 20 53 45.0000000  0  7G 5G 6G13G10G30G17G26
  24947285.6804   16137960.91142  12496614.00942                  24947295.1294
         4.0004          1.5004
  20908008.1174   -6690083.67046  -5155791.25146                  20908010.4734
        18.0004         19.0004
  25573872.8134    1593244.97842    227145.69041                  25573874.7464
         4.2504          0.7504
  23515379.7504   10497539.85645   8158431.66145                  23515383.7814
        10.5004          6.0004
  22855227.0554    9583538.43246   7441119.02945                  22855230.9694
        13.5004          9.7504
  22073780.7814   -8232590.01746  -6302034.60646                  22073784.8134
        15.5004         15.5004
  23485092.0944  -10673168.36945  -5404927.57944                  23485098.1054
         8.2504          3.7504
 98  6 11 20 54  0.0000000  0  7G 5G 6G13G10G30G17G26
  24958099.7504   16194787.72142  12540894.47541                  24958109.7974
         4.2504          1.2504
  20906590.0234   -6697536.13746  -5161598.37146                  20906592.6954
        18.0004         18.5004
  25577863.5164    1614211.69742    243483.46441                  25577870.4804
         4.5004          0.7504
  23524847.1564   10547290.33745   8197198.26145                  23524851.5984
        10.5004          6.0004
  22864620.9534    9632902.40446   7479584.40245                  22864625.1604
        13.2504          9.7504
  22070911.2344   -8247670.41546  -6313785.55646                  22070915.0434
        15.5004         15.2504
  23479428.9224  -10702927.60445  -5428116.52744                  23479433.9264
         8.2504          3.7504
 98  6 11 20 54 15.0000000  0  7G 5G 6G13G10G30G17G26
  24968912.8054   16251609.95642  12585171.39241                  24968923.1804
         4.5004          1.0004
  20905190.2584   -6704892.59646  -5167330.68146                  20905192.5554
        18.2504         19.0004
  25581873.9774    1635291.76142    259909.37041                  25581886.8364
         4.5004          0.7504
  23534324.8834   10597095.38345   8236007.34245                  23534329.9344
        10.0004          5.5004
  22874026.9384    9682331.46746   7518100.51045                  22874030.8634
        13.5004         10.0004
  22068049.8524   -8262705.69946  -6325501.35046                  22068053.7544
        15.7504         15.2504
  23473780.9614  -10732605.41145  -5451242.05144                  23473785.5084
         8.7504          4.0004
 98  6 11 20 54 30.0000000  0  7G 5G 6G13G10G30G17G26
  24979723.9534   16308424.20742  12629442.07341                  24979732.4414
         4.0004          1.0004
  20903808.6884   -6712152.65446  -5172987.87046                  20903811.2194
        18.2504         18.7504
  25585906.7814    1656488.70442    276426.46141                  25585916.6994
         4.5004          0.7504
  23543811.9534   10646952.91845   8274857.35545                  23543815.4694
        10.0004          5.5004
  22883445.6954    9731825.91446   7556667.54945                  22883449.1524
        13.2504          9.7504
  22065197.1254   -8277696.57846  -6337182.54646                  22065201.0394
        15.5004         15.5004
  23468149.3914  -10762200.96745  -5474303.45344                  23468152.5204
         8.2504          4.0004
 98  6 11 20 54 45.0000000  0  7G 5G 6G13G10G30G17G26
  24990534.7274   16365231.10142  12673707.00441                  24990545.1484
         4.2504          0.7504
  20902445.7344   -6719312.97546  -5178567.34446                  20902448.0084
        18.2504         18.7504
  25589962.8834    1677803.10242    293035.08641                  25589965.3204
         4.5004          0.7504
  23553309.3754   10696862.69945   8313748.07245                  23553313.3484
        10.0004          5.5004
  22892876.2114    9781385.89946   7595285.66345                  22892879.8444
        13.5004         10.0004
  22062353.5474   -8292641.72746  -6348828.10546                  22062357.2384
        15.7504         15.2504
  23462532.8914  -10791712.59845  -5497299.43244                  23462539.0664
         8.5004          3.7504
 98  6 11 20 55  0.0000000  0  7G 5G 6G13G10G30G17G26
  25001342.3914   16422027.93942  12717964.12741                  25001349.6844
         4.2504          1.2504
  20901101.9844   -6726376.00146  -5184071.00946                  20901104.2814
        18.2504         18.7504
  25594042.1334    1699235.51342    309735.66341                  25594040.5394
         4.5004          1.0004
  23562816.5944   10746823.63845   8352678.64745                  23562820.2504
         9.7504          5.5004
  22902320.0004    9831010.92946   7633954.45945                  22902323.1884
        13.5004          9.7504
  22059517.8754   -8307541.80146  -6360438.54846                  22059521.5314
        15.7504         15.7504
  23456933.3204  -10821143.56245  -5520232.62344                  23456938.2194
         8.5004          3.7504
 98  6 11 20 55 15.0000000  0  7G 5G 6G13G10G30G17G26
  25012149.0474   16478817.61942  12762215.57242                  25012158.2974
         4.2504          1.5004
  20899775.8204   -6733345.50446  -5189501.79646                  20899778.2234
        18.0004         18.5004
  25598141.8204    1720783.14942    326525.89341                  25598145.9694
         4.5004          0.7504
  23572333.6174   10796834.35945   8391648.00945                  23572336.5124
         9.7504          6.0004
  22911775.2034    9880697.66546   7672671.33645                  22911778.7664
        13.2504          9.7504
  22056691.2114   -8322396.42346  -6372013.57146                  22056694.4344
        15.7504         15.5004
  23451346.9224  -10850494.92245  -5543103.72044                  23451351.5044
         8.7504          4.2504
 98  6 11 20 55 30.0000000  0  7G 5G 6G13G10G30G17G26
  25022955.8284   16535603.92342  12806464.48441                  25022960.4924
         4.2504          1.2504
  20898468.2734   -6740216.66246  -5194855.94346                  20898470.6174
        18.0004         18.2504
  25602264.6094    1742444.57842
         4.5004
  23581861.5164   10846901.58345   8430661.41845                  23581865.5004
        10.2504          6.0004
  22921241.9534    9930444.87646   7711435.33945                  22921245.9964
        13.2504          9.7504
  22053874.2734   -8337201.40246  -6383549.90746                  22053877.4964
        15.7504         15.7504
  23445777.8204  -10879762.85045  -5565909.83744                  23445781.3364
         8.7504          4.2504
 98  6 11 20 55 45.0000000  0  7G 5G 6G13G10G30G17G26
  25033760.7734   16592381.98542  12850706.98141                  25033770.5744
         4.2504          1.2504
  20897179.6954   -6746987.18146  -5200131.67646                  20897182.1334
        18.0004         18.2504
  25606408.4144    1764218.45242
         4.5004
  23591399.6954   10897025.05945   8469718.64345                  23591404.5234
        10.2504          5.7504
  22930719.9774    9980253.56746   7750247.25745                  22930723.8094
        13.2504          9.5004
  22051066.1334   -8351956.76746  -6395047.58446                  22051069.6724
        16.2504         16.2504
  23440223.2584  -10908949.81345  -5588652.83244                  23440227.7934
         8.2504          4.0004
 98  6 11 20 56  0.0000000  0  7G 5G 6G13G10G30G17G26
  25044562.7114   16649148.93642  12894940.73142                  25044577.6214
         4.0004          1.5004
  20895910.0474   -6753658.19346  -5205329.87046                  20895912.6604
        18.0004         18.0004
  25610573.6254    1786107.43842
         4.7504
  23600948.7274   10947204.28645   8508819.30445                  23600953.1804
        10.2504          5.7504
  22940210.1724   10030123.96246   7789107.23745                  22940213.7934
        13.5004          9.7504
  22048267.9304   -8366661.83146  -6406506.06246                  22048271.4454
        15.7504         16.0004
  23434684.4844  -10938058.68645  -5611335.01644                  23434688.5514
         9.0004          4.0004
 98  6 11 20 56 15.0000000  0  7G 5G 6G13G10G30G17G26
  25055363.7734   16705906.71242  12939167.43442                  25055373.4804
         4.2504          1.5004
  20894659.5784   -6760230.56346  -5210451.19246                  20894661.9454
        17.7504         17.7504
  25614760.4774    1808114.42943
         5.0004
  23610508.3444   10997443.00645   8547966.34445                  23610511.8954
        10.0004          5.7504
  22949712.3914   10080057.64746   7828016.54445                  22949716.0824
        13.7504          9.5004
  22045480.0084   -8381311.61846  -6417921.47046                  22045483.4884
        16.0004         16.0004
  23429159.8364  -10967088.71245  -5633955.77544                  23429164.5944
         8.7504          4.0004
 98  6 11 20 56 30.0000000  0  7G 5G 6G13G10G30G17G26
  25066162.0004   16762653.19542  12983385.19341                  25066171.8014
         4.2504          1.2504
  20893426.7114   -6766709.11746  -5215499.42146                  20893429.2424
        17.7504         17.7504
  25618970.0944    1830236.08642
         4.7504
  23620079.1484   11047738.79945   8587157.84645                  23620082.6764
        10.2504          6.0004
  22959225.4144   10130048.50146   7866970.40545                  22959229.0704
        13.7504          9.7504
  22042702.8134   -8395907.60346  -6429294.95446                  22042706.1644
        15.7504         16.5004
  23423650.5314  -10996043.03845  -5656517.52744                  23423654.5164
         8.7504          4.0004
 98  6 11 20 56 45.0000000  0  7G 5G 6G13G10G30G17G26
  25076959.2584   16819393.00642  13027597.95941                  25076968.2624
         3.7504          1.2504
  20892212.6024   -6773090.16946  -5220471.67046                  20892215.1094
        18.0004         17.7504
  25623202.0704    1852474.62942
         4.7504
  23629662.3674   11098098.27645   8626398.96745                  23629666.3874
        10.0004          5.5004
  22968749.2274   10180097.57446   7905969.61745                  22968752.9774
        13.7504          9.7504
  22039936.3134   -8410444.56046  -6440622.44046                  22039939.7584
        15.7504         16.0004
  23418155.7194  -11024918.28445  -5679017.63945                  23418160.3484
         9.2504          4.5004
 98  6 11 20 57  0.0000000  0  7G 5G 6G13G10G30G17G26
  25087755.6094   16876124.29642  13071803.96642                  25087766.0904
         4.0004          1.5004
  20891016.0704   -6779376.95446  -5225370.47046                  20891018.3794
        18.0004         17.5004
  25627456.0704    1874826.48742     16256.75651                  25627457.5004
         4.7504          1.0004
  23639257.8914   11148522.55845   8665690.56945                  23639262.5314
        10.2504          5.5004
  22978283.6094   10230201.64246   7945011.69445                  22978287.6524
        13.2504          9.7504
  22037181.0084   -8424924.33746  -6451905.37646                  22037184.4304
        16.2504         16.5004
  23412674.7424  -11053718.14645  -5701459.02344                  23412679.0434
         8.7504          4.2504
 98  6 11 20 57 15.0000000  0  7G 5G 6G13G10G30G17G26
  25098549.3444   16932847.07541  13116003.36242                  25098561.4414
         3.5004          1.5004
  20889837.8984   -6785569.04146  -5230195.47346                  20889840.1954
        18.0004         17.7504
  25631731.6804    1897293.24042     33763.24141                  25631734.0824
         4.5004          1.0004
  23648865.7504   11199012.10245   8705033.06845                  23648870.3204
        10.2504          5.7504
  22987828.6174   10280361.15846   7984096.97045                  22987832.5084
        13.2504          9.5004
  22034436.7814   -8439346.97646  -6463143.77846                  22034440.2974
        15.7504         16.5004
  23407208.3054  -11082442.26545  -5723841.39744                  23407212.8984
         9.0004          4.2504
 98  6 11 20 57 30.0000000  0  7G 5G 6G13G10G30G17G26
  25109340.9534   16989557.11941  13160192.74041                  25109356.0514
         3.5004          0.7504
  20888677.2894   -6791667.57946  -5234947.59146                  20888679.6914
        18.0004         18.0004
  25636026.9144    1919872.89842     51357.97241                  25636029.4344
         4.5004          0.7504
  23658485.9844   11249564.09345   8744424.20245                  23658490.4024
        10.2504          5.7504
  22997383.7974   10330572.79246   8023222.86345                  22997388.1564
        13.2504          9.2504
  22031701.6644   -8453717.40146  -6474341.50046                  22031705.1914
        16.2504         16.5004
  23401756.4304  -11111093.67645  -5746167.11145                  23401760.9654
         9.0004          4.5004
 98  6 11 20 57 45.0000000  0  7G 5G 6G13G10G30G17G26
  25120129.6254   17046248.87641  13204368.04441                  25120144.5234
         3.5004          1.2504
  20887534.5164   -6797672.19546  -5239626.51146                  20887536.8014
        18.0004         18.2504
  25640346.0394    1942567.49542     69041.89241                  25640353.4264
         4.5004          0.5004
  23668116.1024   11300173.20845   8783859.85945                  23668121.3874
        10.2504          5.2504
  23006949.4614   10380840.01146   8062392.05745                  23006953.8794
        13.2504          9.5004
  22028976.2274   -8468040.13446  -6485502.06346                  22028980.0824
        16.2504         16.7504
  23396318.3444  -11139671.63745  -5768435.59544                  23396324.1684
         9.0004          4.2504
 98  6 11 20 58  0.0000000  0  7G 5G 6G13G10G30G17G26
  25130913.9144   17102921.72641  13248528.61941                  25130926.9144
         3.5004          0.7504
  20886409.1724   -6803586.24546  -5244234.86946                  20886411.5984
        18.0004         17.7504
  25644688.0554    1965378.39142     86816.65941                  25644686.3554
         4.7504          1.2504
  23677756.3754   11350833.27345   8823335.20145                  23677760.6764
        10.0004          5.2504
  23016525.8444   10431164.89546   8101606.18445                  23016529.9104
        13.0004          9.7504
  22026259.0704   -8482319.09146  -6496628.50846                  22026262.6804
        16.5004         16.7504
  23390894.5634  -11168175.13245  -5790646.03945                  23390898.0664
         9.2504          4.7504
 98  6 11 20 58 15.0000000  0  7G 5G 6G13G10G30G17G26
  25141695.2894   17159579.00141  13292676.81142                  25141703.7664
         3.5004          1.5004
  20885300.9144   -6809410.64646  -5248773.36146                  20885303.3164
        18.0004         18.0004
  25649049.9844    1988304.11143    104680.82441                  25649050.6884
         5.0004          1.0004
  23687406.7814   11401545.31045   8862851.04645                  23687411.2464
        10.2504          5.2504
  23026113.4774   10481547.06846   8140864.97145                  23026117.4144
        13.0004          9.0004
  22023550.0634   -8496555.06646  -6507721.46446                  22023553.7074
        16.5004         17.0004
  23385484.7114  -11196601.31645  -5812796.25345                  23385489.4344
         9.0004          4.5004
 98  6 11 20 58 30.0000000  0  7G 5G 6G13G10G30G17G26
  25152474.6334   17216221.27641  13336813.45841                  25152483.8714
         3.2504          1.0004
  20884210.2734   -6815142.07946  -5253239.42146                  20884212.8054
        18.0004         18.0004
  25653433.3364    2011341.87242    122632.34041                  25653428.8014
         4.5004          0.7504
  23697066.7034   11452308.42845   8902406.68945                  23697071.7424
        10.2504          5.5004
  23035711.1804   10531983.72646   8180166.19145                  23035715.3054
        13.0004          9.0004
  22020848.7114   -8510751.78046  -6518783.83046                  22020852.0394
        16.5004         16.7504
  23380090.5234  -11224948.30845  -5834884.76245                  23380095.4344
         9.5004          4.5004
 98  6 11 20 58 45.0000000  0  7G 5G 6G13G10G30G17G26
  25163249.9304   17272846.79841  13380937.03841                  25163257.8914
         3.5004          0.7504
  20883138.4304   -6820775.24346  -5257628.90546                  20883140.8554
        18.0004         18.2504
  25657840.4454    2034494.18343    140673.08641                  25657838.5824
         5.0004          0.7504
  23706735.3204   11503119.29645   8941999.55145                  23706739.9964
        10.0004          5.0004
  23045319.6644   10582475.32146   8219510.23445                  23045323.3324
        12.7504          9.2504
  22018154.0554   -8524910.14046  -6529816.31146                  22018157.4414
        16.7504         17.0004
  23374711.2424  -11253213.61145  -5856909.62445                  23374715.5314
         9.5004          5.0004
 98  6 11 20 59  0.0000000  0  7G 5G 6G13G10G30G17G26
  25174021.9694   17329451.55941  13425044.56641                  25174033.6914
         3.5004          1.0004
  20882085.1094   -6826309.14846  -5261941.04746                  20882087.2664
        18.2504         18.2504
  25662267.8674    2057764.26042    158805.56141                  25662271.8524
         4.5004          0.7504
  23716413.2734   11553974.97945   8981627.33345                  23716417.3164
        10.2504          5.5004
  23054939.1414   10633026.78746   8258900.92345                  23054942.5164
        12.5004          8.7504
  22015466.5944   -8539032.55746  -6540820.78446                  22015470.0634
        16.7504         17.0004
  23369348.2814  -11281397.14345  -5878870.74445                  23369352.8524
         9.2504          4.7504
 98  6 11 20 59 15.0000000  0  7G 5G 6G13G10G30G17G26
  25184790.3524   17386033.84841  13469134.42041                  25184802.5904
         3.5004          1.2504
  20881050.9924   -6831745.81446  -5266177.41046                  20881053.1954
        18.2504         18.5004
  25666718.8674    2081153.09142    177030.68441                  25666721.4694
         4.5004          1.2504
  23726098.1174   11604870.63045   9021286.25145                  23726102.4414
        10.2504          5.2504
  23064570.6254   10683639.07546   8298339.00345                  23064574.6804
        12.5004          8.7504
  22012785.6254   -8553122.64346  -6551800.06546                  22012788.7074
        16.7504         16.7504
  23364001.0474  -11309497.53745  -5900767.09445                  23364006.4734
         9.2504          4.5004
 98  6 11 20 59 30.0000000  0  7G 5G 6G13G10G30G17G26
  25195553.4844   17442594.55242  13513207.52841                  25195568.8634
         3.7504          1.0004
  20880034.8054   -6837085.14746  -5270337.94046                  20880036.8794
        18.2504         18.5004
  25671192.1954    2104660.30542    195347.88141                  25671185.8094
         4.7504          0.7504
  23735790.0784   11655801.37645   9060972.51745                  23735793.4304
        10.5004          5.5004
  23074213.6254   10734313.01646   8337825.13245                  23074217.6804
        12.5004          8.7504
  22010110.4454   -8567178.96046  -6562753.03246                  22010113.6914
        16.7504         16.7504
  23358670.1884  -11337511.56045  -5922596.14745                  23358674.8054
         9.5004          4.5004
 98  6 11 20 59 45.0000000  0  7G 5G 6G13G10G30G17G26
  25206312.5554   17499136.86941  13557266.23741                  25206322.9414
         3.5004          1.2504
  20879036.6644   -6842328.45846  -5274423.63846                  20879039.1484
        18.5004         18.7504
  25675687.5084    2128287.81442    213758.99041                  25675683.1374
         4.5004          0.7504
  23745488.8834   11706768.24445   9100686.93545                  23745493.7814
        10.5004          5.5004
  23083868.8204   10785051.26546   8377361.36545                  23083873.3674
        12.2504          8.2504
  22007443.1174   -8581197.06846  -6573676.23046                  22007446.6214
        16.5004         16.7504
  23353356.9384  -11365434.03545  -5944353.86945                  23353361.6954
         9.7504          4.7504
 98  6 11 21  0  0.0000000  0  7G 5G 6G13G10G30G17G26
  25217070.0784   17555664.79942  13601313.88341                  25217080.0904
         3.7504          0.7504
  20878057.8754   -6847474.51446  -5278433.55546                  20878059.9494
        18.5004         18.7504
  25680208.0234    2152036.46342    232264.39441                  25680212.5824
         4.5004          0.7504
  23755194.6724   11757773.27945   9140431.09845                  23755198.6334
        10.2504          5.7504
  23093536.2584   10835854.25846   8416948.05045                  23093540.4654
        12.2504          8.5004
  22004783.8914   -8595171.50246  -6584565.38046                  22004787.3594
        16.7504         17.0004
  23348061.3914  -11393261.65145  -5966037.66145                  23348066.0434
         9.7504          5.2504
 98  6 11 21  0 15.0000000  0  7G 5G 6G13G10G30G17G26
  25227823.4844   17612177.30742  13645349.43541                  25227835.8524
         3.7504          1.2504
  20877096.3524   -6852526.76546  -5282370.37946                  20877098.4734
        18.7504         18.5004
  25684749.0554    2175903.53342    250862.07941                  25684752.7344
         4.2504          0.7504
  23764908.2504   11808816.98845   9180205.40845                  23764912.0234
        10.5004          5.5004
  23103214.2664   10886715.00146   8456579.73545                  23103219.2464
        12.2504          8.5004
  22002133.1254   -8609101.23546  -6595419.71346                  22002136.5704
        16.5004         17.0004
  23342782.3984  -11420999.20645  -5987651.28145                  23342787.6254
         9.2504          5.0004
 98  6 11 21  0 30.0000000  0  7G 5G 6G13G10G30G17G26
  25238574.7974   17668671.54641  13689370.77741                  25238582.2424
         3.5004          0.7504
  20876152.5944   -6857485.46546  -5286234.31146                  20876154.5394
        18.5004         18.5004
  25689312.4694    2199885.59342    269549.40041                  25689317.6844
         4.5004          0.7504
  23774628.6954   11859897.44345   9220008.31645                  23774633.1484
        10.5004          5.5004
  23112903.4064   10937627.53146   8496251.76945                  23112907.9774
        12.0004          8.2504
  21999490.8674   -8622986.68746  -6606239.53246                  21999494.1134
        16.5004         17.0004
  23337521.1724  -11448649.61945  -6009196.99545                  23337525.3554
         9.7504          5.0004
 98  6 11 21  0 45.0000000  0  7G 5G 6G13G10G30G17G26
  25249320.7974   17725144.71541  13733375.63541                  25249332.1454
         3.5004          1.0004
  20875226.9774   -6862350.13246  -5290024.96046                  20875228.9574
        18.7504         18.0004
  25693898.6724    2223984.98042    288328.10641                  25693902.3634
         4.5004          1.0004
  23784355.3674   11911013.41145   9259838.92345                  23784359.1174
        10.5004          5.2504
  23122600.7814   10988591.02045   8535963.51045                  23122604.8594
        11.7504          8.2504
  21996857.2034   -8636826.06446  -6617023.45246                  21996860.7774
        16.5004         17.0004
  23332275.5864  -11476215.01645  -6030676.45445                  23332279.9924
        10.0004          5.2504
 98  6 11 21  1  0.0000000  0  7G 5G 6G13G10G30G17G26
  25260063.2274   17781600.44741  13777366.93941                  25260078.7234
         3.5004          1.0004
  20874319.3594   -6867120.08346  -5293741.81346                  20874321.5044
        18.7504         18.0004
  25698507.3914    2248206.94642    307202.29341                  25698508.6334
         4.5004          0.7504
  23794090.1644   11962170.97645   9299701.94745                  23794093.6334
        10.0004          5.0004
  23132309.6414   11039611.30845   8575719.51945                  23132313.9654
        11.7504          8.5004
  21994232.8054   -8650615.74546  -6627768.64646                  21994235.9104
        17.0004         17.2504
  23327046.5234  -11503693.27845  -6052088.02045                  23327050.9654
        10.2504          5.0004
 98  6 11 21  1 15.0000000  0  7G 5G 6G13G10G30G17G26
  25270805.0394   17838039.87342  13821345.42641                  25270810.4304
         3.7504          0.7504
  20873428.8364   -6871799.51846  -5297388.13946                  20873430.8634
        18.5004         18.2504
  25703139.4384    2272545.10342    326167.14341                  25703143.1174
         4.5004          0.7504
  23803834.0394   12013372.44845   9339599.14845                  23803837.6724
        10.0004          5.2504
  23142029.0234   11090685.20246   8615517.30145                  23142033.4774
        12.2504          8.2504
  21991618.1954   -8664357.31646  -6638476.35246                  21991621.7584
        17.0004         17.2504
  23321833.4144  -11531086.98845  -6073433.72945                  23321836.4964
        10.2504          5.0004
 98  6 11 21  1 30.0000000  0  7G 5G 6G13G10G30G17G26
  25281541.2974   17894463.78541  13865312.12641                  25281552.4574
         3.5004          1.0004
  20872555.1884   -6876389.60146  -5300964.83446                  20872557.0394
        18.5004         18.2504
  25707792.4844    2296994.33842    345218.45541                  25707799.8244
         4.7504          1.2504
  23813585.1094   12064617.06845   9379530.00945                  23813589.4344
        10.0004          5.0004
  23151757.3204   11141807.58546   8655352.85045                  23151761.7384
        12.2504          8.2504
  21989012.3834   -8678051.32846  -6649147.00746                  21989015.8984
        17.0004         17.5004
  23316636.5554  -11558397.69645  -6094714.71945                  23316640.3524
        10.0004          5.5004
 98  6 11 21  1 45.0000000  0  7G 5G 6G13G10G30G17G26
  25292274.4614   17950868.42141  13909263.50741                  25292284.8014
         3.5004          1.0004
  20871699.2274   -6880890.02046  -5304471.65846                  20871701.4884
        18.2504         18.0004
  25712464.1724    2321552.74142    364354.85941                  25712469.7734
         4.5004          0.7504
  23823345.2344   12115904.28945   9419494.04545                  23823350.1564
        10.0004          4.7504
  23161494.7734   11192976.82946   8695224.93745                  23161499.4264
        12.2504          8.2504
  21986415.2424   -8691697.82646  -6659780.62846                  21986418.3954
        16.7504         17.5004
  23311454.5704  -11585630.05545  -6115934.68545                  23311458.3444
        10.0004          5.2504
 98  6 11 21  2  0.0000000  0  7G 5G 6G13G10G30G17G26
  25303004.6094   18007254.39941  13953200.49241                  25303024.6414
         3.5004          1.0004
  20870860.2814   -6885296.54146  -5307905.31846                  20870862.6724
        18.2504         18.2504
  25717159.3364    2346220.38442    383576.46941                  25717162.7114
         4.5004          0.5004
  23833113.0784   12167237.53745   9459493.96045                  23833118.0004
        10.0004          4.7504
  23171240.9144   11244195.40746   8735135.45345                  23171245.2034
        12.0004          8.5004
  21983827.6884   -8705296.90746  -6670377.29446                  21983830.9924
        17.0004         17.2504
  23306287.7974  -11612783.02145  -6137092.76945                  23306291.5944
        10.0004          5.0004
 98  6 11 21  2 15.0000000  0  7G 5G 6G13G10G30G17G26
  25313729.305    18063621.736 1
         3.250
  20870041.2584   -6889601.31546  -5311259.68446                  20870043.5314
        18.2504         18.2504
  25721874.2274    2370998.50343    402883.96642                  25721875.5634
         5.0004          1.5004
  23842891.3524   12218620.80345   9499532.84545                  23842895.6764
         9.5004          5.0004
  23180997.2584   11295463.93645   8775084.88545                  23181001.8524
        11.7504          8.2504
  21981248.5234   -8718849.96846  -6680938.11946                  21981251.6644
        17.0004         17.7504
  23301135.5164  -11639856.61345  -6158189.03545                  23301139.6884
         9.7504          5.0004
 98  6 11 21  2 30.0000000  0  7G 5G 6G13G10G30G17G26
  25324452.516    18119968.236 1
         3.250
  20869241.6414   -6893803.32146  -5314533.98146                  20869243.9614
        18.2504         18.0004
  25726610.8364    2395886.28642    422277.11041                  25726615.6414
         4.5004          1.0004
  23852678.9774   12270053.67545   9539610.37245                  23852682.6334
         9.7504          5.0004
  23190762.6954   11346781.28145   8815072.36545                  23190766.9734
        11.7504          7.5004
  21978677.5004   -8732361.57446  -6691466.63646                  21978680.8054
        17.0004         17.5004
  23295998.8914  -11666849.16445  -6179222.13345                  23296003.9654
         9.5004          5.0004
 98  6 11 21  2 45.0000000  0  7G 5G 6G13G10G30G17G26
  25335173.6484   18176292.25641
         3.2504
  20868461.5394   -6897901.36446  -5317727.26746                  20868464.1294
        18.2504         18.2504
  25731368.2194    2420883.60242    441755.44141                  25731368.2894
         4.2504          0.7504
  23862475.5314   12321536.64445   9579726.93545                  23862480.1134
         9.5004          4.7504
  23200538.1484   11398148.81645   8855098.95045                  23200542.5784
        11.7504          8.0004
  21976113.9144   -8745833.11646  -6701963.93046                  21976117.3484
        17.0004         18.0004
  23290877.8984  -11693758.84845  -6200190.65545                  23290881.3554
        10.0004          5.2504
 98  6 11 21  3  0.0000000  0  7G 5G 6G13G10G30G17G26
  25345885.5944   18232590.45341
         3.2504
  20867701.1174   -6901900.22146  -5320843.26246                  20867703.4264
        18.5004         18.2504
  25736144.6884    2445987.97042    461317.27841                  25736147.6294
         4.5004          1.2504
  23872282.2894   12373068.32445   9619881.46145                  23872286.0744
         9.7504          4.7504
  23210322.1254   11449564.59545   8895163.12445                  23210326.1454
        11.7504          7.5004
  21973557.5164   -8759267.00446  -6712431.88246                  21973561.2664
        16.7504         17.7504
  23285772.8134  -11720587.81445  -6221096.26845                  23285777.5944
        10.0004          5.2504
 98  6 11 21  3 15.0000000  0  7G 5G 6G13G10G30G17G26
  25356594.8594   18288864.73241     32151.32751                  25356602.5634
         3.5004          0.7504
  20866959.0004   -6905798.22246  -5323880.66646                  20866960.9924
        18.7504         18.5004
  25740940.8284    2471198.72042    480962.05441                  25740945.5864
         4.0004          1.0004
  23882097.0704   12424650.21245   9660075.12145                  23882100.1054
         9.2504          4.7504
  23220115.0864   11501028.56845   8935264.85545                  23220119.2464
        11.5004          7.7504
  21971008.7194   -8772661.36646  -6722869.03546                  21971012.1994
        17.0004         18.0004
  23280683.6024  -11747331.28645  -6241935.27445                  23280688.0204
        10.0004          5.0004
 98  6 11 21  3 30.0000000  0  7G 5G 6G13G10G30G17G26
  25367297.9144   18345114.35341     75982.00941                  25367309.3674
         3.5004          0.7504
  20866237.2814   -6909591.22346  -5326836.25846                  20866239.1914
        18.7504         18.5004
  25745760.0084    2496517.20542    500690.72441                  25745765.6914
         4.2504          0.7504
  23891922.2424   12476282.74045   9700308.23845                  23891927.0474
         9.2504          4.5004
  23229917.6094   11552539.11945   8975402.88045                  23229921.9924
        11.5004          7.7504
  21968467.7974   -8786012.77646  -6733272.72646                  21968471.4774
        17.0004         18.2504
  23275611.2894  -11773985.95845  -6262705.14345                  23275615.0274
        10.0004          5.0004
